<?xml version="1.0" encoding="UTF-8" standalone="no" ?>
<gpx xmlns="http://www.topografix.com/GPX/1/1" xmlns:xsi="http://www.w3.org/2001/XMLSchema-instance" xsi:schemaLocation="http://www.topografix.com/GPX/1/1 http://www.topografix.com/GPX/1/1/gpx.xsd" version="1.1" creator="VisuGPX - https://www.visugpx.com">
  <metadata>
    <name>Paris Vezelay : 8éme étape Joigny - Auxerre</name>
  </metadata>
  <trk>
    <name><![CDATA[Paris Vezlay : Joigny - Auxerre]]></name>
    <trkseg>
      <trkpt lat="47.9827" lon="3.39791">
        <ele>111</ele>
        <time>2019-07-11T06:25:05Z</time>
      </trkpt>
      <trkpt lat="47.98274" lon="3.39808">
        <ele>111</ele>
        <time>2019-07-11T06:25:05Z</time>
      </trkpt>
      <trkpt lat="47.9827" lon="3.39791">
        <ele>111</ele>
        <time>2019-07-11T06:25:10Z</time>
      </trkpt>
      <trkpt lat="47.98272" lon="3.39781">
        <ele>110</ele>
        <time>2019-07-11T06:25:15Z</time>
      </trkpt>
      <trkpt lat="47.98272" lon="3.39772">
        <ele>110</ele>
        <time>2019-07-11T06:25:20Z</time>
      </trkpt>
      <trkpt lat="47.98269" lon="3.39765">
        <ele>110</ele>
        <time>2019-07-11T06:25:25Z</time>
      </trkpt>
      <trkpt lat="47.98267" lon="3.39759">
        <ele>109</ele>
        <time>2019-07-11T06:25:35Z</time>
      </trkpt>
      <trkpt lat="47.98266" lon="3.39753">
        <ele>109</ele>
        <time>2019-07-11T06:25:45Z</time>
      </trkpt>
      <trkpt lat="47.98256" lon="3.39739">
        <ele>107</ele>
        <time>2019-07-11T06:25:55Z</time>
      </trkpt>
      <trkpt lat="47.9825" lon="3.39721">
        <ele>106</ele>
        <time>2019-07-11T06:26:10Z</time>
      </trkpt>
      <trkpt lat="47.98239" lon="3.39698">
        <ele>103</ele>
        <time>2019-07-11T06:26:15Z</time>
      </trkpt>
      <trkpt lat="47.98235" lon="3.39692">
        <ele>103</ele>
        <time>2019-07-11T06:26:25Z</time>
      </trkpt>
      <trkpt lat="47.98226" lon="3.39683">
        <ele>100</ele>
        <time>2019-07-11T06:26:35Z</time>
      </trkpt>
      <trkpt lat="47.98217" lon="3.39675">
        <ele>99</ele>
        <time>2019-07-11T06:26:45Z</time>
      </trkpt>
      <trkpt lat="47.9821" lon="3.39669">
        <ele>97</ele>
        <time>2019-07-11T06:26:55Z</time>
      </trkpt>
      <trkpt lat="47.98201" lon="3.39664">
        <ele>96</ele>
        <time>2019-07-11T06:27:05Z</time>
      </trkpt>
      <trkpt lat="47.98192" lon="3.39642">
        <ele>93</ele>
        <time>2019-07-11T06:27:15Z</time>
      </trkpt>
      <trkpt lat="47.98192" lon="3.39623">
        <ele>92</ele>
        <time>2019-07-11T06:27:35Z</time>
      </trkpt>
      <trkpt lat="47.98181" lon="3.39597">
        <ele>87</ele>
        <time>2019-07-11T06:27:40Z</time>
      </trkpt>
      <trkpt lat="47.98177" lon="3.39601">
        <ele>88</ele>
        <time>2019-07-11T06:27:50Z</time>
      </trkpt>
      <trkpt lat="47.98171" lon="3.39619">
        <ele>87</ele>
        <time>2019-07-11T06:27:55Z</time>
      </trkpt>
      <trkpt lat="47.98163" lon="3.39615">
        <ele>84</ele>
        <time>2019-07-11T06:28:05Z</time>
      </trkpt>
      <trkpt lat="47.98161" lon="3.39594">
        <ele>80</ele>
        <time>2019-07-11T06:28:30Z</time>
      </trkpt>
      <trkpt lat="47.98126" lon="3.39574">
        <ele>76</ele>
        <time>2019-07-11T06:28:35Z</time>
      </trkpt>
      <trkpt lat="47.98118" lon="3.3957">
        <ele>76</ele>
        <time>2019-07-11T06:28:40Z</time>
      </trkpt>
      <trkpt lat="47.9811" lon="3.39567">
        <ele>76</ele>
        <time>2019-07-11T06:29:00Z</time>
      </trkpt>
      <trkpt lat="47.9808" lon="3.39556">
        <ele>76</ele>
        <time>2019-07-11T06:29:05Z</time>
      </trkpt>
      <trkpt lat="47.98074" lon="3.39554">
        <ele>76</ele>
        <time>2019-07-11T06:29:10Z</time>
      </trkpt>
      <trkpt lat="47.98067" lon="3.39551">
        <ele>76</ele>
        <time>2019-07-11T06:29:15Z</time>
      </trkpt>
      <trkpt lat="47.9806" lon="3.39549">
        <ele>76</ele>
        <time>2019-07-11T06:29:20Z</time>
      </trkpt>
      <trkpt lat="47.98053" lon="3.39547">
        <ele>76</ele>
        <time>2019-07-11T06:29:30Z</time>
      </trkpt>
      <trkpt lat="47.98038" lon="3.39543">
        <ele>79</ele>
        <time>2019-07-11T06:29:40Z</time>
      </trkpt>
      <trkpt lat="47.98024" lon="3.39539">
        <ele>80</ele>
        <time>2019-07-11T06:30:00Z</time>
      </trkpt>
      <trkpt lat="47.97995" lon="3.39528">
        <ele>82</ele>
        <time>2019-07-11T06:30:05Z</time>
      </trkpt>
      <trkpt lat="47.97988" lon="3.39526">
        <ele>82</ele>
        <time>2019-07-11T06:30:25Z</time>
      </trkpt>
      <trkpt lat="47.97958" lon="3.39516">
        <ele>82</ele>
        <time>2019-07-11T06:30:30Z</time>
      </trkpt>
      <trkpt lat="47.97951" lon="3.39516">
        <ele>82</ele>
        <time>2019-07-11T06:30:35Z</time>
      </trkpt>
      <trkpt lat="47.97945" lon="3.3951">
        <ele>82</ele>
        <time>2019-07-11T06:30:45Z</time>
      </trkpt>
      <trkpt lat="47.97929" lon="3.39508">
        <ele>82</ele>
        <time>2019-07-11T06:30:55Z</time>
      </trkpt>
      <trkpt lat="47.97916" lon="3.39505">
        <ele>82</ele>
        <time>2019-07-11T06:31:15Z</time>
      </trkpt>
      <trkpt lat="47.97887" lon="3.39489">
        <ele>82</ele>
        <time>2019-07-11T06:31:30Z</time>
      </trkpt>
      <trkpt lat="47.97865" lon="3.3948">
        <ele>82</ele>
        <time>2019-07-11T06:32:00Z</time>
      </trkpt>
      <trkpt lat="47.97818" lon="3.39459">
        <ele>82</ele>
        <time>2019-07-11T06:32:10Z</time>
      </trkpt>
      <trkpt lat="47.97804" lon="3.39451">
        <ele>82</ele>
        <time>2019-07-11T06:33:05Z</time>
      </trkpt>
      <trkpt lat="47.97741" lon="3.39408">
        <ele>81</ele>
        <time>2019-07-11T06:33:15Z</time>
      </trkpt>
      <trkpt lat="47.97737" lon="3.39393">
        <ele>81</ele>
        <time>2019-07-11T06:33:40Z</time>
      </trkpt>
      <trkpt lat="47.97703" lon="3.39393">
        <ele>81</ele>
        <time>2019-07-11T06:33:55Z</time>
      </trkpt>
      <trkpt lat="47.97683" lon="3.39393">
        <ele>81</ele>
        <time>2019-07-11T06:34:15Z</time>
      </trkpt>
      <trkpt lat="47.97657" lon="3.3938">
        <ele>80</ele>
        <time>2019-07-11T06:34:20Z</time>
      </trkpt>
      <trkpt lat="47.9765" lon="3.39377">
        <ele>80</ele>
        <time>2019-07-11T06:34:25Z</time>
      </trkpt>
      <trkpt lat="47.97643" lon="3.39374">
        <ele>81</ele>
        <time>2019-07-11T06:34:35Z</time>
      </trkpt>
      <trkpt lat="47.97628" lon="3.39368">
        <ele>81</ele>
        <time>2019-07-11T06:34:40Z</time>
      </trkpt>
      <trkpt lat="47.9762" lon="3.39365">
        <ele>81</ele>
        <time>2019-07-11T06:34:45Z</time>
      </trkpt>
      <trkpt lat="47.97613" lon="3.39361">
        <ele>81</ele>
        <time>2019-07-11T06:34:55Z</time>
      </trkpt>
      <trkpt lat="47.97597" lon="3.39355">
        <ele>81</ele>
        <time>2019-07-11T06:35:00Z</time>
      </trkpt>
      <trkpt lat="47.9759" lon="3.39352">
        <ele>81</ele>
        <time>2019-07-11T06:35:10Z</time>
      </trkpt>
      <trkpt lat="47.97575" lon="3.39347">
        <ele>81</ele>
        <time>2019-07-11T06:35:35Z</time>
      </trkpt>
      <trkpt lat="47.97538" lon="3.39333">
        <ele>81</ele>
        <time>2019-07-11T06:35:40Z</time>
      </trkpt>
      <trkpt lat="47.9753" lon="3.39331">
        <ele>81</ele>
        <time>2019-07-11T06:35:45Z</time>
      </trkpt>
      <trkpt lat="47.97523" lon="3.39327">
        <ele>81</ele>
        <time>2019-07-11T06:35:55Z</time>
      </trkpt>
      <trkpt lat="47.97509" lon="3.39324">
        <ele>81</ele>
        <time>2019-07-11T06:36:00Z</time>
      </trkpt>
      <trkpt lat="47.97502" lon="3.3932">
        <ele>80</ele>
        <time>2019-07-11T06:36:05Z</time>
      </trkpt>
      <trkpt lat="47.97496" lon="3.39316">
        <ele>80</ele>
        <time>2019-07-11T06:36:10Z</time>
      </trkpt>
      <trkpt lat="47.97488" lon="3.39314">
        <ele>80</ele>
        <time>2019-07-11T06:36:15Z</time>
      </trkpt>
      <trkpt lat="47.97481" lon="3.39311">
        <ele>80</ele>
        <time>2019-07-11T06:36:20Z</time>
      </trkpt>
      <trkpt lat="47.97475" lon="3.39307">
        <ele>80</ele>
        <time>2019-07-11T06:36:25Z</time>
      </trkpt>
      <trkpt lat="47.97468" lon="3.39304">
        <ele>80</ele>
        <time>2019-07-11T06:36:30Z</time>
      </trkpt>
      <trkpt lat="47.97462" lon="3.39302">
        <ele>80</ele>
        <time>2019-07-11T06:36:45Z</time>
      </trkpt>
      <trkpt lat="47.97439" lon="3.39307">
        <ele>80</ele>
        <time>2019-07-11T06:36:55Z</time>
      </trkpt>
      <trkpt lat="47.97427" lon="3.39316">
        <ele>81</ele>
        <time>2019-07-11T06:37:00Z</time>
      </trkpt>
      <trkpt lat="47.9742" lon="3.39322">
        <ele>81</ele>
        <time>2019-07-11T06:37:05Z</time>
      </trkpt>
      <trkpt lat="47.97412" lon="3.39324">
        <ele>80</ele>
        <time>2019-07-11T06:37:10Z</time>
      </trkpt>
      <trkpt lat="47.97404" lon="3.39327">
        <ele>81</ele>
        <time>2019-07-11T06:37:15Z</time>
      </trkpt>
      <trkpt lat="47.97396" lon="3.39327">
        <ele>81</ele>
        <time>2019-07-11T06:37:25Z</time>
      </trkpt>
      <trkpt lat="47.97385" lon="3.39318">
        <ele>81</ele>
        <time>2019-07-11T06:37:30Z</time>
      </trkpt>
      <trkpt lat="47.97373" lon="3.39323">
        <ele>81</ele>
        <time>2019-07-11T06:38:00Z</time>
      </trkpt>
      <trkpt lat="47.97354" lon="3.39367">
        <ele>80</ele>
        <time>2019-07-11T06:38:10Z</time>
      </trkpt>
      <trkpt lat="47.97354" lon="3.39389">
        <ele>80</ele>
        <time>2019-07-11T06:38:20Z</time>
      </trkpt>
      <trkpt lat="47.97353" lon="3.39412">
        <ele>80</ele>
        <time>2019-07-11T06:38:50Z</time>
      </trkpt>
      <trkpt lat="47.97332" lon="3.39473">
        <ele>79</ele>
        <time>2019-07-11T06:39:00Z</time>
      </trkpt>
      <trkpt lat="47.97319" lon="3.39487">
        <ele>79</ele>
        <time>2019-07-11T06:39:10Z</time>
      </trkpt>
      <trkpt lat="47.97305" lon="3.39496">
        <ele>79</ele>
        <time>2019-07-11T06:39:20Z</time>
      </trkpt>
      <trkpt lat="47.9729" lon="3.39499">
        <ele>79</ele>
        <time>2019-07-11T06:39:25Z</time>
      </trkpt>
      <trkpt lat="47.97282" lon="3.395">
        <ele>79</ele>
        <time>2019-07-11T06:39:30Z</time>
      </trkpt>
      <trkpt lat="47.97274" lon="3.39502">
        <ele>79</ele>
        <time>2019-07-11T06:39:35Z</time>
      </trkpt>
      <trkpt lat="47.97266" lon="3.39504">
        <ele>79</ele>
        <time>2019-07-11T06:39:45Z</time>
      </trkpt>
      <trkpt lat="47.97252" lon="3.39507">
        <ele>78</ele>
        <time>2019-07-11T06:39:50Z</time>
      </trkpt>
      <trkpt lat="47.97245" lon="3.39509">
        <ele>78</ele>
        <time>2019-07-11T06:40:05Z</time>
      </trkpt>
      <trkpt lat="47.97223" lon="3.3952">
        <ele>79</ele>
        <time>2019-07-11T06:40:10Z</time>
      </trkpt>
      <trkpt lat="47.97216" lon="3.39525">
        <ele>79</ele>
        <time>2019-07-11T06:40:30Z</time>
      </trkpt>
      <trkpt lat="47.97187" lon="3.39539">
        <ele>78</ele>
        <time>2019-07-11T06:40:35Z</time>
      </trkpt>
      <trkpt lat="47.97181" lon="3.39545">
        <ele>78</ele>
        <time>2019-07-11T06:41:10Z</time>
      </trkpt>
      <trkpt lat="47.9713" lon="3.39576">
        <ele>79</ele>
        <time>2019-07-11T06:41:25Z</time>
      </trkpt>
      <trkpt lat="47.97109" lon="3.3959">
        <ele>79</ele>
        <time>2019-07-11T06:41:50Z</time>
      </trkpt>
      <trkpt lat="47.97075" lon="3.39611">
        <ele>79</ele>
        <time>2019-07-11T06:41:55Z</time>
      </trkpt>
      <trkpt lat="47.97068" lon="3.39614">
        <ele>79</ele>
        <time>2019-07-11T06:42:05Z</time>
      </trkpt>
      <trkpt lat="47.97055" lon="3.39623">
        <ele>79</ele>
        <time>2019-07-11T06:42:20Z</time>
      </trkpt>
      <trkpt lat="47.97034" lon="3.39637">
        <ele>79</ele>
        <time>2019-07-11T06:42:30Z</time>
      </trkpt>
      <trkpt lat="47.9702" lon="3.39645">
        <ele>79</ele>
        <time>2019-07-11T06:42:35Z</time>
      </trkpt>
      <trkpt lat="47.97012" lon="3.39649">
        <ele>79</ele>
        <time>2019-07-11T06:42:40Z</time>
      </trkpt>
      <trkpt lat="47.97005" lon="3.39653">
        <ele>79</ele>
        <time>2019-07-11T06:42:45Z</time>
      </trkpt>
      <trkpt lat="47.96998" lon="3.39658">
        <ele>79</ele>
        <time>2019-07-11T06:42:50Z</time>
      </trkpt>
      <trkpt lat="47.96991" lon="3.39662">
        <ele>80</ele>
        <time>2019-07-11T06:42:55Z</time>
      </trkpt>
      <trkpt lat="47.96984" lon="3.39667">
        <ele>80</ele>
        <time>2019-07-11T06:43:05Z</time>
      </trkpt>
      <trkpt lat="47.9697" lon="3.39675">
        <ele>80</ele>
        <time>2019-07-11T06:43:10Z</time>
      </trkpt>
      <trkpt lat="47.96963" lon="3.3968">
        <ele>80</ele>
        <time>2019-07-11T06:43:20Z</time>
      </trkpt>
      <trkpt lat="47.96949" lon="3.39688">
        <ele>80</ele>
        <time>2019-07-11T06:43:30Z</time>
      </trkpt>
      <trkpt lat="47.96937" lon="3.39694">
        <ele>80</ele>
        <time>2019-07-11T06:43:50Z</time>
      </trkpt>
      <trkpt lat="47.96909" lon="3.39709">
        <ele>80</ele>
        <time>2019-07-11T06:43:55Z</time>
      </trkpt>
      <trkpt lat="47.96902" lon="3.39714">
        <ele>80</ele>
        <time>2019-07-11T06:44:00Z</time>
      </trkpt>
      <trkpt lat="47.96895" lon="3.39719">
        <ele>81</ele>
        <time>2019-07-11T06:44:15Z</time>
      </trkpt>
      <trkpt lat="47.96873" lon="3.39732">
        <ele>81</ele>
        <time>2019-07-11T06:44:45Z</time>
      </trkpt>
      <trkpt lat="47.96831" lon="3.39759">
        <ele>80</ele>
        <time>2019-07-11T06:44:55Z</time>
      </trkpt>
      <trkpt lat="47.96821" lon="3.39766">
        <ele>80</ele>
        <time>2019-07-11T06:45:05Z</time>
      </trkpt>
      <trkpt lat="47.96803" lon="3.39776">
        <ele>80</ele>
        <time>2019-07-11T06:45:10Z</time>
      </trkpt>
      <trkpt lat="47.96797" lon="3.39781">
        <ele>80</ele>
        <time>2019-07-11T06:45:30Z</time>
      </trkpt>
      <trkpt lat="47.9677" lon="3.39797">
        <ele>80</ele>
        <time>2019-07-11T06:45:35Z</time>
      </trkpt>
      <trkpt lat="47.96764" lon="3.39801">
        <ele>80</ele>
        <time>2019-07-11T06:45:40Z</time>
      </trkpt>
      <trkpt lat="47.96758" lon="3.39805">
        <ele>80</ele>
        <time>2019-07-11T06:45:50Z</time>
      </trkpt>
      <trkpt lat="47.96745" lon="3.39813">
        <ele>80</ele>
        <time>2019-07-11T06:46:20Z</time>
      </trkpt>
      <trkpt lat="47.96704" lon="3.39839">
        <ele>80</ele>
        <time>2019-07-11T06:46:30Z</time>
      </trkpt>
      <trkpt lat="47.96692" lon="3.39845">
        <ele>80</ele>
        <time>2019-07-11T06:46:40Z</time>
      </trkpt>
      <trkpt lat="47.96679" lon="3.39852">
        <ele>80</ele>
        <time>2019-07-11T06:47:00Z</time>
      </trkpt>
      <trkpt lat="47.96652" lon="3.39867">
        <ele>80</ele>
        <time>2019-07-11T06:47:10Z</time>
      </trkpt>
      <trkpt lat="47.96638" lon="3.39876">
        <ele>80</ele>
        <time>2019-07-11T06:47:15Z</time>
      </trkpt>
      <trkpt lat="47.96631" lon="3.3988">
        <ele>81</ele>
        <time>2019-07-11T06:47:20Z</time>
      </trkpt>
      <trkpt lat="47.96624" lon="3.39885">
        <ele>81</ele>
        <time>2019-07-11T06:47:25Z</time>
      </trkpt>
      <trkpt lat="47.96617" lon="3.39889">
        <ele>81</ele>
        <time>2019-07-11T06:47:30Z</time>
      </trkpt>
      <trkpt lat="47.9661" lon="3.39894">
        <ele>82</ele>
        <time>2019-07-11T06:47:35Z</time>
      </trkpt>
      <trkpt lat="47.96602" lon="3.39899">
        <ele>82</ele>
        <time>2019-07-11T06:47:45Z</time>
      </trkpt>
      <trkpt lat="47.96588" lon="3.39908">
        <ele>83</ele>
        <time>2019-07-11T06:47:50Z</time>
      </trkpt>
      <trkpt lat="47.96581" lon="3.39913">
        <ele>83</ele>
        <time>2019-07-11T06:48:00Z</time>
      </trkpt>
      <trkpt lat="47.96566" lon="3.39923">
        <ele>83</ele>
        <time>2019-07-11T06:48:35Z</time>
      </trkpt>
      <trkpt lat="47.96517" lon="3.39951">
        <ele>82</ele>
        <time>2019-07-11T06:48:40Z</time>
      </trkpt>
      <trkpt lat="47.9651" lon="3.39957">
        <ele>82</ele>
        <time>2019-07-11T06:48:50Z</time>
      </trkpt>
      <trkpt lat="47.96497" lon="3.39965">
        <ele>81</ele>
        <time>2019-07-11T06:49:20Z</time>
      </trkpt>
      <trkpt lat="47.96458" lon="3.3999">
        <ele>81</ele>
        <time>2019-07-11T06:49:40Z</time>
      </trkpt>
      <trkpt lat="47.96431" lon="3.40005">
        <ele>80</ele>
        <time>2019-07-11T06:49:50Z</time>
      </trkpt>
      <trkpt lat="47.96417" lon="3.40012">
        <ele>80</ele>
        <time>2019-07-11T06:49:55Z</time>
      </trkpt>
      <trkpt lat="47.96409" lon="3.40018">
        <ele>80</ele>
        <time>2019-07-11T06:50:00Z</time>
      </trkpt>
      <trkpt lat="47.96401" lon="3.40023">
        <ele>80</ele>
        <time>2019-07-11T06:50:05Z</time>
      </trkpt>
      <trkpt lat="47.96393" lon="3.40028">
        <ele>80</ele>
        <time>2019-07-11T06:50:20Z</time>
      </trkpt>
      <trkpt lat="47.96373" lon="3.40041">
        <ele>80</ele>
        <time>2019-07-11T06:50:25Z</time>
      </trkpt>
      <trkpt lat="47.96365" lon="3.40044">
        <ele>81</ele>
        <time>2019-07-11T06:50:35Z</time>
      </trkpt>
      <trkpt lat="47.96351" lon="3.40052">
        <ele>81</ele>
        <time>2019-07-11T06:50:45Z</time>
      </trkpt>
      <trkpt lat="47.96337" lon="3.40061">
        <ele>81</ele>
        <time>2019-07-11T06:50:50Z</time>
      </trkpt>
      <trkpt lat="47.96331" lon="3.40067">
        <ele>81</ele>
        <time>2019-07-11T06:50:55Z</time>
      </trkpt>
      <trkpt lat="47.96323" lon="3.4007">
        <ele>81</ele>
        <time>2019-07-11T06:51:20Z</time>
      </trkpt>
      <trkpt lat="47.96291" lon="3.40093">
        <ele>81</ele>
        <time>2019-07-11T06:51:30Z</time>
      </trkpt>
      <trkpt lat="47.96281" lon="3.40099">
        <ele>81</ele>
        <time>2019-07-11T06:51:35Z</time>
      </trkpt>
      <trkpt lat="47.96274" lon="3.40103">
        <ele>81</ele>
        <time>2019-07-11T06:51:50Z</time>
      </trkpt>
      <trkpt lat="47.96251" lon="3.40116">
        <ele>81</ele>
        <time>2019-07-11T06:52:05Z</time>
      </trkpt>
      <trkpt lat="47.96227" lon="3.40127">
        <ele>81</ele>
        <time>2019-07-11T06:52:20Z</time>
      </trkpt>
      <trkpt lat="47.96205" lon="3.4014">
        <ele>80</ele>
        <time>2019-07-11T06:52:25Z</time>
      </trkpt>
      <trkpt lat="47.96197" lon="3.40144">
        <ele>80</ele>
        <time>2019-07-11T06:52:35Z</time>
      </trkpt>
      <trkpt lat="47.96181" lon="3.40153">
        <ele>80</ele>
        <time>2019-07-11T06:53:15Z</time>
      </trkpt>
      <trkpt lat="47.96122" lon="3.40155">
        <ele>81</ele>
        <time>2019-07-11T06:53:20Z</time>
      </trkpt>
      <trkpt lat="47.96111" lon="3.40157">
        <ele>81</ele>
        <time>2019-07-11T06:53:45Z</time>
      </trkpt>
      <trkpt lat="47.96073" lon="3.40158">
        <ele>82</ele>
        <time>2019-07-11T06:53:50Z</time>
      </trkpt>
      <trkpt lat="47.96065" lon="3.40158">
        <ele>82</ele>
        <time>2019-07-11T06:54:15Z</time>
      </trkpt>
      <trkpt lat="47.96026" lon="3.40157">
        <ele>83</ele>
        <time>2019-07-11T06:54:35Z</time>
      </trkpt>
      <trkpt lat="47.95998" lon="3.4015">
        <ele>84</ele>
        <time>2019-07-11T06:54:45Z</time>
      </trkpt>
      <trkpt lat="47.95981" lon="3.40146">
        <ele>84</ele>
        <time>2019-07-11T06:54:50Z</time>
      </trkpt>
      <trkpt lat="47.95973" lon="3.40142">
        <ele>84</ele>
        <time>2019-07-11T06:55:10Z</time>
      </trkpt>
      <trkpt lat="47.95943" lon="3.40132">
        <ele>83</ele>
        <time>2019-07-11T06:55:15Z</time>
      </trkpt>
      <trkpt lat="47.95936" lon="3.40128">
        <ele>83</ele>
        <time>2019-07-11T06:55:20Z</time>
      </trkpt>
      <trkpt lat="47.95928" lon="3.40123">
        <ele>83</ele>
        <time>2019-07-11T06:55:30Z</time>
      </trkpt>
      <trkpt lat="47.95913" lon="3.40117">
        <ele>82</ele>
        <time>2019-07-11T06:55:35Z</time>
      </trkpt>
      <trkpt lat="47.95906" lon="3.40113">
        <ele>82</ele>
        <time>2019-07-11T06:55:40Z</time>
      </trkpt>
      <trkpt lat="47.95899" lon="3.4011">
        <ele>82</ele>
        <time>2019-07-11T06:55:50Z</time>
      </trkpt>
      <trkpt lat="47.95884" lon="3.40101">
        <ele>82</ele>
        <time>2019-07-11T06:55:55Z</time>
      </trkpt>
      <trkpt lat="47.95876" lon="3.40098">
        <ele>82</ele>
        <time>2019-07-11T06:56:05Z</time>
      </trkpt>
      <trkpt lat="47.95862" lon="3.40089">
        <ele>82</ele>
        <time>2019-07-11T06:56:15Z</time>
      </trkpt>
      <trkpt lat="47.95849" lon="3.4008">
        <ele>82</ele>
        <time>2019-07-11T06:56:20Z</time>
      </trkpt>
      <trkpt lat="47.95842" lon="3.40075">
        <ele>82</ele>
        <time>2019-07-11T06:56:30Z</time>
      </trkpt>
      <trkpt lat="47.95827" lon="3.40065">
        <ele>82</ele>
        <time>2019-07-11T06:57:00Z</time>
      </trkpt>
      <trkpt lat="47.95786" lon="3.40042">
        <ele>82</ele>
        <time>2019-07-11T06:57:05Z</time>
      </trkpt>
      <trkpt lat="47.95779" lon="3.40038">
        <ele>82</ele>
        <time>2019-07-11T06:57:10Z</time>
      </trkpt>
      <trkpt lat="47.95771" lon="3.40034">
        <ele>82</ele>
        <time>2019-07-11T06:57:20Z</time>
      </trkpt>
      <trkpt lat="47.95758" lon="3.40026">
        <ele>82</ele>
        <time>2019-07-11T06:57:30Z</time>
      </trkpt>
      <trkpt lat="47.9575" lon="3.40043">
        <ele>82</ele>
        <time>2019-07-11T06:57:40Z</time>
      </trkpt>
      <trkpt lat="47.95741" lon="3.40061">
        <ele>82</ele>
        <time>2019-07-11T06:57:50Z</time>
      </trkpt>
      <trkpt lat="47.95734" lon="3.40078">
        <ele>82</ele>
        <time>2019-07-11T06:57:55Z</time>
      </trkpt>
      <trkpt lat="47.9573" lon="3.40088">
        <ele>82</ele>
        <time>2019-07-11T06:58:05Z</time>
      </trkpt>
      <trkpt lat="47.95721" lon="3.40108">
        <ele>82</ele>
        <time>2019-07-11T06:58:25Z</time>
      </trkpt>
      <trkpt lat="47.95705" lon="3.40147">
        <ele>82</ele>
        <time>2019-07-11T06:58:30Z</time>
      </trkpt>
      <trkpt lat="47.95702" lon="3.40158">
        <ele>82</ele>
        <time>2019-07-11T06:58:35Z</time>
      </trkpt>
      <trkpt lat="47.95698" lon="3.40168">
        <ele>82</ele>
        <time>2019-07-11T06:58:40Z</time>
      </trkpt>
      <trkpt lat="47.95694" lon="3.40177">
        <ele>82</ele>
        <time>2019-07-11T06:58:45Z</time>
      </trkpt>
      <trkpt lat="47.9569" lon="3.40186">
        <ele>82</ele>
        <time>2019-07-11T06:58:50Z</time>
      </trkpt>
      <trkpt lat="47.95684" lon="3.40195">
        <ele>82</ele>
        <time>2019-07-11T06:59:10Z</time>
      </trkpt>
      <trkpt lat="47.95669" lon="3.40231">
        <ele>82</ele>
        <time>2019-07-11T06:59:25Z</time>
      </trkpt>
      <trkpt lat="47.95657" lon="3.4026">
        <ele>82</ele>
        <time>2019-07-11T06:59:45Z</time>
      </trkpt>
      <trkpt lat="47.95637" lon="3.4027">
        <ele>82</ele>
        <time>2019-07-11T06:59:55Z</time>
      </trkpt>
      <trkpt lat="47.95624" lon="3.4026">
        <ele>83</ele>
        <time>2019-07-11T07:00:00Z</time>
      </trkpt>
      <trkpt lat="47.95617" lon="3.40255">
        <ele>83</ele>
        <time>2019-07-11T07:00:05Z</time>
      </trkpt>
      <trkpt lat="47.95611" lon="3.40249">
        <ele>84</ele>
        <time>2019-07-11T07:00:10Z</time>
      </trkpt>
      <trkpt lat="47.95605" lon="3.40245">
        <ele>84</ele>
        <time>2019-07-11T07:00:30Z</time>
      </trkpt>
      <trkpt lat="47.9558" lon="3.40251">
        <ele>84</ele>
        <time>2019-07-11T07:00:35Z</time>
      </trkpt>
      <trkpt lat="47.95574" lon="3.40259">
        <ele>85</ele>
        <time>2019-07-11T07:00:55Z</time>
      </trkpt>
      <trkpt lat="47.95557" lon="3.40294">
        <ele>85</ele>
        <time>2019-07-11T07:01:25Z</time>
      </trkpt>
      <trkpt lat="47.9554" lon="3.40358">
        <ele>85</ele>
        <time>2019-07-11T07:01:35Z</time>
      </trkpt>
      <trkpt lat="47.95535" lon="3.4038">
        <ele>84</ele>
        <time>2019-07-11T07:01:45Z</time>
      </trkpt>
      <trkpt lat="47.95529" lon="3.40401">
        <ele>84</ele>
        <time>2019-07-11T07:01:50Z</time>
      </trkpt>
      <trkpt lat="47.95527" lon="3.40412">
        <ele>84</ele>
        <time>2019-07-11T07:02:05Z</time>
      </trkpt>
      <trkpt lat="47.95521" lon="3.40444">
        <ele>83</ele>
        <time>2019-07-11T07:02:20Z</time>
      </trkpt>
      <trkpt lat="47.95514" lon="3.40478">
        <ele>82</ele>
        <time>2019-07-11T07:02:35Z</time>
      </trkpt>
      <trkpt lat="47.95507" lon="3.4051">
        <ele>82</ele>
        <time>2019-07-11T07:02:40Z</time>
      </trkpt>
      <trkpt lat="47.95505" lon="3.40521">
        <ele>82</ele>
        <time>2019-07-11T07:02:45Z</time>
      </trkpt>
      <trkpt lat="47.95502" lon="3.40531">
        <ele>82</ele>
        <time>2019-07-11T07:02:55Z</time>
      </trkpt>
      <trkpt lat="47.95498" lon="3.40553">
        <ele>83</ele>
        <time>2019-07-11T07:03:05Z</time>
      </trkpt>
      <trkpt lat="47.95493" lon="3.40573">
        <ele>82</ele>
        <time>2019-07-11T07:03:15Z</time>
      </trkpt>
      <trkpt lat="47.95489" lon="3.40595">
        <ele>82</ele>
        <time>2019-07-11T07:03:20Z</time>
      </trkpt>
      <trkpt lat="47.95486" lon="3.40605">
        <ele>82</ele>
        <time>2019-07-11T07:03:25Z</time>
      </trkpt>
      <trkpt lat="47.95483" lon="3.40615">
        <ele>82</ele>
        <time>2019-07-11T07:03:30Z</time>
      </trkpt>
      <trkpt lat="47.95481" lon="3.40625">
        <ele>82</ele>
        <time>2019-07-11T07:03:35Z</time>
      </trkpt>
      <trkpt lat="47.95479" lon="3.40636">
        <ele>82</ele>
        <time>2019-07-11T07:03:40Z</time>
      </trkpt>
      <trkpt lat="47.95477" lon="3.40648">
        <ele>82</ele>
        <time>2019-07-11T07:04:00Z</time>
      </trkpt>
      <trkpt lat="47.95468" lon="3.40689">
        <ele>82</ele>
        <time>2019-07-11T07:04:05Z</time>
      </trkpt>
      <trkpt lat="47.95467" lon="3.40699">
        <ele>82</ele>
        <time>2019-07-11T07:04:15Z</time>
      </trkpt>
      <trkpt lat="47.95461" lon="3.40719">
        <ele>82</ele>
        <time>2019-07-11T07:04:25Z</time>
      </trkpt>
      <trkpt lat="47.95456" lon="3.40741">
        <ele>82</ele>
        <time>2019-07-11T07:04:35Z</time>
      </trkpt>
      <trkpt lat="47.95451" lon="3.40762">
        <ele>82</ele>
        <time>2019-07-11T07:04:40Z</time>
      </trkpt>
      <trkpt lat="47.95448" lon="3.40773">
        <ele>82</ele>
        <time>2019-07-11T07:04:45Z</time>
      </trkpt>
      <trkpt lat="47.95444" lon="3.40784">
        <ele>82</ele>
        <time>2019-07-11T07:04:55Z</time>
      </trkpt>
      <trkpt lat="47.95438" lon="3.40803">
        <ele>82</ele>
        <time>2019-07-11T07:05:15Z</time>
      </trkpt>
      <trkpt lat="47.95425" lon="3.40844">
        <ele>82</ele>
        <time>2019-07-11T07:05:20Z</time>
      </trkpt>
      <trkpt lat="47.95423" lon="3.40855">
        <ele>82</ele>
        <time>2019-07-11T07:05:25Z</time>
      </trkpt>
      <trkpt lat="47.95421" lon="3.40865">
        <ele>82</ele>
        <time>2019-07-11T07:05:30Z</time>
      </trkpt>
      <trkpt lat="47.95418" lon="3.40875">
        <ele>82</ele>
        <time>2019-07-11T07:05:35Z</time>
      </trkpt>
      <trkpt lat="47.95416" lon="3.40885">
        <ele>82</ele>
        <time>2019-07-11T07:05:50Z</time>
      </trkpt>
      <trkpt lat="47.95408" lon="3.40917">
        <ele>82</ele>
        <time>2019-07-11T07:06:15Z</time>
      </trkpt>
      <trkpt lat="47.95394" lon="3.40969">
        <ele>82</ele>
        <time>2019-07-11T07:06:25Z</time>
      </trkpt>
      <trkpt lat="47.9539" lon="3.40989">
        <ele>82</ele>
        <time>2019-07-11T07:06:30Z</time>
      </trkpt>
      <trkpt lat="47.95386" lon="3.41002">
        <ele>82</ele>
        <time>2019-07-11T07:06:35Z</time>
      </trkpt>
      <trkpt lat="47.95382" lon="3.41013">
        <ele>83</ele>
        <time>2019-07-11T07:07:00Z</time>
      </trkpt>
      <trkpt lat="47.95368" lon="3.41065">
        <ele>83</ele>
        <time>2019-07-11T07:07:05Z</time>
      </trkpt>
      <trkpt lat="47.95365" lon="3.41075">
        <ele>83</ele>
        <time>2019-07-11T07:07:10Z</time>
      </trkpt>
      <trkpt lat="47.95363" lon="3.41085">
        <ele>83</ele>
        <time>2019-07-11T07:07:25Z</time>
      </trkpt>
      <trkpt lat="47.95355" lon="3.41116">
        <ele>83</ele>
        <time>2019-07-11T07:07:30Z</time>
      </trkpt>
      <trkpt lat="47.95353" lon="3.41127">
        <ele>83</ele>
        <time>2019-07-11T07:07:45Z</time>
      </trkpt>
      <trkpt lat="47.95346" lon="3.41158">
        <ele>83</ele>
        <time>2019-07-11T07:07:50Z</time>
      </trkpt>
      <trkpt lat="47.95343" lon="3.41167">
        <ele>82</ele>
        <time>2019-07-11T07:08:00Z</time>
      </trkpt>
      <trkpt lat="47.95338" lon="3.41187">
        <ele>82</ele>
        <time>2019-07-11T07:08:05Z</time>
      </trkpt>
      <trkpt lat="47.95336" lon="3.41199">
        <ele>83</ele>
        <time>2019-07-11T07:08:20Z</time>
      </trkpt>
      <trkpt lat="47.95327" lon="3.41231">
        <ele>82</ele>
        <time>2019-07-11T07:08:25Z</time>
      </trkpt>
      <trkpt lat="47.95325" lon="3.41241">
        <ele>83</ele>
        <time>2019-07-11T07:08:30Z</time>
      </trkpt>
      <trkpt lat="47.95322" lon="3.41251">
        <ele>83</ele>
        <time>2019-07-11T07:08:41Z</time>
      </trkpt>
      <trkpt lat="47.95318" lon="3.41268">
        <ele>83</ele>
        <time>2019-07-11T07:09:16Z</time>
      </trkpt>
      <trkpt lat="47.95305" lon="3.41349">
        <ele>83</ele>
        <time>2019-07-11T07:09:21Z</time>
      </trkpt>
      <trkpt lat="47.95302" lon="3.4136">
        <ele>84</ele>
        <time>2019-07-11T07:09:26Z</time>
      </trkpt>
      <trkpt lat="47.95301" lon="3.41371">
        <ele>84</ele>
        <time>2019-07-11T07:09:41Z</time>
      </trkpt>
      <trkpt lat="47.95296" lon="3.41404">
        <ele>83</ele>
        <time>2019-07-11T07:09:46Z</time>
      </trkpt>
      <trkpt lat="47.95295" lon="3.41415">
        <ele>83</ele>
        <time>2019-07-11T07:10:11Z</time>
      </trkpt>
      <trkpt lat="47.95287" lon="3.41472">
        <ele>83</ele>
        <time>2019-07-11T07:10:26Z</time>
      </trkpt>
      <trkpt lat="47.95283" lon="3.41502">
        <ele>83</ele>
        <time>2019-07-11T07:10:31Z</time>
      </trkpt>
      <trkpt lat="47.95282" lon="3.41513">
        <ele>83</ele>
        <time>2019-07-11T07:10:36Z</time>
      </trkpt>
      <trkpt lat="47.9528" lon="3.41527">
        <ele>83</ele>
        <time>2019-07-11T07:10:41Z</time>
      </trkpt>
      <trkpt lat="47.95279" lon="3.41538">
        <ele>83</ele>
        <time>2019-07-11T07:10:46Z</time>
      </trkpt>
      <trkpt lat="47.95277" lon="3.41548">
        <ele>83</ele>
        <time>2019-07-11T07:10:51Z</time>
      </trkpt>
      <trkpt lat="47.95275" lon="3.41556">
        <ele>83</ele>
        <time>2019-07-11T07:11:01Z</time>
      </trkpt>
      <trkpt lat="47.95272" lon="3.41581">
        <ele>83</ele>
        <time>2019-07-11T07:11:11Z</time>
      </trkpt>
      <trkpt lat="47.95269" lon="3.41602">
        <ele>82</ele>
        <time>2019-07-11T07:11:31Z</time>
      </trkpt>
      <trkpt lat="47.95264" lon="3.41648">
        <ele>82</ele>
        <time>2019-07-11T07:11:36Z</time>
      </trkpt>
      <trkpt lat="47.95262" lon="3.41659">
        <ele>81</ele>
        <time>2019-07-11T07:11:41Z</time>
      </trkpt>
      <trkpt lat="47.95261" lon="3.41668">
        <ele>81</ele>
        <time>2019-07-11T07:11:51Z</time>
      </trkpt>
      <trkpt lat="47.95258" lon="3.41694">
        <ele>81</ele>
        <time>2019-07-11T07:12:01Z</time>
      </trkpt>
      <trkpt lat="47.95255" lon="3.41715">
        <ele>81</ele>
        <time>2019-07-11T07:12:21Z</time>
      </trkpt>
      <trkpt lat="47.95248" lon="3.41758">
        <ele>82</ele>
        <time>2019-07-11T07:12:31Z</time>
      </trkpt>
      <trkpt lat="47.95245" lon="3.4178">
        <ele>82</ele>
        <time>2019-07-11T07:12:36Z</time>
      </trkpt>
      <trkpt lat="47.95243" lon="3.41791">
        <ele>82</ele>
        <time>2019-07-11T07:12:41Z</time>
      </trkpt>
      <trkpt lat="47.95242" lon="3.41803">
        <ele>82</ele>
        <time>2019-07-11T07:12:51Z</time>
      </trkpt>
      <trkpt lat="47.95239" lon="3.41824">
        <ele>83</ele>
        <time>2019-07-11T07:13:01Z</time>
      </trkpt>
      <trkpt lat="47.95236" lon="3.41847">
        <ele>83</ele>
        <time>2019-07-11T07:13:06Z</time>
      </trkpt>
      <trkpt lat="47.95235" lon="3.41858">
        <ele>83</ele>
        <time>2019-07-11T07:13:16Z</time>
      </trkpt>
      <trkpt lat="47.95232" lon="3.41879">
        <ele>83</ele>
        <time>2019-07-11T07:13:26Z</time>
      </trkpt>
      <trkpt lat="47.95229" lon="3.41902">
        <ele>84</ele>
        <time>2019-07-11T07:13:51Z</time>
      </trkpt>
      <trkpt lat="47.95221" lon="3.41957">
        <ele>84</ele>
        <time>2019-07-11T07:14:11Z</time>
      </trkpt>
      <trkpt lat="47.95216" lon="3.42002">
        <ele>83</ele>
        <time>2019-07-11T07:14:16Z</time>
      </trkpt>
      <trkpt lat="47.95214" lon="3.42013">
        <ele>83</ele>
        <time>2019-07-11T07:14:26Z</time>
      </trkpt>
      <trkpt lat="47.95211" lon="3.42036">
        <ele>84</ele>
        <time>2019-07-11T07:14:31Z</time>
      </trkpt>
      <trkpt lat="47.9521" lon="3.42044">
        <ele>84</ele>
        <time>2019-07-11T07:15:06Z</time>
      </trkpt>
      <trkpt lat="47.95203" lon="3.42126">
        <ele>84</ele>
        <time>2019-07-11T07:15:16Z</time>
      </trkpt>
      <trkpt lat="47.95202" lon="3.42148">
        <ele>84</ele>
        <time>2019-07-11T07:16:01Z</time>
      </trkpt>
      <trkpt lat="47.95197" lon="3.42249">
        <ele>85</ele>
        <time>2019-07-11T07:16:11Z</time>
      </trkpt>
      <trkpt lat="47.95195" lon="3.42271">
        <ele>86</ele>
        <time>2019-07-11T07:16:21Z</time>
      </trkpt>
      <trkpt lat="47.95194" lon="3.42291">
        <ele>86</ele>
        <time>2019-07-11T07:16:26Z</time>
      </trkpt>
      <trkpt lat="47.95194" lon="3.42302">
        <ele>87</ele>
        <time>2019-07-11T07:16:56Z</time>
      </trkpt>
      <trkpt lat="47.95189" lon="3.42371">
        <ele>88</ele>
        <time>2019-07-11T07:17:01Z</time>
      </trkpt>
      <trkpt lat="47.95188" lon="3.4238">
        <ele>89</ele>
        <time>2019-07-11T07:17:06Z</time>
      </trkpt>
      <trkpt lat="47.95187" lon="3.42393">
        <ele>89</ele>
        <time>2019-07-11T07:17:26Z</time>
      </trkpt>
      <trkpt lat="47.95185" lon="3.42438">
        <ele>91</ele>
        <time>2019-07-11T07:17:31Z</time>
      </trkpt>
      <trkpt lat="47.95185" lon="3.42447">
        <ele>91</ele>
        <time>2019-07-11T07:17:46Z</time>
      </trkpt>
      <trkpt lat="47.95182" lon="3.42483">
        <ele>92</ele>
        <time>2019-07-11T07:17:51Z</time>
      </trkpt>
      <trkpt lat="47.95181" lon="3.42494">
        <ele>92</ele>
        <time>2019-07-11T07:18:06Z</time>
      </trkpt>
      <trkpt lat="47.95179" lon="3.42527">
        <ele>92</ele>
        <time>2019-07-11T07:18:16Z</time>
      </trkpt>
      <trkpt lat="47.95177" lon="3.42551">
        <ele>92</ele>
        <time>2019-07-11T07:18:21Z</time>
      </trkpt>
      <trkpt lat="47.95177" lon="3.42561">
        <ele>92</ele>
        <time>2019-07-11T07:18:26Z</time>
      </trkpt>
      <trkpt lat="47.95176" lon="3.42572">
        <ele>93</ele>
        <time>2019-07-11T07:18:31Z</time>
      </trkpt>
      <trkpt lat="47.95175" lon="3.42582">
        <ele>93</ele>
        <time>2019-07-11T07:18:41Z</time>
      </trkpt>
      <trkpt lat="47.95173" lon="3.42605">
        <ele>93</ele>
        <time>2019-07-11T07:18:46Z</time>
      </trkpt>
      <trkpt lat="47.95172" lon="3.42617">
        <ele>93</ele>
        <time>2019-07-11T07:18:56Z</time>
      </trkpt>
      <trkpt lat="47.95171" lon="3.42637">
        <ele>93</ele>
        <time>2019-07-11T07:19:01Z</time>
      </trkpt>
      <trkpt lat="47.9517" lon="3.42647">
        <ele>93</ele>
        <time>2019-07-11T07:19:26Z</time>
      </trkpt>
      <trkpt lat="47.95166" lon="3.42703">
        <ele>94</ele>
        <time>2019-07-11T07:19:36Z</time>
      </trkpt>
      <trkpt lat="47.95163" lon="3.42726">
        <ele>95</ele>
        <time>2019-07-11T07:19:41Z</time>
      </trkpt>
      <trkpt lat="47.95161" lon="3.42737">
        <ele>95</ele>
        <time>2019-07-11T07:19:46Z</time>
      </trkpt>
      <trkpt lat="47.95161" lon="3.42748">
        <ele>95</ele>
        <time>2019-07-11T07:20:16Z</time>
      </trkpt>
      <trkpt lat="47.95152" lon="3.42811">
        <ele>96</ele>
        <time>2019-07-11T07:20:21Z</time>
      </trkpt>
      <trkpt lat="47.95151" lon="3.42822">
        <ele>96</ele>
        <time>2019-07-11T07:20:31Z</time>
      </trkpt>
      <trkpt lat="47.95148" lon="3.42845">
        <ele>96</ele>
        <time>2019-07-11T07:21:21Z</time>
      </trkpt>
      <trkpt lat="47.95169" lon="3.42935">
        <ele>96</ele>
        <time>2019-07-11T07:21:26Z</time>
      </trkpt>
      <trkpt lat="47.95174" lon="3.42938">
        <ele>96</ele>
        <time>2019-07-11T07:21:36Z</time>
      </trkpt>
      <trkpt lat="47.95188" lon="3.42948">
        <ele>96</ele>
        <time>2019-07-11T07:21:51Z</time>
      </trkpt>
      <trkpt lat="47.952" lon="3.4298">
        <ele>97</ele>
        <time>2019-07-11T07:22:01Z</time>
      </trkpt>
      <trkpt lat="47.95201" lon="3.43003">
        <ele>97</ele>
        <time>2019-07-11T07:22:11Z</time>
      </trkpt>
      <trkpt lat="47.95199" lon="3.43023">
        <ele>97</ele>
        <time>2019-07-11T07:22:16Z</time>
      </trkpt>
      <trkpt lat="47.95197" lon="3.43035">
        <ele>97</ele>
        <time>2019-07-11T07:22:26Z</time>
      </trkpt>
      <trkpt lat="47.95193" lon="3.43055">
        <ele>97</ele>
        <time>2019-07-11T07:22:31Z</time>
      </trkpt>
      <trkpt lat="47.95192" lon="3.43064">
        <ele>97</ele>
        <time>2019-07-11T07:22:51Z</time>
      </trkpt>
      <trkpt lat="47.95187" lon="3.43089">
        <ele>95</ele>
        <time>2019-07-11T07:23:01Z</time>
      </trkpt>
      <trkpt lat="47.95195" lon="3.43114">
        <ele>97</ele>
        <time>2019-07-11T07:23:06Z</time>
      </trkpt>
      <trkpt lat="47.95203" lon="3.43131">
        <ele>97</ele>
        <time>2019-07-11T07:23:11Z</time>
      </trkpt>
      <trkpt lat="47.95207" lon="3.43141">
        <ele>97</ele>
        <time>2019-07-11T07:23:21Z</time>
      </trkpt>
      <trkpt lat="47.95211" lon="3.43154">
        <ele>97</ele>
        <time>2019-07-11T07:23:46Z</time>
      </trkpt>
      <trkpt lat="47.9522" lon="3.43173">
        <ele>97</ele>
        <time>2019-07-11T07:24:01Z</time>
      </trkpt>
      <trkpt lat="47.95231" lon="3.43221">
        <ele>96</ele>
        <time>2019-07-11T07:24:06Z</time>
      </trkpt>
      <trkpt lat="47.95234" lon="3.43254">
        <ele>96</ele>
        <time>2019-07-11T07:24:11Z</time>
      </trkpt>
      <trkpt lat="47.95236" lon="3.43264">
        <ele>96</ele>
        <time>2019-07-11T07:24:16Z</time>
      </trkpt>
      <trkpt lat="47.95237" lon="3.43274">
        <ele>96</ele>
        <time>2019-07-11T07:24:36Z</time>
      </trkpt>
      <trkpt lat="47.9524" lon="3.43283">
        <ele>96</ele>
        <time>2019-07-11T07:24:41Z</time>
      </trkpt>
      <trkpt lat="47.95249" lon="3.43326">
        <ele>96</ele>
        <time>2019-07-11T07:24:56Z</time>
      </trkpt>
      <trkpt lat="47.95251" lon="3.43338">
        <ele>96</ele>
        <time>2019-07-11T07:25:01Z</time>
      </trkpt>
      <trkpt lat="47.9525" lon="3.43374">
        <ele>96</ele>
        <time>2019-07-11T07:25:26Z</time>
      </trkpt>
      <trkpt lat="47.95249" lon="3.43383">
        <ele>96</ele>
        <time>2019-07-11T07:25:31Z</time>
      </trkpt>
      <trkpt lat="47.9524" lon="3.43441">
        <ele>96</ele>
        <time>2019-07-11T07:25:36Z</time>
      </trkpt>
      <trkpt lat="47.95238" lon="3.43454">
        <ele>96</ele>
        <time>2019-07-11T07:25:46Z</time>
      </trkpt>
      <trkpt lat="47.95235" lon="3.43465">
        <ele>96</ele>
        <time>2019-07-11T07:25:56Z</time>
      </trkpt>
      <trkpt lat="47.95232" lon="3.43487">
        <ele>96</ele>
        <time>2019-07-11T07:26:06Z</time>
      </trkpt>
      <trkpt lat="47.9523" lon="3.43507">
        <ele>96</ele>
        <time>2019-07-11T07:26:11Z</time>
      </trkpt>
      <trkpt lat="47.95228" lon="3.43529">
        <ele>95</ele>
        <time>2019-07-11T07:26:36Z</time>
      </trkpt>
      <trkpt lat="47.95229" lon="3.43541">
        <ele>95</ele>
        <time>2019-07-11T07:26:41Z</time>
      </trkpt>
      <trkpt lat="47.95225" lon="3.43599">
        <ele>95</ele>
        <time>2019-07-11T07:26:46Z</time>
      </trkpt>
      <trkpt lat="47.95224" lon="3.4361">
        <ele>95</ele>
        <time>2019-07-11T07:27:21Z</time>
      </trkpt>
      <trkpt lat="47.95221" lon="3.43621">
        <ele>95</ele>
        <time>2019-07-11T07:27:26Z</time>
      </trkpt>
      <trkpt lat="47.95205" lon="3.43691">
        <ele>95</ele>
        <time>2019-07-11T07:27:31Z</time>
      </trkpt>
      <trkpt lat="47.95204" lon="3.43702">
        <ele>95</ele>
        <time>2019-07-11T07:27:41Z</time>
      </trkpt>
      <trkpt lat="47.95202" lon="3.43715">
        <ele>95</ele>
        <time>2019-07-11T07:27:56Z</time>
      </trkpt>
      <trkpt lat="47.95199" lon="3.43729">
        <ele>96</ele>
        <time>2019-07-11T07:28:06Z</time>
      </trkpt>
      <trkpt lat="47.95197" lon="3.43764">
        <ele>95</ele>
        <time>2019-07-11T07:28:11Z</time>
      </trkpt>
      <trkpt lat="47.95192" lon="3.43784">
        <ele>95</ele>
        <time>2019-07-11T07:28:16Z</time>
      </trkpt>
      <trkpt lat="47.9519" lon="3.43795">
        <ele>94</ele>
        <time>2019-07-11T07:28:21Z</time>
      </trkpt>
      <trkpt lat="47.95186" lon="3.43805">
        <ele>95</ele>
        <time>2019-07-11T07:28:41Z</time>
      </trkpt>
      <trkpt lat="47.95182" lon="3.43815">
        <ele>95</ele>
        <time>2019-07-11T07:28:51Z</time>
      </trkpt>
      <trkpt lat="47.95168" lon="3.43857">
        <ele>95</ele>
        <time>2019-07-11T07:28:56Z</time>
      </trkpt>
      <trkpt lat="47.95161" lon="3.43879">
        <ele>96</ele>
        <time>2019-07-11T07:29:21Z</time>
      </trkpt>
      <trkpt lat="47.95157" lon="3.4389">
        <ele>95</ele>
        <time>2019-07-11T07:29:31Z</time>
      </trkpt>
      <trkpt lat="47.95143" lon="3.43941">
        <ele>95</ele>
        <time>2019-07-11T07:29:36Z</time>
      </trkpt>
      <trkpt lat="47.95136" lon="3.43962">
        <ele>95</ele>
        <time>2019-07-11T07:29:46Z</time>
      </trkpt>
      <trkpt lat="47.95133" lon="3.43969">
        <ele>95</ele>
        <time>2019-07-11T07:30:01Z</time>
      </trkpt>
      <trkpt lat="47.95127" lon="3.4399">
        <ele>95</ele>
        <time>2019-07-11T07:30:26Z</time>
      </trkpt>
      <trkpt lat="47.95118" lon="3.44022">
        <ele>94</ele>
        <time>2019-07-11T07:30:31Z</time>
      </trkpt>
      <trkpt lat="47.95103" lon="3.44075">
        <ele>94</ele>
        <time>2019-07-11T07:30:36Z</time>
      </trkpt>
      <trkpt lat="47.951" lon="3.44085">
        <ele>93</ele>
        <time>2019-07-11T07:30:41Z</time>
      </trkpt>
      <trkpt lat="47.95096" lon="3.44094">
        <ele>94</ele>
        <time>2019-07-11T07:30:46Z</time>
      </trkpt>
      <trkpt lat="47.95092" lon="3.44104">
        <ele>94</ele>
        <time>2019-07-11T07:30:51Z</time>
      </trkpt>
      <trkpt lat="47.95089" lon="3.44115">
        <ele>93</ele>
        <time>2019-07-11T07:30:56Z</time>
      </trkpt>
      <trkpt lat="47.95085" lon="3.44128">
        <ele>93</ele>
        <time>2019-07-11T07:31:06Z</time>
      </trkpt>
      <trkpt lat="47.95083" lon="3.44138">
        <ele>94</ele>
        <time>2019-07-11T07:31:11Z</time>
      </trkpt>
      <trkpt lat="47.95076" lon="3.44155">
        <ele>94</ele>
        <time>2019-07-11T07:31:16Z</time>
      </trkpt>
      <trkpt lat="47.95073" lon="3.44165">
        <ele>95</ele>
        <time>2019-07-11T07:31:31Z</time>
      </trkpt>
      <trkpt lat="47.9507" lon="3.44176">
        <ele>95</ele>
        <time>2019-07-11T07:31:41Z</time>
      </trkpt>
      <trkpt lat="47.95061" lon="3.4421">
        <ele>95</ele>
        <time>2019-07-11T07:31:56Z</time>
      </trkpt>
      <trkpt lat="47.95055" lon="3.44227">
        <ele>94</ele>
        <time>2019-07-11T07:32:11Z</time>
      </trkpt>
      <trkpt lat="47.95045" lon="3.44259">
        <ele>94</ele>
        <time>2019-07-11T07:32:16Z</time>
      </trkpt>
      <trkpt lat="47.95037" lon="3.4429">
        <ele>93</ele>
        <time>2019-07-11T07:32:21Z</time>
      </trkpt>
      <trkpt lat="47.95034" lon="3.44298">
        <ele>93</ele>
        <time>2019-07-11T07:32:26Z</time>
      </trkpt>
      <trkpt lat="47.9503" lon="3.44309">
        <ele>92</ele>
        <time>2019-07-11T07:32:41Z</time>
      </trkpt>
      <trkpt lat="47.95026" lon="3.44319">
        <ele>92</ele>
        <time>2019-07-11T07:32:56Z</time>
      </trkpt>
      <trkpt lat="47.95015" lon="3.44351">
        <ele>92</ele>
        <time>2019-07-11T07:33:01Z</time>
      </trkpt>
      <trkpt lat="47.95005" lon="3.44383">
        <ele>90</ele>
        <time>2019-07-11T07:33:06Z</time>
      </trkpt>
      <trkpt lat="47.95002" lon="3.44391">
        <ele>90</ele>
        <time>2019-07-11T07:33:26Z</time>
      </trkpt>
      <trkpt lat="47.94999" lon="3.44401">
        <ele>90</ele>
        <time>2019-07-11T07:33:36Z</time>
      </trkpt>
      <trkpt lat="47.94986" lon="3.44441">
        <ele>90</ele>
        <time>2019-07-11T07:33:51Z</time>
      </trkpt>
      <trkpt lat="47.94978" lon="3.44453">
        <ele>90</ele>
        <time>2019-07-11T07:33:56Z</time>
      </trkpt>
      <trkpt lat="47.94966" lon="3.44477">
        <ele>90</ele>
        <time>2019-07-11T07:34:06Z</time>
      </trkpt>
      <trkpt lat="47.9496" lon="3.44483">
        <ele>90</ele>
        <time>2019-07-11T07:34:26Z</time>
      </trkpt>
      <trkpt lat="47.9495" lon="3.44498">
        <ele>90</ele>
        <time>2019-07-11T07:34:31Z</time>
      </trkpt>
      <trkpt lat="47.94933" lon="3.44532">
        <ele>89</ele>
        <time>2019-07-11T07:34:36Z</time>
      </trkpt>
      <trkpt lat="47.94928" lon="3.4454">
        <ele>89</ele>
        <time>2019-07-11T07:34:41Z</time>
      </trkpt>
      <trkpt lat="47.94923" lon="3.44542">
        <ele>89</ele>
        <time>2019-07-11T07:35:01Z</time>
      </trkpt>
      <trkpt lat="47.94923" lon="3.44542">
        <ele>89</ele>
        <time>2019-07-11T07:35:06Z</time>
      </trkpt>
      <trkpt lat="47.94896" lon="3.44533">
        <ele>91</ele>
        <time>2019-07-11T07:35:11Z</time>
      </trkpt>
      <trkpt lat="47.9489" lon="3.44531">
        <ele>91</ele>
        <time>2019-07-11T07:35:16Z</time>
      </trkpt>
      <trkpt lat="47.94882" lon="3.44529">
        <ele>91</ele>
        <time>2019-07-11T07:35:31Z</time>
      </trkpt>
      <trkpt lat="47.94876" lon="3.44525">
        <ele>92</ele>
        <time>2019-07-11T07:35:36Z</time>
      </trkpt>
      <trkpt lat="47.94857" lon="3.44513">
        <ele>92</ele>
        <time>2019-07-11T07:35:46Z</time>
      </trkpt>
      <trkpt lat="47.94849" lon="3.44511">
        <ele>93</ele>
        <time>2019-07-11T07:36:31Z</time>
      </trkpt>
      <trkpt lat="47.94832" lon="3.44507">
        <ele>93</ele>
        <time>2019-07-11T07:36:41Z</time>
      </trkpt>
      <trkpt lat="47.9482" lon="3.44509">
        <ele>90.3</ele>
        <time>2019-07-11T07:36:51Z</time>
      </trkpt>
      <trkpt lat="47.94807" lon="3.44593">
        <ele>91</ele>
        <time>2019-07-11T07:37:26Z</time>
      </trkpt>
      <trkpt lat="47.94802" lon="3.44616">
        <ele>90</ele>
        <time>2019-07-11T07:37:41Z</time>
      </trkpt>
      <trkpt lat="47.94795" lon="3.44641">
        <ele>89</ele>
        <time>2019-07-11T07:37:51Z</time>
      </trkpt>
      <trkpt lat="47.94772" lon="3.44705">
        <ele>87</ele>
        <time>2019-07-11T07:38:16Z</time>
      </trkpt>
      <trkpt lat="47.94768" lon="3.44722">
        <ele>87</ele>
        <time>2019-07-11T07:38:21Z</time>
      </trkpt>
      <trkpt lat="47.94763" lon="3.44742">
        <ele>87</ele>
        <time>2019-07-11T07:38:26Z</time>
      </trkpt>
      <trkpt lat="47.94745" lon="3.44789">
        <ele>87</ele>
        <time>2019-07-11T07:38:36Z</time>
      </trkpt>
      <trkpt lat="47.94743" lon="3.44799">
        <ele>87</ele>
        <time>2019-07-11T07:38:41Z</time>
      </trkpt>
      <trkpt lat="47.9474" lon="3.44809">
        <ele>87</ele>
        <time>2019-07-11T07:38:51Z</time>
      </trkpt>
      <trkpt lat="47.94735" lon="3.44829">
        <ele>88</ele>
        <time>2019-07-11T07:38:56Z</time>
      </trkpt>
      <trkpt lat="47.9473" lon="3.44837">
        <ele>88</ele>
        <time>2019-07-11T07:39:01Z</time>
      </trkpt>
      <trkpt lat="47.94723" lon="3.44854">
        <ele>89</ele>
        <time>2019-07-11T07:39:16Z</time>
      </trkpt>
      <trkpt lat="47.94718" lon="3.44862">
        <ele>89</ele>
        <time>2019-07-11T07:39:26Z</time>
      </trkpt>
      <trkpt lat="47.94713" lon="3.44871">
        <ele>90</ele>
        <time>2019-07-11T07:39:31Z</time>
      </trkpt>
      <trkpt lat="47.94694" lon="3.44892">
        <ele>91</ele>
        <time>2019-07-11T07:39:36Z</time>
      </trkpt>
      <trkpt lat="47.94678" lon="3.44897">
        <ele>92</ele>
        <time>2019-07-11T07:39:46Z</time>
      </trkpt>
      <trkpt lat="47.94671" lon="3.44898">
        <ele>92</ele>
        <time>2019-07-11T07:39:51Z</time>
      </trkpt>
      <trkpt lat="47.94663" lon="3.449">
        <ele>92</ele>
        <time>2019-07-11T07:39:56Z</time>
      </trkpt>
      <trkpt lat="47.9465" lon="3.44897">
        <ele>92</ele>
        <time>2019-07-11T07:40:01Z</time>
      </trkpt>
      <trkpt lat="47.94642" lon="3.44897">
        <ele>93</ele>
        <time>2019-07-11T07:40:11Z</time>
      </trkpt>
      <trkpt lat="47.94633" lon="3.44897">
        <ele>93</ele>
        <time>2019-07-11T07:40:16Z</time>
      </trkpt>
      <trkpt lat="47.94626" lon="3.44897">
        <ele>93</ele>
        <time>2019-07-11T07:40:21Z</time>
      </trkpt>
      <trkpt lat="47.9461" lon="3.44896">
        <ele>93</ele>
        <time>2019-07-11T07:40:26Z</time>
      </trkpt>
      <trkpt lat="47.94603" lon="3.44896">
        <ele>93</ele>
        <time>2019-07-11T07:40:31Z</time>
      </trkpt>
      <trkpt lat="47.94597" lon="3.44895">
        <ele>93</ele>
        <time>2019-07-11T07:40:36Z</time>
      </trkpt>
      <trkpt lat="47.94588" lon="3.44895">
        <ele>93</ele>
        <time>2019-07-11T07:40:46Z</time>
      </trkpt>
      <trkpt lat="47.9458" lon="3.44895">
        <ele>93</ele>
        <time>2019-07-11T07:40:56Z</time>
      </trkpt>
      <trkpt lat="47.94573" lon="3.44894">
        <ele>93</ele>
        <time>2019-07-11T07:41:01Z</time>
      </trkpt>
      <trkpt lat="47.94556" lon="3.44893">
        <ele>93</ele>
        <time>2019-07-11T07:41:06Z</time>
      </trkpt>
      <trkpt lat="47.94538" lon="3.44892">
        <ele>92</ele>
        <time>2019-07-11T07:41:26Z</time>
      </trkpt>
      <trkpt lat="47.9453" lon="3.44892">
        <ele>92</ele>
        <time>2019-07-11T07:41:31Z</time>
      </trkpt>
      <trkpt lat="47.94523" lon="3.44891">
        <ele>92</ele>
        <time>2019-07-11T07:41:41Z</time>
      </trkpt>
      <trkpt lat="47.94493" lon="3.4489">
        <ele>92</ele>
        <time>2019-07-11T07:41:51Z</time>
      </trkpt>
      <trkpt lat="47.94485" lon="3.44889">
        <ele>91</ele>
        <time>2019-07-11T07:41:56Z</time>
      </trkpt>
      <trkpt lat="47.94469" lon="3.44887">
        <ele>91</ele>
        <time>2019-07-11T07:42:06Z</time>
      </trkpt>
      <trkpt lat="47.94453" lon="3.44887">
        <ele>91</ele>
        <time>2019-07-11T07:42:11Z</time>
      </trkpt>
      <trkpt lat="47.94446" lon="3.44888">
        <ele>91</ele>
        <time>2019-07-11T07:42:21Z</time>
      </trkpt>
      <trkpt lat="47.94432" lon="3.44885">
        <ele>91</ele>
        <time>2019-07-11T07:42:31Z</time>
      </trkpt>
      <trkpt lat="47.94425" lon="3.44882">
        <ele>90</ele>
        <time>2019-07-11T07:42:36Z</time>
      </trkpt>
      <trkpt lat="47.9441" lon="3.44873">
        <ele>90</ele>
        <time>2019-07-11T07:42:41Z</time>
      </trkpt>
      <trkpt lat="47.94394" lon="3.44863">
        <ele>89</ele>
        <time>2019-07-11T07:42:51Z</time>
      </trkpt>
      <trkpt lat="47.94387" lon="3.44858">
        <ele>89</ele>
        <time>2019-07-11T07:42:56Z</time>
      </trkpt>
      <trkpt lat="47.94381" lon="3.44853">
        <ele>89</ele>
        <time>2019-07-11T07:43:16Z</time>
      </trkpt>
      <trkpt lat="47.94369" lon="3.44843">
        <ele>88</ele>
        <time>2019-07-11T07:43:31Z</time>
      </trkpt>
      <trkpt lat="47.94362" lon="3.44838">
        <ele>88</ele>
        <time>2019-07-11T07:43:51Z</time>
      </trkpt>
      <trkpt lat="47.94334" lon="3.44821">
        <ele>89</ele>
        <time>2019-07-11T07:44:21Z</time>
      </trkpt>
      <trkpt lat="47.94313" lon="3.44807">
        <ele>90</ele>
        <time>2019-07-11T07:44:26Z</time>
      </trkpt>
      <trkpt lat="47.94285" lon="3.44791">
        <ele>90</ele>
        <time>2019-07-11T07:44:41Z</time>
      </trkpt>
      <trkpt lat="47.94244" lon="3.44762">
        <ele>91</ele>
        <time>2019-07-11T07:45:06Z</time>
      </trkpt>
      <trkpt lat="47.94238" lon="3.44758">
        <ele>91</ele>
        <time>2019-07-11T07:45:16Z</time>
      </trkpt>
      <trkpt lat="47.94219" lon="3.44745">
        <ele>91</ele>
        <time>2019-07-11T07:45:26Z</time>
      </trkpt>
      <trkpt lat="47.94185" lon="3.4472">
        <ele>91</ele>
        <time>2019-07-11T07:45:56Z</time>
      </trkpt>
      <trkpt lat="47.94171" lon="3.4471">
        <ele>91</ele>
        <time>2019-07-11T07:46:01Z</time>
      </trkpt>
      <trkpt lat="47.94158" lon="3.44701">
        <ele>91</ele>
        <time>2019-07-11T07:46:11Z</time>
      </trkpt>
      <trkpt lat="47.94116" lon="3.44671">
        <ele>91</ele>
        <time>2019-07-11T07:46:16Z</time>
      </trkpt>
      <trkpt lat="47.94109" lon="3.44667">
        <ele>91</ele>
        <time>2019-07-11T07:46:21Z</time>
      </trkpt>
      <trkpt lat="47.94096" lon="3.44657">
        <ele>90</ele>
        <time>2019-07-11T07:46:26Z</time>
      </trkpt>
      <trkpt lat="47.94088" lon="3.44653">
        <ele>90</ele>
        <time>2019-07-11T07:46:31Z</time>
      </trkpt>
      <trkpt lat="47.94079" lon="3.44649">
        <ele>91</ele>
        <time>2019-07-11T07:46:36Z</time>
      </trkpt>
      <trkpt lat="47.94073" lon="3.44644">
        <ele>90</ele>
        <time>2019-07-11T07:46:41Z</time>
      </trkpt>
      <trkpt lat="47.94067" lon="3.44638">
        <ele>90</ele>
        <time>2019-07-11T07:46:46Z</time>
      </trkpt>
      <trkpt lat="47.94061" lon="3.44633">
        <ele>90</ele>
        <time>2019-07-11T07:46:51Z</time>
      </trkpt>
      <trkpt lat="47.94054" lon="3.44629">
        <ele>90</ele>
        <time>2019-07-11T07:47:16Z</time>
      </trkpt>
      <trkpt lat="47.94047" lon="3.44625">
        <ele>90</ele>
        <time>2019-07-11T07:47:41Z</time>
      </trkpt>
      <trkpt lat="47.94041" lon="3.4462">
        <ele>90</ele>
        <time>2019-07-11T07:47:46Z</time>
      </trkpt>
      <trkpt lat="47.94009" lon="3.44594">
        <ele>90</ele>
        <time>2019-07-11T07:48:01Z</time>
      </trkpt>
      <trkpt lat="47.93972" lon="3.44573">
        <ele>90</ele>
        <time>2019-07-11T07:48:31Z</time>
      </trkpt>
      <trkpt lat="47.93965" lon="3.44569">
        <ele>90</ele>
        <time>2019-07-11T07:48:41Z</time>
      </trkpt>
      <trkpt lat="47.93945" lon="3.44555">
        <ele>90</ele>
        <time>2019-07-11T07:49:21Z</time>
      </trkpt>
      <trkpt lat="47.93905" lon="3.44529">
        <ele>91</ele>
        <time>2019-07-11T07:49:26Z</time>
      </trkpt>
      <trkpt lat="47.93893" lon="3.44518">
        <ele>90</ele>
        <time>2019-07-11T07:49:41Z</time>
      </trkpt>
      <trkpt lat="47.93837" lon="3.44478">
        <ele>90</ele>
        <time>2019-07-11T07:49:46Z</time>
      </trkpt>
      <trkpt lat="47.9383" lon="3.44473">
        <ele>91</ele>
        <time>2019-07-11T07:50:01Z</time>
      </trkpt>
      <trkpt lat="47.93812" lon="3.44452">
        <ele>90</ele>
        <time>2019-07-11T07:50:21Z</time>
      </trkpt>
      <trkpt lat="47.93807" lon="3.44445">
        <ele>91</ele>
        <time>2019-07-11T07:50:36Z</time>
      </trkpt>
      <trkpt lat="47.9379" lon="3.44421">
        <ele>91</ele>
        <time>2019-07-11T07:50:41Z</time>
      </trkpt>
      <trkpt lat="47.93768" lon="3.44392">
        <ele>91</ele>
        <time>2019-07-11T07:50:51Z</time>
      </trkpt>
      <trkpt lat="47.93751" lon="3.44368">
        <ele>90</ele>
        <time>2019-07-11T07:51:01Z</time>
      </trkpt>
      <trkpt lat="47.93745" lon="3.44361">
        <ele>91</ele>
        <time>2019-07-11T07:51:06Z</time>
      </trkpt>
      <trkpt lat="47.93734" lon="3.44346">
        <ele>91</ele>
        <time>2019-07-11T07:51:16Z</time>
      </trkpt>
      <trkpt lat="47.93724" lon="3.44332">
        <ele>91</ele>
        <time>2019-07-11T07:51:26Z</time>
      </trkpt>
      <trkpt lat="47.93717" lon="3.44328">
        <ele>91</ele>
        <time>2019-07-11T07:51:46Z</time>
      </trkpt>
      <trkpt lat="47.93704" lon="3.44331">
        <ele>92</ele>
        <time>2019-07-11T07:51:51Z</time>
      </trkpt>
      <trkpt lat="47.93688" lon="3.44331">
        <ele>92</ele>
        <time>2019-07-11T07:51:56Z</time>
      </trkpt>
      <trkpt lat="47.9366" lon="3.44329">
        <ele>92</ele>
        <time>2019-07-11T07:52:01Z</time>
      </trkpt>
      <trkpt lat="47.93652" lon="3.4433">
        <ele>93</ele>
        <time>2019-07-11T07:52:16Z</time>
      </trkpt>
      <trkpt lat="47.93644" lon="3.4433">
        <ele>93</ele>
        <time>2019-07-11T07:52:21Z</time>
      </trkpt>
      <trkpt lat="47.93637" lon="3.4433">
        <ele>93</ele>
        <time>2019-07-11T07:52:26Z</time>
      </trkpt>
      <trkpt lat="47.93616" lon="3.44329">
        <ele>93</ele>
        <time>2019-07-11T07:52:31Z</time>
      </trkpt>
      <trkpt lat="47.93609" lon="3.44331">
        <ele>93</ele>
        <time>2019-07-11T07:52:36Z</time>
      </trkpt>
      <trkpt lat="47.93602" lon="3.44332">
        <ele>93</ele>
        <time>2019-07-11T07:52:41Z</time>
      </trkpt>
      <trkpt lat="47.93595" lon="3.44333">
        <ele>93</ele>
        <time>2019-07-11T07:52:51Z</time>
      </trkpt>
      <trkpt lat="47.93588" lon="3.44333">
        <ele>93</ele>
        <time>2019-07-11T07:53:01Z</time>
      </trkpt>
      <trkpt lat="47.93581" lon="3.44333">
        <ele>93</ele>
        <time>2019-07-11T07:53:41Z</time>
      </trkpt>
      <trkpt lat="47.93567" lon="3.44334">
        <ele>93</ele>
        <time>2019-07-11T07:53:51Z</time>
      </trkpt>
      <trkpt lat="47.93553" lon="3.44333">
        <ele>94</ele>
        <time>2019-07-11T07:54:01Z</time>
      </trkpt>
      <trkpt lat="47.93494" lon="3.44347">
        <ele>95</ele>
        <time>2019-07-11T07:54:36Z</time>
      </trkpt>
      <trkpt lat="47.93478" lon="3.44353">
        <ele>94</ele>
        <time>2019-07-11T07:54:46Z</time>
      </trkpt>
      <trkpt lat="47.93464" lon="3.44357">
        <ele>95</ele>
        <time>2019-07-11T07:55:16Z</time>
      </trkpt>
      <trkpt lat="47.93415" lon="3.44372">
        <ele>95</ele>
        <time>2019-07-11T07:55:36Z</time>
      </trkpt>
      <trkpt lat="47.93402" lon="3.44377">
        <ele>95</ele>
        <time>2019-07-11T07:55:51Z</time>
      </trkpt>
      <trkpt lat="47.93362" lon="3.44389">
        <ele>96</ele>
        <time>2019-07-11T07:55:56Z</time>
      </trkpt>
      <trkpt lat="47.93334" lon="3.44396">
        <ele>97</ele>
        <time>2019-07-11T07:56:01Z</time>
      </trkpt>
      <trkpt lat="47.9331" lon="3.444">
        <ele>97</ele>
        <time>2019-07-11T07:56:11Z</time>
      </trkpt>
      <trkpt lat="47.93303" lon="3.44401">
        <ele>97</ele>
        <time>2019-07-11T07:56:16Z</time>
      </trkpt>
      <trkpt lat="47.93296" lon="3.44402">
        <ele>98</ele>
        <time>2019-07-11T07:56:21Z</time>
      </trkpt>
      <trkpt lat="47.9328" lon="3.44401">
        <ele>98</ele>
        <time>2019-07-11T07:56:36Z</time>
      </trkpt>
      <trkpt lat="47.93273" lon="3.44402">
        <ele>98</ele>
        <time>2019-07-11T07:56:46Z</time>
      </trkpt>
      <trkpt lat="47.93266" lon="3.44403">
        <ele>99</ele>
        <time>2019-07-11T07:57:16Z</time>
      </trkpt>
      <trkpt lat="47.93244" lon="3.44401">
        <ele>99</ele>
        <time>2019-07-11T07:57:26Z</time>
      </trkpt>
      <trkpt lat="47.93229" lon="3.44398">
        <ele>99</ele>
        <time>2019-07-11T07:58:01Z</time>
      </trkpt>
      <trkpt lat="47.93184" lon="3.44389">
        <ele>99</ele>
        <time>2019-07-11T07:58:31Z</time>
      </trkpt>
      <trkpt lat="47.9317" lon="3.44386">
        <ele>99</ele>
        <time>2019-07-11T07:58:36Z</time>
      </trkpt>
      <trkpt lat="47.93118" lon="3.44376">
        <ele>97</ele>
        <time>2019-07-11T07:58:46Z</time>
      </trkpt>
      <trkpt lat="47.93072" lon="3.44366">
        <ele>95</ele>
        <time>2019-07-11T07:58:51Z</time>
      </trkpt>
      <trkpt lat="47.93065" lon="3.44362">
        <ele>95</ele>
        <time>2019-07-11T07:58:56Z</time>
      </trkpt>
      <trkpt lat="47.93051" lon="3.44357">
        <ele>95</ele>
        <time>2019-07-11T07:59:06Z</time>
      </trkpt>
      <trkpt lat="47.93044" lon="3.44355">
        <ele>94</ele>
        <time>2019-07-11T07:59:21Z</time>
      </trkpt>
      <trkpt lat="47.93039" lon="3.44352">
        <ele>93</ele>
        <time>2019-07-11T08:00:06Z</time>
      </trkpt>
      <trkpt lat="47.93026" lon="3.44347">
        <ele>94</ele>
        <time>2019-07-11T08:00:11Z</time>
      </trkpt>
      <trkpt lat="47.93006" lon="3.4434">
        <ele>93</ele>
        <time>2019-07-11T08:00:26Z</time>
      </trkpt>
      <trkpt lat="47.92944" lon="3.44316">
        <ele>90</ele>
        <time>2019-07-11T08:00:31Z</time>
      </trkpt>
      <trkpt lat="47.92936" lon="3.44314">
        <ele>90</ele>
        <time>2019-07-11T08:00:41Z</time>
      </trkpt>
      <trkpt lat="47.92915" lon="3.44306">
        <ele>90</ele>
        <time>2019-07-11T08:00:51Z</time>
      </trkpt>
      <trkpt lat="47.92908" lon="3.44302">
        <ele>90</ele>
        <time>2019-07-11T08:01:01Z</time>
      </trkpt>
      <trkpt lat="47.92894" lon="3.44295">
        <ele>89</ele>
        <time>2019-07-11T08:01:36Z</time>
      </trkpt>
      <trkpt lat="47.92881" lon="3.44287">
        <ele>90</ele>
        <time>2019-07-11T08:01:51Z</time>
      </trkpt>
      <trkpt lat="47.92867" lon="3.44279">
        <ele>89</ele>
        <time>2019-07-11T08:01:56Z</time>
      </trkpt>
      <trkpt lat="47.92817" lon="3.44251">
        <ele>89</ele>
        <time>2019-07-11T08:02:11Z</time>
      </trkpt>
      <trkpt lat="47.92796" lon="3.44239">
        <ele>89</ele>
        <time>2019-07-11T08:02:16Z</time>
      </trkpt>
      <trkpt lat="47.92788" lon="3.44236">
        <ele>89</ele>
        <time>2019-07-11T08:02:21Z</time>
      </trkpt>
      <trkpt lat="47.92768" lon="3.44225">
        <ele>90</ele>
        <time>2019-07-11T08:02:31Z</time>
      </trkpt>
      <trkpt lat="47.92761" lon="3.44221">
        <ele>90</ele>
        <time>2019-07-11T08:02:41Z</time>
      </trkpt>
      <trkpt lat="47.92754" lon="3.44218">
        <ele>90</ele>
        <time>2019-07-11T08:02:56Z</time>
      </trkpt>
      <trkpt lat="47.9274" lon="3.44212">
        <ele>90</ele>
        <time>2019-07-11T08:03:01Z</time>
      </trkpt>
      <trkpt lat="47.92724" lon="3.44208">
        <ele>90</ele>
        <time>2019-07-11T08:03:06Z</time>
      </trkpt>
      <trkpt lat="47.92703" lon="3.44204">
        <ele>90</ele>
        <time>2019-07-11T08:03:21Z</time>
      </trkpt>
      <trkpt lat="47.92695" lon="3.44204">
        <ele>90</ele>
        <time>2019-07-11T08:03:31Z</time>
      </trkpt>
      <trkpt lat="47.92687" lon="3.44204">
        <ele>90</ele>
        <time>2019-07-11T08:03:41Z</time>
      </trkpt>
      <trkpt lat="47.92666" lon="3.44207">
        <ele>90</ele>
        <time>2019-07-11T08:03:46Z</time>
      </trkpt>
      <trkpt lat="47.92652" lon="3.44212">
        <ele>90</ele>
        <time>2019-07-11T08:03:56Z</time>
      </trkpt>
      <trkpt lat="47.92639" lon="3.44222">
        <ele>90</ele>
        <time>2019-07-11T08:04:06Z</time>
      </trkpt>
      <trkpt lat="47.92633" lon="3.44227">
        <ele>91</ele>
        <time>2019-07-11T08:04:16Z</time>
      </trkpt>
      <trkpt lat="47.92621" lon="3.44239">
        <ele>91</ele>
        <time>2019-07-11T08:04:31Z</time>
      </trkpt>
      <trkpt lat="47.9261" lon="3.44253">
        <ele>91</ele>
        <time>2019-07-11T08:04:36Z</time>
      </trkpt>
      <trkpt lat="47.92599" lon="3.44266">
        <ele>91</ele>
        <time>2019-07-11T08:04:46Z</time>
      </trkpt>
      <trkpt lat="47.92579" lon="3.44271">
        <ele>91</ele>
        <time>2019-07-11T08:04:56Z</time>
      </trkpt>
      <trkpt lat="47.92572" lon="3.44267">
        <ele>92</ele>
        <time>2019-07-11T08:05:01Z</time>
      </trkpt>
      <trkpt lat="47.92557" lon="3.4426">
        <ele>93</ele>
        <time>2019-07-11T08:05:06Z</time>
      </trkpt>
      <trkpt lat="47.92542" lon="3.44253">
        <ele>93</ele>
        <time>2019-07-11T08:05:21Z</time>
      </trkpt>
      <trkpt lat="47.92534" lon="3.44251">
        <ele>93</ele>
        <time>2019-07-11T08:05:31Z</time>
      </trkpt>
      <trkpt lat="47.92525" lon="3.44249">
        <ele>94</ele>
        <time>2019-07-11T08:05:36Z</time>
      </trkpt>
      <trkpt lat="47.92501" lon="3.44247">
        <ele>94</ele>
        <time>2019-07-11T08:05:46Z</time>
      </trkpt>
      <trkpt lat="47.92486" lon="3.44247">
        <ele>95</ele>
        <time>2019-07-11T08:05:51Z</time>
      </trkpt>
      <trkpt lat="47.92479" lon="3.44246">
        <ele>95</ele>
        <time>2019-07-11T08:06:01Z</time>
      </trkpt>
      <trkpt lat="47.92463" lon="3.44246">
        <ele>94</ele>
        <time>2019-07-11T08:06:06Z</time>
      </trkpt>
      <trkpt lat="47.92453" lon="3.44246">
        <ele>94</ele>
        <time>2019-07-11T08:06:16Z</time>
      </trkpt>
      <trkpt lat="47.92437" lon="3.44244">
        <ele>94</ele>
        <time>2019-07-11T08:06:26Z</time>
      </trkpt>
      <trkpt lat="47.92429" lon="3.44243">
        <ele>94</ele>
        <time>2019-07-11T08:06:31Z</time>
      </trkpt>
      <trkpt lat="47.92414" lon="3.44238">
        <ele>93</ele>
        <time>2019-07-11T08:06:41Z</time>
      </trkpt>
      <trkpt lat="47.924" lon="3.4423">
        <ele>93</ele>
        <time>2019-07-11T08:06:46Z</time>
      </trkpt>
      <trkpt lat="47.92394" lon="3.44224">
        <ele>93</ele>
        <time>2019-07-11T08:07:11Z</time>
      </trkpt>
      <trkpt lat="47.9238" lon="3.44212">
        <ele>93</ele>
        <time>2019-07-11T08:07:41Z</time>
      </trkpt>
      <trkpt lat="47.92374" lon="3.44207">
        <ele>93</ele>
        <time>2019-07-11T08:08:01Z</time>
      </trkpt>
      <trkpt lat="47.9234" lon="3.44179">
        <ele>94</ele>
        <time>2019-07-11T08:08:11Z</time>
      </trkpt>
      <trkpt lat="47.92304" lon="3.44139">
        <ele>97</ele>
        <time>2019-07-11T08:08:16Z</time>
      </trkpt>
      <trkpt lat="47.92289" lon="3.44102">
        <ele>98</ele>
        <time>2019-07-11T08:08:21Z</time>
      </trkpt>
      <trkpt lat="47.92284" lon="3.44082">
        <ele>99</ele>
        <time>2019-07-11T08:08:26Z</time>
      </trkpt>
      <trkpt lat="47.92283" lon="3.44071">
        <ele>100</ele>
        <time>2019-07-11T08:08:36Z</time>
      </trkpt>
      <trkpt lat="47.92281" lon="3.4406">
        <ele>100</ele>
        <time>2019-07-11T08:08:41Z</time>
      </trkpt>
      <trkpt lat="47.9228" lon="3.4405">
        <ele>100</ele>
        <time>2019-07-11T08:08:46Z</time>
      </trkpt>
      <trkpt lat="47.92279" lon="3.44029">
        <ele>100</ele>
        <time>2019-07-11T08:09:11Z</time>
      </trkpt>
      <trkpt lat="47.92278" lon="3.4402">
        <ele>101</ele>
        <time>2019-07-11T08:09:21Z</time>
      </trkpt>
      <trkpt lat="47.92275" lon="3.44009">
        <ele>101</ele>
        <time>2019-07-11T08:09:31Z</time>
      </trkpt>
      <trkpt lat="47.92273" lon="3.43986">
        <ele>99</ele>
        <time>2019-07-11T08:09:36Z</time>
      </trkpt>
      <trkpt lat="47.92252" lon="3.43981">
        <ele>102</ele>
        <time>2019-07-11T08:09:51Z</time>
      </trkpt>
      <trkpt lat="47.92238" lon="3.4398">
        <ele>102</ele>
        <time>2019-07-11T08:09:56Z</time>
      </trkpt>
      <trkpt lat="47.92223" lon="3.43979">
        <ele>101</ele>
        <time>2019-07-11T08:10:06Z</time>
      </trkpt>
      <trkpt lat="47.92216" lon="3.43978">
        <ele>101</ele>
        <time>2019-07-11T08:10:21Z</time>
      </trkpt>
      <trkpt lat="47.92194" lon="3.43977">
        <ele>101</ele>
        <time>2019-07-11T08:10:26Z</time>
      </trkpt>
      <trkpt lat="47.92186" lon="3.43976">
        <ele>101</ele>
        <time>2019-07-11T08:10:31Z</time>
      </trkpt>
      <trkpt lat="47.9217" lon="3.43974">
        <ele>102</ele>
        <time>2019-07-11T08:10:36Z</time>
      </trkpt>
      <trkpt lat="47.92148" lon="3.43972">
        <ele>102</ele>
        <time>2019-07-11T08:10:41Z</time>
      </trkpt>
      <trkpt lat="47.9214" lon="3.43971">
        <ele>102</ele>
        <time>2019-07-11T08:10:46Z</time>
      </trkpt>
      <trkpt lat="47.92132" lon="3.43971">
        <ele>102</ele>
        <time>2019-07-11T08:10:56Z</time>
      </trkpt>
      <trkpt lat="47.92124" lon="3.4397">
        <ele>102</ele>
        <time>2019-07-11T08:11:06Z</time>
      </trkpt>
      <trkpt lat="47.92117" lon="3.43969">
        <ele>102</ele>
        <time>2019-07-11T08:11:36Z</time>
      </trkpt>
      <trkpt lat="47.9211" lon="3.43968">
        <ele>102</ele>
        <time>2019-07-11T08:12:06Z</time>
      </trkpt>
      <trkpt lat="47.92095" lon="3.43966">
        <ele>103</ele>
        <time>2019-07-11T08:12:36Z</time>
      </trkpt>
      <trkpt lat="47.9208" lon="3.43966">
        <ele>104</ele>
        <time>2019-07-11T08:12:51Z</time>
      </trkpt>
      <trkpt lat="47.92036" lon="3.4396">
        <ele>105</ele>
        <time>2019-07-11T08:13:01Z</time>
      </trkpt>
      <trkpt lat="47.91994" lon="3.43955">
        <ele>106</ele>
        <time>2019-07-11T08:13:11Z</time>
      </trkpt>
      <trkpt lat="47.9195" lon="3.4395">
        <ele>107</ele>
        <time>2019-07-11T08:13:16Z</time>
      </trkpt>
      <trkpt lat="47.91928" lon="3.43946">
        <ele>107</ele>
        <time>2019-07-11T08:13:21Z</time>
      </trkpt>
      <trkpt lat="47.91916" lon="3.43945">
        <ele>108</ele>
        <time>2019-07-11T08:13:31Z</time>
      </trkpt>
      <trkpt lat="47.91899" lon="3.43946">
        <ele>109</ele>
        <time>2019-07-11T08:14:01Z</time>
      </trkpt>
      <trkpt lat="47.91891" lon="3.43944">
        <ele>109</ele>
        <time>2019-07-11T08:14:41Z</time>
      </trkpt>
      <trkpt lat="47.91883" lon="3.43943">
        <ele>109</ele>
        <time>2019-07-11T08:14:51Z</time>
      </trkpt>
      <trkpt lat="47.91869" lon="3.43941">
        <ele>110</ele>
        <time>2019-07-11T08:15:01Z</time>
      </trkpt>
      <trkpt lat="47.91826" lon="3.43935">
        <ele>113</ele>
        <time>2019-07-11T08:15:16Z</time>
      </trkpt>
      <trkpt lat="47.9177" lon="3.43927">
        <ele>115</ele>
        <time>2019-07-11T08:15:21Z</time>
      </trkpt>
      <trkpt lat="47.91755" lon="3.4392">
        <ele>116</ele>
        <time>2019-07-11T08:15:26Z</time>
      </trkpt>
      <trkpt lat="47.9174" lon="3.43916">
        <ele>116</ele>
        <time>2019-07-11T08:15:41Z</time>
      </trkpt>
      <trkpt lat="47.91728" lon="3.43909">
        <ele>116</ele>
        <time>2019-07-11T08:15:56Z</time>
      </trkpt>
      <trkpt lat="47.91721" lon="3.43903">
        <ele>117</ele>
        <time>2019-07-11T08:17:16Z</time>
      </trkpt>
      <trkpt lat="47.91716" lon="3.439">
        <ele>117</ele>
        <time>2019-07-11T08:17:21Z</time>
      </trkpt>
      <trkpt lat="47.91694" lon="3.43892">
        <ele>117</ele>
        <time>2019-07-11T08:17:36Z</time>
      </trkpt>
      <trkpt lat="47.91667" lon="3.43883">
        <ele>117</ele>
        <time>2019-07-11T08:17:51Z</time>
      </trkpt>
      <trkpt lat="47.91639" lon="3.43864">
        <ele>115</ele>
        <time>2019-07-11T08:18:11Z</time>
      </trkpt>
      <trkpt lat="47.91633" lon="3.43883">
        <ele>115</ele>
        <time>2019-07-11T08:18:26Z</time>
      </trkpt>
      <trkpt lat="47.91624" lon="3.439">
        <ele>114.5</ele>
        <time>2019-07-11T08:18:36Z</time>
      </trkpt>
      <trkpt lat="47.91621" lon="3.43928">
        <ele>113.6</ele>
        <time>2019-07-11T08:18:46Z</time>
      </trkpt>
      <trkpt lat="47.91598" lon="3.43983">
        <ele>114</ele>
        <time>2019-07-11T08:19:11Z</time>
      </trkpt>
      <trkpt lat="47.91589" lon="3.43984">
        <ele>114</ele>
        <time>2019-07-11T08:19:16Z</time>
      </trkpt>
      <trkpt lat="47.91563" lon="3.43978">
        <ele>114</ele>
        <time>2019-07-11T08:19:26Z</time>
      </trkpt>
      <trkpt lat="47.91544" lon="3.43971">
        <ele>114</ele>
        <time>2019-07-11T08:19:41Z</time>
      </trkpt>
      <trkpt lat="47.91518" lon="3.43963">
        <ele>113</ele>
        <time>2019-07-11T08:19:46Z</time>
      </trkpt>
      <trkpt lat="47.91494" lon="3.43959">
        <ele>112</ele>
        <time>2019-07-11T08:19:51Z</time>
      </trkpt>
      <trkpt lat="47.9148" lon="3.43955">
        <ele>113</ele>
        <time>2019-07-11T08:20:13Z</time>
      </trkpt>
      <trkpt lat="47.91465" lon="3.43952">
        <ele>113</ele>
        <time>2019-07-11T08:20:23Z</time>
      </trkpt>
      <trkpt lat="47.91428" lon="3.43945">
        <ele>112</ele>
        <time>2019-07-11T08:20:54Z</time>
      </trkpt>
      <trkpt lat="47.91422" lon="3.43942">
        <ele>112</ele>
        <time>2019-07-11T08:20:59Z</time>
      </trkpt>
      <trkpt lat="47.91407" lon="3.43938">
        <ele>112</ele>
        <time>2019-07-11T08:21:20Z</time>
      </trkpt>
      <trkpt lat="47.91395" lon="3.43937">
        <ele>112</ele>
        <time>2019-07-11T08:21:25Z</time>
      </trkpt>
      <trkpt lat="47.91393" lon="3.43941">
        <ele>112</ele>
        <time>2019-07-11T08:21:30Z</time>
      </trkpt>
      <trkpt lat="47.91391" lon="3.43952">
        <ele>112</ele>
        <time>2019-07-11T08:21:35Z</time>
      </trkpt>
      <trkpt lat="47.91384" lon="3.43993">
        <ele>111</ele>
        <time>2019-07-11T08:21:45Z</time>
      </trkpt>
      <trkpt lat="47.91384" lon="3.4401">
        <ele>110</ele>
        <time>2019-07-11T08:21:50Z</time>
      </trkpt>
      <trkpt lat="47.91373" lon="3.44077">
        <ele>109</ele>
        <time>2019-07-11T08:22:20Z</time>
      </trkpt>
      <trkpt lat="47.91373" lon="3.44088">
        <ele>108</ele>
        <time>2019-07-11T08:22:30Z</time>
      </trkpt>
      <trkpt lat="47.91365" lon="3.44126">
        <ele>107</ele>
        <time>2019-07-11T08:22:40Z</time>
      </trkpt>
      <trkpt lat="47.91365" lon="3.44135">
        <ele>106</ele>
        <time>2019-07-11T08:22:45Z</time>
      </trkpt>
      <trkpt lat="47.91364" lon="3.44146">
        <ele>106</ele>
        <time>2019-07-11T08:22:55Z</time>
      </trkpt>
      <trkpt lat="47.91363" lon="3.44157">
        <ele>106</ele>
        <time>2019-07-11T08:23:05Z</time>
      </trkpt>
      <trkpt lat="47.91361" lon="3.44176">
        <ele>105</ele>
        <time>2019-07-11T08:23:35Z</time>
      </trkpt>
      <trkpt lat="47.91358" lon="3.44173">
        <ele>105</ele>
        <time>2019-07-11T08:23:40Z</time>
      </trkpt>
      <trkpt lat="47.91315" lon="3.44156">
        <ele>106</ele>
        <time>2019-07-11T08:23:50Z</time>
      </trkpt>
      <trkpt lat="47.91301" lon="3.44153">
        <ele>106</ele>
        <time>2019-07-11T08:24:15Z</time>
      </trkpt>
      <trkpt lat="47.91286" lon="3.44149">
        <ele>105</ele>
        <time>2019-07-11T08:24:25Z</time>
      </trkpt>
      <trkpt lat="47.9128" lon="3.44147">
        <ele>105</ele>
        <time>2019-07-11T08:25:20Z</time>
      </trkpt>
      <trkpt lat="47.91264" lon="3.44143">
        <ele>106</ele>
        <time>2019-07-11T08:25:45Z</time>
      </trkpt>
      <trkpt lat="47.91249" lon="3.4414">
        <ele>106</ele>
        <time>2019-07-11T08:25:55Z</time>
      </trkpt>
      <trkpt lat="47.91204" lon="3.44131">
        <ele>106</ele>
        <time>2019-07-11T08:26:25Z</time>
      </trkpt>
      <trkpt lat="47.91196" lon="3.44129">
        <ele>106</ele>
        <time>2019-07-11T08:26:30Z</time>
      </trkpt>
      <trkpt lat="47.91182" lon="3.44126">
        <ele>106</ele>
        <time>2019-07-11T08:26:35Z</time>
      </trkpt>
      <trkpt lat="47.91146" lon="3.44117">
        <ele>107</ele>
        <time>2019-07-11T08:26:50Z</time>
      </trkpt>
      <trkpt lat="47.91131" lon="3.44114">
        <ele>107</ele>
        <time>2019-07-11T08:27:00Z</time>
      </trkpt>
      <trkpt lat="47.91051" lon="3.44094">
        <ele>108</ele>
        <time>2019-07-11T08:27:10Z</time>
      </trkpt>
      <trkpt lat="47.91014" lon="3.44085">
        <ele>107</ele>
        <time>2019-07-11T08:27:15Z</time>
      </trkpt>
      <trkpt lat="47.91" lon="3.44082">
        <ele>107</ele>
        <time>2019-07-11T08:27:20Z</time>
      </trkpt>
      <trkpt lat="47.9096" lon="3.44083">
        <ele>106</ele>
        <time>2019-07-11T08:27:25Z</time>
      </trkpt>
      <trkpt lat="47.90953" lon="3.44088">
        <ele>106</ele>
        <time>2019-07-11T08:27:30Z</time>
      </trkpt>
      <trkpt lat="47.90947" lon="3.44094">
        <ele>106</ele>
        <time>2019-07-11T08:27:35Z</time>
      </trkpt>
      <trkpt lat="47.90929" lon="3.44109">
        <ele>105</ele>
        <time>2019-07-11T08:27:50Z</time>
      </trkpt>
      <trkpt lat="47.90916" lon="3.4412">
        <ele>105</ele>
        <time>2019-07-11T08:28:15Z</time>
      </trkpt>
      <trkpt lat="47.90904" lon="3.4413">
        <ele>104</ele>
        <time>2019-07-11T08:28:20Z</time>
      </trkpt>
      <trkpt lat="47.90897" lon="3.44135">
        <ele>104</ele>
        <time>2019-07-11T08:28:25Z</time>
      </trkpt>
      <trkpt lat="47.90891" lon="3.4414">
        <ele>104</ele>
        <time>2019-07-11T08:28:40Z</time>
      </trkpt>
      <trkpt lat="47.90884" lon="3.44146">
        <ele>104</ele>
        <time>2019-07-11T08:28:50Z</time>
      </trkpt>
      <trkpt lat="47.90877" lon="3.4415">
        <ele>104</ele>
        <time>2019-07-11T08:28:55Z</time>
      </trkpt>
      <trkpt lat="47.9087" lon="3.44156">
        <ele>103</ele>
        <time>2019-07-11T08:29:25Z</time>
      </trkpt>
      <trkpt lat="47.90851" lon="3.44173">
        <ele>103</ele>
        <time>2019-07-11T08:29:30Z</time>
      </trkpt>
      <trkpt lat="47.90818" lon="3.44199">
        <ele>102</ele>
        <time>2019-07-11T08:29:35Z</time>
      </trkpt>
      <trkpt lat="47.90811" lon="3.44204">
        <ele>101</ele>
        <time>2019-07-11T08:29:40Z</time>
      </trkpt>
      <trkpt lat="47.90804" lon="3.44209">
        <ele>101</ele>
        <time>2019-07-11T08:30:00Z</time>
      </trkpt>
      <trkpt lat="47.90785" lon="3.44226">
        <ele>101</ele>
        <time>2019-07-11T08:30:05Z</time>
      </trkpt>
      <trkpt lat="47.90771" lon="3.44236">
        <ele>100</ele>
        <time>2019-07-11T08:30:10Z</time>
      </trkpt>
      <trkpt lat="47.90764" lon="3.44242">
        <ele>100</ele>
        <time>2019-07-11T08:30:15Z</time>
      </trkpt>
      <trkpt lat="47.90724" lon="3.44275">
        <ele>100</ele>
        <time>2019-07-11T08:30:25Z</time>
      </trkpt>
      <trkpt lat="47.90717" lon="3.4428">
        <ele>100</ele>
        <time>2019-07-11T08:30:40Z</time>
      </trkpt>
      <trkpt lat="47.90709" lon="3.44285">
        <ele>99</ele>
        <time>2019-07-11T08:30:45Z</time>
      </trkpt>
      <trkpt lat="47.90702" lon="3.4429">
        <ele>99</ele>
        <time>2019-07-11T08:31:00Z</time>
      </trkpt>
      <trkpt lat="47.90673" lon="3.443">
        <ele>99</ele>
        <time>2019-07-11T08:31:10Z</time>
      </trkpt>
      <trkpt lat="47.90665" lon="3.443">
        <ele>99</ele>
        <time>2019-07-11T08:31:15Z</time>
      </trkpt>
      <trkpt lat="47.90657" lon="3.443">
        <ele>99</ele>
        <time>2019-07-11T08:32:25Z</time>
      </trkpt>
      <trkpt lat="47.90649" lon="3.44299">
        <ele>99</ele>
        <time>2019-07-11T08:32:40Z</time>
      </trkpt>
      <trkpt lat="47.90636" lon="3.44292">
        <ele>99</ele>
        <time>2019-07-11T08:32:45Z</time>
      </trkpt>
      <trkpt lat="47.90613" lon="3.44279">
        <ele>99</ele>
        <time>2019-07-11T08:33:05Z</time>
      </trkpt>
      <trkpt lat="47.90606" lon="3.44274">
        <ele>99</ele>
        <time>2019-07-11T08:33:10Z</time>
      </trkpt>
      <trkpt lat="47.90585" lon="3.44263">
        <ele>99</ele>
        <time>2019-07-11T08:33:15Z</time>
      </trkpt>
      <trkpt lat="47.90572" lon="3.44256">
        <ele>99</ele>
        <time>2019-07-11T08:33:25Z</time>
      </trkpt>
      <trkpt lat="47.90566" lon="3.44251">
        <ele>99</ele>
        <time>2019-07-11T08:33:45Z</time>
      </trkpt>
      <trkpt lat="47.90517" lon="3.4422">
        <ele>97</ele>
        <time>2019-07-11T08:33:55Z</time>
      </trkpt>
      <trkpt lat="47.90467" lon="3.44196">
        <ele>100</ele>
        <time>2019-07-11T08:34:00Z</time>
      </trkpt>
      <trkpt lat="47.90446" lon="3.44185">
        <ele>99</ele>
        <time>2019-07-11T08:34:20Z</time>
      </trkpt>
      <trkpt lat="47.90438" lon="3.44181">
        <ele>100</ele>
        <time>2019-07-11T08:34:30Z</time>
      </trkpt>
      <trkpt lat="47.9041" lon="3.44168">
        <ele>100</ele>
        <time>2019-07-11T08:34:35Z</time>
      </trkpt>
      <trkpt lat="47.90402" lon="3.44165">
        <ele>100</ele>
        <time>2019-07-11T08:34:55Z</time>
      </trkpt>
      <trkpt lat="47.90395" lon="3.44163">
        <ele>100</ele>
        <time>2019-07-11T08:35:40Z</time>
      </trkpt>
      <trkpt lat="47.90381" lon="3.44163">
        <ele>100</ele>
        <time>2019-07-11T08:35:45Z</time>
      </trkpt>
      <trkpt lat="47.90358" lon="3.44154">
        <ele>101</ele>
        <time>2019-07-11T08:36:00Z</time>
      </trkpt>
      <trkpt lat="47.90345" lon="3.44147">
        <ele>101</ele>
        <time>2019-07-11T08:36:10Z</time>
      </trkpt>
      <trkpt lat="47.90339" lon="3.44144">
        <ele>101</ele>
        <time>2019-07-11T08:36:35Z</time>
      </trkpt>
      <trkpt lat="47.90313" lon="3.4413">
        <ele>102</ele>
        <time>2019-07-11T08:36:55Z</time>
      </trkpt>
      <trkpt lat="47.903" lon="3.44123">
        <ele>102</ele>
        <time>2019-07-11T08:37:05Z</time>
      </trkpt>
      <trkpt lat="47.90292" lon="3.44118">
        <ele>101</ele>
        <time>2019-07-11T08:37:25Z</time>
      </trkpt>
      <trkpt lat="47.90268" lon="3.44104">
        <ele>101</ele>
        <time>2019-07-11T08:37:30Z</time>
      </trkpt>
      <trkpt lat="47.90201" lon="3.44069">
        <ele>100</ele>
        <time>2019-07-11T08:37:35Z</time>
      </trkpt>
      <trkpt lat="47.90194" lon="3.44065">
        <ele>100</ele>
        <time>2019-07-11T08:38:00Z</time>
      </trkpt>
      <trkpt lat="47.90172" lon="3.44059">
        <ele>100</ele>
        <time>2019-07-11T08:38:20Z</time>
      </trkpt>
      <trkpt lat="47.90159" lon="3.44055">
        <ele>100</ele>
        <time>2019-07-11T08:38:25Z</time>
      </trkpt>
      <trkpt lat="47.90129" lon="3.44047">
        <ele>101</ele>
        <time>2019-07-11T08:38:35Z</time>
      </trkpt>
      <trkpt lat="47.90104" lon="3.4403">
        <ele>101</ele>
        <time>2019-07-11T08:38:50Z</time>
      </trkpt>
      <trkpt lat="47.90093" lon="3.44025">
        <ele>101</ele>
        <time>2019-07-11T08:39:00Z</time>
      </trkpt>
      <trkpt lat="47.90066" lon="3.44007">
        <ele>101</ele>
        <time>2019-07-11T08:39:15Z</time>
      </trkpt>
      <trkpt lat="47.90059" lon="3.44">
        <ele>101</ele>
        <time>2019-07-11T08:39:25Z</time>
      </trkpt>
      <trkpt lat="47.9005" lon="3.43994">
        <ele>101</ele>
        <time>2019-07-11T08:39:35Z</time>
      </trkpt>
      <trkpt lat="47.90015" lon="3.43971">
        <ele>101</ele>
        <time>2019-07-11T08:39:40Z</time>
      </trkpt>
      <trkpt lat="47.8999" lon="3.4395">
        <ele>101</ele>
        <time>2019-07-11T08:40:00Z</time>
      </trkpt>
      <trkpt lat="47.89984" lon="3.43944">
        <ele>101</ele>
        <time>2019-07-11T08:40:10Z</time>
      </trkpt>
      <trkpt lat="47.89973" lon="3.43932">
        <ele>101</ele>
        <time>2019-07-11T08:40:25Z</time>
      </trkpt>
      <trkpt lat="47.89955" lon="3.43916">
        <ele>101</ele>
        <time>2019-07-11T08:40:35Z</time>
      </trkpt>
      <trkpt lat="47.89944" lon="3.43903">
        <ele>101</ele>
        <time>2019-07-11T08:40:50Z</time>
      </trkpt>
      <trkpt lat="47.89931" lon="3.43888">
        <ele>101</ele>
        <time>2019-07-11T08:40:55Z</time>
      </trkpt>
      <trkpt lat="47.89932" lon="3.43888">
        <ele>101</ele>
        <time>2019-07-11T08:41:10Z</time>
      </trkpt>
      <trkpt lat="47.8992" lon="3.43874">
        <ele>101</ele>
        <time>2019-07-11T08:41:15Z</time>
      </trkpt>
      <trkpt lat="47.89914" lon="3.43867">
        <ele>101</ele>
        <time>2019-07-11T08:41:20Z</time>
      </trkpt>
      <trkpt lat="47.89891" lon="3.4384">
        <ele>101</ele>
        <time>2019-07-11T08:41:25Z</time>
      </trkpt>
      <trkpt lat="47.89879" lon="3.43826">
        <ele>101</ele>
        <time>2019-07-11T08:41:35Z</time>
      </trkpt>
      <trkpt lat="47.89862" lon="3.43806">
        <ele>102</ele>
        <time>2019-07-11T08:42:01Z</time>
      </trkpt>
      <trkpt lat="47.8985" lon="3.43793">
        <ele>102</ele>
        <time>2019-07-11T08:42:11Z</time>
      </trkpt>
      <trkpt lat="47.89835" lon="3.43778">
        <ele>102</ele>
        <time>2019-07-11T08:42:41Z</time>
      </trkpt>
      <trkpt lat="47.8983" lon="3.43771">
        <ele>102</ele>
        <time>2019-07-11T08:42:56Z</time>
      </trkpt>
      <trkpt lat="47.89812" lon="3.43749">
        <ele>102</ele>
        <time>2019-07-11T08:43:01Z</time>
      </trkpt>
      <trkpt lat="47.89806" lon="3.4374">
        <ele>102</ele>
        <time>2019-07-11T08:43:21Z</time>
      </trkpt>
      <trkpt lat="47.898" lon="3.43732">
        <ele>102</ele>
        <time>2019-07-11T08:43:26Z</time>
      </trkpt>
      <trkpt lat="47.89794" lon="3.43724">
        <ele>102</ele>
        <time>2019-07-11T08:43:41Z</time>
      </trkpt>
      <trkpt lat="47.89785" lon="3.43709">
        <ele>102</ele>
        <time>2019-07-11T08:43:56Z</time>
      </trkpt>
      <trkpt lat="47.89759" lon="3.43674">
        <ele>103</ele>
        <time>2019-07-11T08:44:01Z</time>
      </trkpt>
      <trkpt lat="47.89748" lon="3.43659">
        <ele>103</ele>
        <time>2019-07-11T08:44:26Z</time>
      </trkpt>
      <trkpt lat="47.89713" lon="3.43614">
        <ele>103</ele>
        <time>2019-07-11T08:44:46Z</time>
      </trkpt>
      <trkpt lat="47.89696" lon="3.43591">
        <ele>103</ele>
        <time>2019-07-11T08:45:01Z</time>
      </trkpt>
      <trkpt lat="47.89691" lon="3.43583">
        <ele>103</ele>
        <time>2019-07-11T08:45:06Z</time>
      </trkpt>
      <trkpt lat="47.89669" lon="3.43554">
        <ele>103</ele>
        <time>2019-07-11T08:46:11Z</time>
      </trkpt>
      <trkpt lat="47.89664" lon="3.43548">
        <ele>103</ele>
        <time>2019-07-11T08:46:36Z</time>
      </trkpt>
      <trkpt lat="47.89648" lon="3.43526">
        <ele>103</ele>
        <time>2019-07-11T08:46:41Z</time>
      </trkpt>
      <trkpt lat="47.89632" lon="3.43504">
        <ele>103</ele>
        <time>2019-07-11T08:46:51Z</time>
      </trkpt>
      <trkpt lat="47.89628" lon="3.43498">
        <ele>103</ele>
        <time>2019-07-11T08:46:56Z</time>
      </trkpt>
      <trkpt lat="47.896" lon="3.43463">
        <ele>104</ele>
        <time>2019-07-11T08:47:01Z</time>
      </trkpt>
      <trkpt lat="47.89578" lon="3.43435">
        <ele>104</ele>
        <time>2019-07-11T08:47:06Z</time>
      </trkpt>
      <trkpt lat="47.89562" lon="3.43412">
        <ele>104</ele>
        <time>2019-07-11T08:47:21Z</time>
      </trkpt>
      <trkpt lat="47.89557" lon="3.43404">
        <ele>105</ele>
        <time>2019-07-11T08:47:26Z</time>
      </trkpt>
      <trkpt lat="47.89488" lon="3.4331">
        <ele>104</ele>
        <time>2019-07-11T08:47:56Z</time>
      </trkpt>
      <trkpt lat="47.89462" lon="3.43274">
        <ele>104</ele>
        <time>2019-07-11T08:48:01Z</time>
      </trkpt>
      <trkpt lat="47.89456" lon="3.43268">
        <ele>104</ele>
        <time>2019-07-11T08:48:06Z</time>
      </trkpt>
      <trkpt lat="47.89445" lon="3.43254">
        <ele>104</ele>
        <time>2019-07-11T08:48:11Z</time>
      </trkpt>
      <trkpt lat="47.89439" lon="3.43247">
        <ele>104</ele>
        <time>2019-07-11T08:48:36Z</time>
      </trkpt>
      <trkpt lat="47.89434" lon="3.43241">
        <ele>104</ele>
        <time>2019-07-11T08:48:51Z</time>
      </trkpt>
      <trkpt lat="47.89427" lon="3.43233">
        <ele>104</ele>
        <time>2019-07-11T08:48:56Z</time>
      </trkpt>
      <trkpt lat="47.8941" lon="3.43212">
        <ele>105</ele>
        <time>2019-07-11T08:49:06Z</time>
      </trkpt>
      <trkpt lat="47.89404" lon="3.43203">
        <ele>105</ele>
        <time>2019-07-11T08:49:11Z</time>
      </trkpt>
      <trkpt lat="47.8937" lon="3.43157">
        <ele>106</ele>
        <time>2019-07-11T08:49:36Z</time>
      </trkpt>
      <trkpt lat="47.89365" lon="3.43149">
        <ele>106</ele>
        <time>2019-07-11T08:49:41Z</time>
      </trkpt>
      <trkpt lat="47.8936" lon="3.43142">
        <ele>106</ele>
        <time>2019-07-11T08:49:46Z</time>
      </trkpt>
      <trkpt lat="47.89355" lon="3.43136">
        <ele>106</ele>
        <time>2019-07-11T08:50:11Z</time>
      </trkpt>
      <trkpt lat="47.89331" lon="3.43106">
        <ele>107</ele>
        <time>2019-07-11T08:50:16Z</time>
      </trkpt>
      <trkpt lat="47.89313" lon="3.43094">
        <ele>107</ele>
        <time>2019-07-11T08:50:31Z</time>
      </trkpt>
      <trkpt lat="47.89308" lon="3.43086">
        <ele>107</ele>
        <time>2019-07-11T08:50:41Z</time>
      </trkpt>
      <trkpt lat="47.89299" lon="3.43075">
        <ele>107</ele>
        <time>2019-07-11T08:50:46Z</time>
      </trkpt>
      <trkpt lat="47.89294" lon="3.43068">
        <ele>108</ele>
        <time>2019-07-11T08:51:01Z</time>
      </trkpt>
      <trkpt lat="47.89266" lon="3.4303">
        <ele>108</ele>
        <time>2019-07-11T08:51:06Z</time>
      </trkpt>
      <trkpt lat="47.8926" lon="3.43022">
        <ele>109</ele>
        <time>2019-07-11T08:51:21Z</time>
      </trkpt>
      <trkpt lat="47.89254" lon="3.43012">
        <ele>108</ele>
        <time>2019-07-11T08:51:31Z</time>
      </trkpt>
      <trkpt lat="47.89225" lon="3.42981">
        <ele>109</ele>
        <time>2019-07-11T08:51:46Z</time>
      </trkpt>
      <trkpt lat="47.8922" lon="3.42974">
        <ele>108</ele>
        <time>2019-07-11T08:52:11Z</time>
      </trkpt>
      <trkpt lat="47.89204" lon="3.42959">
        <ele>108</ele>
        <time>2019-07-11T08:52:16Z</time>
      </trkpt>
      <trkpt lat="47.8919" lon="3.42946">
        <ele>108</ele>
        <time>2019-07-11T08:52:21Z</time>
      </trkpt>
      <trkpt lat="47.89183" lon="3.42941">
        <ele>108</ele>
        <time>2019-07-11T08:52:36Z</time>
      </trkpt>
      <trkpt lat="47.89163" lon="3.42923">
        <ele>107</ele>
        <time>2019-07-11T08:52:41Z</time>
      </trkpt>
      <trkpt lat="47.89157" lon="3.42917">
        <ele>107</ele>
        <time>2019-07-11T08:52:46Z</time>
      </trkpt>
      <trkpt lat="47.89135" lon="3.42903">
        <ele>107</ele>
        <time>2019-07-11T08:52:56Z</time>
      </trkpt>
      <trkpt lat="47.8912" lon="3.42893">
        <ele>107</ele>
        <time>2019-07-11T08:53:01Z</time>
      </trkpt>
      <trkpt lat="47.891" lon="3.4288">
        <ele>107</ele>
        <time>2019-07-11T08:53:06Z</time>
      </trkpt>
      <trkpt lat="47.89067" lon="3.42859">
        <ele>106</ele>
        <time>2019-07-11T08:53:16Z</time>
      </trkpt>
      <trkpt lat="47.8906" lon="3.42855">
        <ele>106</ele>
        <time>2019-07-11T08:53:36Z</time>
      </trkpt>
      <trkpt lat="47.89052" lon="3.42852">
        <ele>106</ele>
        <time>2019-07-11T08:53:51Z</time>
      </trkpt>
      <trkpt lat="47.8903" lon="3.42845">
        <ele>106</ele>
        <time>2019-07-11T08:53:56Z</time>
      </trkpt>
      <trkpt lat="47.89023" lon="3.42843">
        <ele>106</ele>
        <time>2019-07-11T08:54:01Z</time>
      </trkpt>
      <trkpt lat="47.89016" lon="3.42842">
        <ele>106</ele>
        <time>2019-07-11T08:54:11Z</time>
      </trkpt>
      <trkpt lat="47.89002" lon="3.42839">
        <ele>106</ele>
        <time>2019-07-11T08:54:16Z</time>
      </trkpt>
      <trkpt lat="47.88996" lon="3.42838">
        <ele>106</ele>
        <time>2019-07-11T08:54:26Z</time>
      </trkpt>
      <trkpt lat="47.88989" lon="3.42839">
        <ele>106</ele>
        <time>2019-07-11T08:54:41Z</time>
      </trkpt>
      <trkpt lat="47.88975" lon="3.42839">
        <ele>107</ele>
        <time>2019-07-11T08:55:16Z</time>
      </trkpt>
      <trkpt lat="47.88947" lon="3.42841">
        <ele>108</ele>
        <time>2019-07-11T08:55:21Z</time>
      </trkpt>
      <trkpt lat="47.88928" lon="3.42847">
        <ele>109</ele>
        <time>2019-07-11T08:55:26Z</time>
      </trkpt>
      <trkpt lat="47.88922" lon="3.42852">
        <ele>109</ele>
        <time>2019-07-11T08:55:31Z</time>
      </trkpt>
      <trkpt lat="47.88914" lon="3.42856">
        <ele>109</ele>
        <time>2019-07-11T08:55:46Z</time>
      </trkpt>
      <trkpt lat="47.88905" lon="3.42864">
        <ele>110</ele>
        <time>2019-07-11T08:55:51Z</time>
      </trkpt>
      <trkpt lat="47.889" lon="3.42869">
        <ele>110</ele>
        <time>2019-07-11T08:55:56Z</time>
      </trkpt>
      <trkpt lat="47.88888" lon="3.42884">
        <ele>110</ele>
        <time>2019-07-11T08:56:01Z</time>
      </trkpt>
      <trkpt lat="47.88871" lon="3.42909">
        <ele>110</ele>
        <time>2019-07-11T08:56:21Z</time>
      </trkpt>
      <trkpt lat="47.88829" lon="3.42954">
        <ele>112</ele>
        <time>2019-07-11T08:56:26Z</time>
      </trkpt>
      <trkpt lat="47.88825" lon="3.42961">
        <ele>113</ele>
        <time>2019-07-11T08:56:31Z</time>
      </trkpt>
      <trkpt lat="47.8882" lon="3.4297">
        <ele>113</ele>
        <time>2019-07-11T08:56:36Z</time>
      </trkpt>
      <trkpt lat="47.88814" lon="3.42978">
        <ele>113</ele>
        <time>2019-07-11T08:56:41Z</time>
      </trkpt>
      <trkpt lat="47.88798" lon="3.42999">
        <ele>113</ele>
        <time>2019-07-11T08:56:51Z</time>
      </trkpt>
      <trkpt lat="47.88791" lon="3.43009">
        <ele>113</ele>
        <time>2019-07-11T08:57:06Z</time>
      </trkpt>
      <trkpt lat="47.88784" lon="3.43018">
        <ele>113</ele>
        <time>2019-07-11T08:57:26Z</time>
      </trkpt>
      <trkpt lat="47.88778" lon="3.43025">
        <ele>113</ele>
        <time>2019-07-11T08:57:31Z</time>
      </trkpt>
      <trkpt lat="47.88757" lon="3.43053">
        <ele>113</ele>
        <time>2019-07-11T08:57:36Z</time>
      </trkpt>
      <trkpt lat="47.88752" lon="3.43061">
        <ele>113</ele>
        <time>2019-07-11T08:58:21Z</time>
      </trkpt>
      <trkpt lat="47.88746" lon="3.43069">
        <ele>113</ele>
        <time>2019-07-11T08:58:26Z</time>
      </trkpt>
      <trkpt lat="47.88741" lon="3.43078">
        <ele>113</ele>
        <time>2019-07-11T08:58:41Z</time>
      </trkpt>
      <trkpt lat="47.88735" lon="3.43082">
        <ele>113</ele>
        <time>2019-07-11T08:59:16Z</time>
      </trkpt>
      <trkpt lat="47.88724" lon="3.43094">
        <ele>112</ele>
        <time>2019-07-11T08:59:27Z</time>
      </trkpt>
      <trkpt lat="47.88707" lon="3.43113">
        <ele>111</ele>
        <time>2019-07-11T08:59:32Z</time>
      </trkpt>
      <trkpt lat="47.88686" lon="3.43145">
        <ele>111</ele>
        <time>2019-07-11T08:59:37Z</time>
      </trkpt>
      <trkpt lat="47.88681" lon="3.43151">
        <ele>111</ele>
        <time>2019-07-11T09:00:20Z</time>
      </trkpt>
      <trkpt lat="47.88676" lon="3.43157">
        <ele>111</ele>
        <time>2019-07-11T09:00:25Z</time>
      </trkpt>
      <trkpt lat="47.88624" lon="3.43222">
        <ele>111</ele>
        <time>2019-07-11T09:00:47Z</time>
      </trkpt>
      <trkpt lat="47.88618" lon="3.4323">
        <ele>111</ele>
        <time>2019-07-11T09:01:14Z</time>
      </trkpt>
      <trkpt lat="47.88599" lon="3.43253">
        <ele>111</ele>
        <time>2019-07-11T09:01:30Z</time>
      </trkpt>
      <trkpt lat="47.88561" lon="3.43303">
        <ele>111</ele>
        <time>2019-07-11T09:01:35Z</time>
      </trkpt>
      <trkpt lat="47.88551" lon="3.43316">
        <ele>111</ele>
        <time>2019-07-11T09:01:57Z</time>
      </trkpt>
      <trkpt lat="47.88544" lon="3.43319">
        <ele>111</ele>
        <time>2019-07-11T09:02:02Z</time>
      </trkpt>
      <trkpt lat="47.88539" lon="3.43325">
        <ele>111</ele>
        <time>2019-07-11T09:02:07Z</time>
      </trkpt>
      <trkpt lat="47.88493" lon="3.43386">
        <ele>113</ele>
        <time>2019-07-11T09:02:18Z</time>
      </trkpt>
      <trkpt lat="47.88488" lon="3.43398">
        <ele>113</ele>
        <time>2019-07-11T09:02:29Z</time>
      </trkpt>
      <trkpt lat="47.88466" lon="3.43425">
        <ele>114</ele>
        <time>2019-07-11T09:02:34Z</time>
      </trkpt>
      <trkpt lat="47.8843" lon="3.43447">
        <ele>115</ele>
        <time>2019-07-11T09:02:49Z</time>
      </trkpt>
      <trkpt lat="47.88408" lon="3.43455">
        <ele>114</ele>
        <time>2019-07-11T09:02:54Z</time>
      </trkpt>
      <trkpt lat="47.884" lon="3.43457">
        <ele>114</ele>
        <time>2019-07-11T09:03:04Z</time>
      </trkpt>
      <trkpt lat="47.88372" lon="3.43472">
        <ele>114</ele>
        <time>2019-07-11T09:03:19Z</time>
      </trkpt>
      <trkpt lat="47.88366" lon="3.43474">
        <ele>114</ele>
        <time>2019-07-11T09:03:30Z</time>
      </trkpt>
      <trkpt lat="47.88361" lon="3.43478">
        <ele>115</ele>
        <time>2019-07-11T09:03:35Z</time>
      </trkpt>
      <trkpt lat="47.88348" lon="3.43488">
        <ele>115</ele>
        <time>2019-07-11T09:03:45Z</time>
      </trkpt>
      <trkpt lat="47.88333" lon="3.435">
        <ele>115</ele>
        <time>2019-07-11T09:03:50Z</time>
      </trkpt>
      <trkpt lat="47.88326" lon="3.43507">
        <ele>115</ele>
        <time>2019-07-11T09:03:56Z</time>
      </trkpt>
      <trkpt lat="47.88308" lon="3.43522">
        <ele>116</ele>
        <time>2019-07-11T09:04:06Z</time>
      </trkpt>
      <trkpt lat="47.88303" lon="3.43528">
        <ele>115</ele>
        <time>2019-07-11T09:04:17Z</time>
      </trkpt>
      <trkpt lat="47.8829" lon="3.43542">
        <ele>116</ele>
        <time>2019-07-11T09:04:27Z</time>
      </trkpt>
      <trkpt lat="47.88272" lon="3.4356">
        <ele>116</ele>
        <time>2019-07-11T09:04:42Z</time>
      </trkpt>
      <trkpt lat="47.88259" lon="3.4357">
        <ele>115</ele>
        <time>2019-07-11T09:04:58Z</time>
      </trkpt>
      <trkpt lat="47.88252" lon="3.43577">
        <ele>115</ele>
        <time>2019-07-11T09:05:19Z</time>
      </trkpt>
      <trkpt lat="47.88243" lon="3.4359">
        <ele>115</ele>
        <time>2019-07-11T09:05:25Z</time>
      </trkpt>
      <trkpt lat="47.88237" lon="3.436">
        <ele>115</ele>
        <time>2019-07-11T09:05:35Z</time>
      </trkpt>
      <trkpt lat="47.88234" lon="3.4361">
        <ele>115</ele>
        <time>2019-07-11T09:05:40Z</time>
      </trkpt>
      <trkpt lat="47.88228" lon="3.43633">
        <ele>116</ele>
        <time>2019-07-11T09:05:50Z</time>
      </trkpt>
      <trkpt lat="47.88225" lon="3.43655">
        <ele>116</ele>
        <time>2019-07-11T09:06:00Z</time>
      </trkpt>
      <trkpt lat="47.88224" lon="3.43676">
        <ele>116</ele>
        <time>2019-07-11T09:06:05Z</time>
      </trkpt>
      <trkpt lat="47.88222" lon="3.43701">
        <ele>115</ele>
        <time>2019-07-11T09:06:10Z</time>
      </trkpt>
      <trkpt lat="47.88218" lon="3.43731">
        <ele>115</ele>
        <time>2019-07-11T09:06:21Z</time>
      </trkpt>
      <trkpt lat="47.88209" lon="3.4378">
        <ele>117</ele>
        <time>2019-07-11T09:06:26Z</time>
      </trkpt>
      <trkpt lat="47.88206" lon="3.43793">
        <ele>118</ele>
        <time>2019-07-11T09:06:31Z</time>
      </trkpt>
      <trkpt lat="47.88203" lon="3.43811">
        <ele>118</ele>
        <time>2019-07-11T09:07:03Z</time>
      </trkpt>
      <trkpt lat="47.88201" lon="3.43822">
        <ele>118</ele>
        <time>2019-07-11T09:07:09Z</time>
      </trkpt>
      <trkpt lat="47.88196" lon="3.43843">
        <ele>119</ele>
        <time>2019-07-11T09:07:19Z</time>
      </trkpt>
      <trkpt lat="47.8819" lon="3.43869">
        <ele>119</ele>
        <time>2019-07-11T09:07:39Z</time>
      </trkpt>
      <trkpt lat="47.88189" lon="3.43878">
        <ele>119</ele>
        <time>2019-07-11T09:07:50Z</time>
      </trkpt>
      <trkpt lat="47.88187" lon="3.43887">
        <ele>119</ele>
        <time>2019-07-11T09:07:55Z</time>
      </trkpt>
      <trkpt lat="47.88183" lon="3.43907">
        <ele>119</ele>
        <time>2019-07-11T09:08:11Z</time>
      </trkpt>
      <trkpt lat="47.88182" lon="3.43916">
        <ele>119</ele>
        <time>2019-07-11T09:08:17Z</time>
      </trkpt>
      <trkpt lat="47.88177" lon="3.43926">
        <ele>119</ele>
        <time>2019-07-11T09:08:22Z</time>
      </trkpt>
      <trkpt lat="47.88147" lon="3.43974">
        <ele>118</ele>
        <time>2019-07-11T09:08:33Z</time>
      </trkpt>
      <trkpt lat="47.8814" lon="3.43984">
        <ele>118</ele>
        <time>2019-07-11T09:08:54Z</time>
      </trkpt>
      <trkpt lat="47.8813" lon="3.43999">
        <ele>117</ele>
        <time>2019-07-11T09:09:05Z</time>
      </trkpt>
      <trkpt lat="47.88125" lon="3.44016">
        <ele>113</ele>
        <time>2019-07-11T09:09:15Z</time>
      </trkpt>
      <trkpt lat="47.88129" lon="3.44031">
        <ele>116</ele>
        <time>2019-07-11T09:09:52Z</time>
      </trkpt>
      <trkpt lat="47.88133" lon="3.44052">
        <ele>115</ele>
        <time>2019-07-11T09:09:58Z</time>
      </trkpt>
      <trkpt lat="47.88137" lon="3.44063">
        <ele>115</ele>
        <time>2019-07-11T09:10:18Z</time>
      </trkpt>
      <trkpt lat="47.8815" lon="3.441">
        <ele>114</ele>
        <time>2019-07-11T09:10:23Z</time>
      </trkpt>
      <trkpt lat="47.88153" lon="3.44111">
        <ele>114</ele>
        <time>2019-07-11T09:10:28Z</time>
      </trkpt>
      <trkpt lat="47.88157" lon="3.44122">
        <ele>113</ele>
        <time>2019-07-11T09:10:33Z</time>
      </trkpt>
      <trkpt lat="47.88164" lon="3.44141">
        <ele>112</ele>
        <time>2019-07-11T09:10:49Z</time>
      </trkpt>
      <trkpt lat="47.88165" lon="3.44186">
        <ele>111</ele>
        <time>2019-07-11T09:11:31Z</time>
      </trkpt>
      <trkpt lat="47.88168" lon="3.44204">
        <ele>111</ele>
        <time>2019-07-11T09:11:42Z</time>
      </trkpt>
      <trkpt lat="47.88174" lon="3.44223">
        <ele>110</ele>
        <time>2019-07-11T09:11:57Z</time>
      </trkpt>
      <trkpt lat="47.88202" lon="3.44301">
        <ele>115</ele>
        <time>2019-07-11T09:12:12Z</time>
      </trkpt>
      <trkpt lat="47.88203" lon="3.44315">
        <ele>115</ele>
        <time>2019-07-11T09:12:28Z</time>
      </trkpt>
      <trkpt lat="47.88185" lon="3.44349">
        <ele>116</ele>
        <time>2019-07-11T09:12:33Z</time>
      </trkpt>
      <trkpt lat="47.8818" lon="3.44357">
        <ele>116</ele>
        <time>2019-07-11T09:12:39Z</time>
      </trkpt>
      <trkpt lat="47.88174" lon="3.44367">
        <ele>116</ele>
        <time>2019-07-11T09:12:44Z</time>
      </trkpt>
      <trkpt lat="47.8817" lon="3.44372">
        <ele>116</ele>
        <time>2019-07-11T09:12:49Z</time>
      </trkpt>
      <trkpt lat="47.88157" lon="3.44388">
        <ele>118</ele>
        <time>2019-07-11T09:12:54Z</time>
      </trkpt>
      <trkpt lat="47.88094" lon="3.44425">
        <ele>120</ele>
        <time>2019-07-11T09:13:04Z</time>
      </trkpt>
      <trkpt lat="47.88079" lon="3.44435">
        <ele>121</ele>
        <time>2019-07-11T09:13:36Z</time>
      </trkpt>
      <trkpt lat="47.8806" lon="3.44445">
        <ele>122</ele>
        <time>2019-07-11T09:13:41Z</time>
      </trkpt>
      <trkpt lat="47.88036" lon="3.4445">
        <ele>122</ele>
        <time>2019-07-11T09:13:47Z</time>
      </trkpt>
      <trkpt lat="47.88012" lon="3.44459">
        <ele>121</ele>
        <time>2019-07-11T09:13:52Z</time>
      </trkpt>
      <trkpt lat="47.88005" lon="3.44461">
        <ele>121</ele>
        <time>2019-07-11T09:13:57Z</time>
      </trkpt>
      <trkpt lat="47.87997" lon="3.44466">
        <ele>121</ele>
        <time>2019-07-11T09:14:08Z</time>
      </trkpt>
      <trkpt lat="47.87992" lon="3.44469">
        <ele>120</ele>
        <time>2019-07-11T09:14:24Z</time>
      </trkpt>
      <trkpt lat="47.87984" lon="3.44473">
        <ele>121</ele>
        <time>2019-07-11T09:15:12Z</time>
      </trkpt>
      <trkpt lat="47.87977" lon="3.44483">
        <ele>121</ele>
        <time>2019-07-11T09:15:22Z</time>
      </trkpt>
      <trkpt lat="47.87951" lon="3.44481">
        <ele>121</ele>
        <time>2019-07-11T09:15:33Z</time>
      </trkpt>
      <trkpt lat="47.8794" lon="3.44486">
        <ele>118</ele>
        <time>2019-07-11T09:15:38Z</time>
      </trkpt>
      <trkpt lat="47.87924" lon="3.44488">
        <ele>118.4</ele>
        <time>2019-07-11T09:15:59Z</time>
      </trkpt>
      <trkpt lat="47.87914" lon="3.44496">
        <ele>121</ele>
        <time>2019-07-11T09:16:05Z</time>
      </trkpt>
      <trkpt lat="47.87908" lon="3.445">
        <ele>121</ele>
        <time>2019-07-11T09:16:15Z</time>
      </trkpt>
      <trkpt lat="47.87901" lon="3.44504">
        <ele>120</ele>
        <time>2019-07-11T09:16:51Z</time>
      </trkpt>
      <trkpt lat="47.87894" lon="3.44508">
        <ele>120</ele>
        <time>2019-07-11T09:17:08Z</time>
      </trkpt>
      <trkpt lat="47.87887" lon="3.44512">
        <ele>120</ele>
        <time>2019-07-11T09:17:23Z</time>
      </trkpt>
      <trkpt lat="47.87869" lon="3.44519">
        <ele>118</ele>
        <time>2019-07-11T09:17:34Z</time>
      </trkpt>
      <trkpt lat="47.87848" lon="3.44528">
        <ele>117</ele>
        <time>2019-07-11T09:17:39Z</time>
      </trkpt>
      <trkpt lat="47.87826" lon="3.44537">
        <ele>115</ele>
        <time>2019-07-11T09:17:44Z</time>
      </trkpt>
      <trkpt lat="47.87803" lon="3.44548">
        <ele>115</ele>
        <time>2019-07-11T09:17:49Z</time>
      </trkpt>
      <trkpt lat="47.87779" lon="3.4456">
        <ele>114</ele>
        <time>2019-07-11T09:17:55Z</time>
      </trkpt>
      <trkpt lat="47.87772" lon="3.44539">
        <ele>114</ele>
        <time>2019-07-11T09:18:11Z</time>
      </trkpt>
      <trkpt lat="47.87771" lon="3.44516">
        <ele>114</ele>
        <time>2019-07-11T09:18:16Z</time>
      </trkpt>
      <trkpt lat="47.8777" lon="3.44502">
        <ele>115</ele>
        <time>2019-07-11T09:18:21Z</time>
      </trkpt>
      <trkpt lat="47.87773" lon="3.44457">
        <ele>116</ele>
        <time>2019-07-11T09:18:27Z</time>
      </trkpt>
      <trkpt lat="47.87774" lon="3.44447">
        <ele>117</ele>
        <time>2019-07-11T09:18:43Z</time>
      </trkpt>
      <trkpt lat="47.87777" lon="3.4443">
        <ele>118</ele>
        <time>2019-07-11T09:18:48Z</time>
      </trkpt>
      <trkpt lat="47.87777" lon="3.44349">
        <ele>113</ele>
        <time>2019-07-11T09:18:59Z</time>
      </trkpt>
      <trkpt lat="47.8778" lon="3.44319">
        <ele>115</ele>
        <time>2019-07-11T09:19:04Z</time>
      </trkpt>
      <trkpt lat="47.8778" lon="3.44277">
        <ele>121</ele>
        <time>2019-07-11T09:19:09Z</time>
      </trkpt>
      <trkpt lat="47.87779" lon="3.44253">
        <ele>120</ele>
        <time>2019-07-11T09:19:20Z</time>
      </trkpt>
      <trkpt lat="47.87773" lon="3.44249">
        <ele>119</ele>
        <time>2019-07-11T09:19:47Z</time>
      </trkpt>
      <trkpt lat="47.87768" lon="3.44252">
        <ele>121</ele>
        <time>2019-07-11T09:19:52Z</time>
      </trkpt>
      <trkpt lat="47.87763" lon="3.44255">
        <ele>121</ele>
        <time>2019-07-11T09:19:57Z</time>
      </trkpt>
      <trkpt lat="47.87757" lon="3.4426">
        <ele>121</ele>
        <time>2019-07-11T09:20:07Z</time>
      </trkpt>
      <trkpt lat="47.87736" lon="3.44272">
        <ele>122</ele>
        <time>2019-07-11T09:20:17Z</time>
      </trkpt>
      <trkpt lat="47.87728" lon="3.44276">
        <ele>122</ele>
        <time>2019-07-11T09:20:22Z</time>
      </trkpt>
      <trkpt lat="47.87719" lon="3.44281">
        <ele>122</ele>
        <time>2019-07-11T09:20:28Z</time>
      </trkpt>
      <trkpt lat="47.87714" lon="3.44283">
        <ele>122</ele>
        <time>2019-07-11T09:20:44Z</time>
      </trkpt>
      <trkpt lat="47.87695" lon="3.44293">
        <ele>121</ele>
        <time>2019-07-11T09:20:49Z</time>
      </trkpt>
      <trkpt lat="47.87689" lon="3.44297">
        <ele>121</ele>
        <time>2019-07-11T09:21:04Z</time>
      </trkpt>
      <trkpt lat="47.87676" lon="3.44306">
        <ele>120</ele>
        <time>2019-07-11T09:21:25Z</time>
      </trkpt>
      <trkpt lat="47.87671" lon="3.4431">
        <ele>119</ele>
        <time>2019-07-11T09:21:46Z</time>
      </trkpt>
      <trkpt lat="47.87663" lon="3.44315">
        <ele>119</ele>
        <time>2019-07-11T09:22:18Z</time>
      </trkpt>
      <trkpt lat="47.87648" lon="3.44325">
        <ele>117</ele>
        <time>2019-07-11T09:22:40Z</time>
      </trkpt>
      <trkpt lat="47.87611" lon="3.44349">
        <ele>116</ele>
        <time>2019-07-11T09:22:56Z</time>
      </trkpt>
      <trkpt lat="47.87604" lon="3.44352">
        <ele>115</ele>
        <time>2019-07-11T09:24:00Z</time>
      </trkpt>
      <trkpt lat="47.87597" lon="3.44356">
        <ele>115</ele>
        <time>2019-07-11T09:24:05Z</time>
      </trkpt>
      <trkpt lat="47.87585" lon="3.44362">
        <ele>114</ele>
        <time>2019-07-11T09:24:43Z</time>
      </trkpt>
      <trkpt lat="47.87571" lon="3.4437">
        <ele>114</ele>
        <time>2019-07-11T09:24:54Z</time>
      </trkpt>
      <trkpt lat="47.87563" lon="3.44375">
        <ele>114</ele>
        <time>2019-07-11T09:24:59Z</time>
      </trkpt>
      <trkpt lat="47.87557" lon="3.44379">
        <ele>114</ele>
        <time>2019-07-11T09:25:25Z</time>
      </trkpt>
      <trkpt lat="47.87535" lon="3.44394">
        <ele>114</ele>
        <time>2019-07-11T09:25:47Z</time>
      </trkpt>
      <trkpt lat="47.87528" lon="3.44399">
        <ele>114</ele>
        <time>2019-07-11T09:25:52Z</time>
      </trkpt>
      <trkpt lat="47.87508" lon="3.4441">
        <ele>115</ele>
        <time>2019-07-11T09:26:03Z</time>
      </trkpt>
      <trkpt lat="47.87482" lon="3.44431">
        <ele>115</ele>
        <time>2019-07-11T09:26:19Z</time>
      </trkpt>
      <trkpt lat="47.87458" lon="3.44441">
        <ele>115</ele>
        <time>2019-07-11T09:26:29Z</time>
      </trkpt>
      <trkpt lat="47.87412" lon="3.44469">
        <ele>114</ele>
        <time>2019-07-11T09:26:50Z</time>
      </trkpt>
      <trkpt lat="47.87384" lon="3.44484">
        <ele>115</ele>
        <time>2019-07-11T09:26:55Z</time>
      </trkpt>
      <trkpt lat="47.87363" lon="3.44499">
        <ele>115</ele>
        <time>2019-07-11T09:27:01Z</time>
      </trkpt>
      <trkpt lat="47.87278" lon="3.44556">
        <ele>115</ele>
        <time>2019-07-11T09:28:36Z</time>
      </trkpt>
      <trkpt lat="47.8727" lon="3.44562">
        <ele>115</ele>
        <time>2019-07-11T09:28:47Z</time>
      </trkpt>
      <trkpt lat="47.87222" lon="3.4459">
        <ele>117</ele>
        <time>2019-07-11T09:28:52Z</time>
      </trkpt>
      <trkpt lat="47.8721" lon="3.44601">
        <ele>117</ele>
        <time>2019-07-11T09:28:58Z</time>
      </trkpt>
      <trkpt lat="47.87204" lon="3.44604">
        <ele>117</ele>
        <time>2019-07-11T09:29:03Z</time>
      </trkpt>
      <trkpt lat="47.87168" lon="3.44623">
        <ele>121</ele>
        <time>2019-07-11T09:29:08Z</time>
      </trkpt>
      <trkpt lat="47.87141" lon="3.44642">
        <ele>122</ele>
        <time>2019-07-11T09:29:19Z</time>
      </trkpt>
      <trkpt lat="47.87136" lon="3.44646">
        <ele>122</ele>
        <time>2019-07-11T09:29:30Z</time>
      </trkpt>
      <trkpt lat="47.87122" lon="3.44651">
        <ele>122</ele>
        <time>2019-07-11T09:29:50Z</time>
      </trkpt>
      <trkpt lat="47.87098" lon="3.4466">
        <ele>122</ele>
        <time>2019-07-11T09:30:20Z</time>
      </trkpt>
      <trkpt lat="47.87083" lon="3.44661">
        <ele>122</ele>
        <time>2019-07-11T09:30:40Z</time>
      </trkpt>
      <trkpt lat="47.87054" lon="3.4466">
        <ele>122</ele>
        <time>2019-07-11T09:30:50Z</time>
      </trkpt>
      <trkpt lat="47.87046" lon="3.44658">
        <ele>122</ele>
        <time>2019-07-11T09:30:55Z</time>
      </trkpt>
      <trkpt lat="47.87037" lon="3.44654">
        <ele>122</ele>
        <time>2019-07-11T09:31:05Z</time>
      </trkpt>
      <trkpt lat="47.87003" lon="3.44623">
        <ele>119.8</ele>
        <time>2019-07-11T09:31:25Z</time>
      </trkpt>
      <trkpt lat="47.87016" lon="3.44587">
        <ele>120</ele>
        <time>2019-07-11T09:31:30Z</time>
      </trkpt>
      <trkpt lat="47.87026" lon="3.44567">
        <ele>121</ele>
        <time>2019-07-11T09:31:40Z</time>
      </trkpt>
      <trkpt lat="47.87037" lon="3.4455">
        <ele>121</ele>
        <time>2019-07-11T09:32:00Z</time>
      </trkpt>
      <trkpt lat="47.87037" lon="3.44533">
        <ele>121</ele>
        <time>2019-07-11T09:32:20Z</time>
      </trkpt>
      <trkpt lat="47.87039" lon="3.44514">
        <ele>121</ele>
        <time>2019-07-11T09:32:30Z</time>
      </trkpt>
      <trkpt lat="47.87021" lon="3.44501">
        <ele>124</ele>
        <time>2019-07-11T09:32:35Z</time>
      </trkpt>
      <trkpt lat="47.87009" lon="3.44498">
        <ele>124</ele>
        <time>2019-07-11T09:32:45Z</time>
      </trkpt>
      <trkpt lat="47.87004" lon="3.44493">
        <ele>124</ele>
        <time>2019-07-11T09:33:10Z</time>
      </trkpt>
      <trkpt lat="47.86999" lon="3.44482">
        <ele>124</ele>
        <time>2019-07-11T09:33:30Z</time>
      </trkpt>
      <trkpt lat="47.86998" lon="3.44473">
        <ele>125</ele>
        <time>2019-07-11T09:33:35Z</time>
      </trkpt>
      <trkpt lat="47.86995" lon="3.44462">
        <ele>125</ele>
        <time>2019-07-11T09:33:40Z</time>
      </trkpt>
      <trkpt lat="47.86992" lon="3.44441">
        <ele>126</ele>
        <time>2019-07-11T09:34:10Z</time>
      </trkpt>
      <trkpt lat="47.8698" lon="3.44428">
        <ele>126</ele>
        <time>2019-07-11T09:34:20Z</time>
      </trkpt>
      <trkpt lat="47.86957" lon="3.44415">
        <ele>126</ele>
        <time>2019-07-11T09:34:35Z</time>
      </trkpt>
      <trkpt lat="47.86921" lon="3.4439">
        <ele>126</ele>
        <time>2019-07-11T09:34:40Z</time>
      </trkpt>
      <trkpt lat="47.86893" lon="3.44386">
        <ele>127</ele>
        <time>2019-07-11T09:34:45Z</time>
      </trkpt>
      <trkpt lat="47.8688" lon="3.44383">
        <ele>126</ele>
        <time>2019-07-11T09:34:50Z</time>
      </trkpt>
      <trkpt lat="47.86874" lon="3.44379">
        <ele>126</ele>
        <time>2019-07-11T09:34:55Z</time>
      </trkpt>
      <trkpt lat="47.86863" lon="3.44367">
        <ele>127</ele>
        <time>2019-07-11T09:36:00Z</time>
      </trkpt>
      <trkpt lat="47.86846" lon="3.44337">
        <ele>127</ele>
        <time>2019-07-11T09:36:05Z</time>
      </trkpt>
      <trkpt lat="47.86843" lon="3.44331">
        <ele>127</ele>
        <time>2019-07-11T09:36:10Z</time>
      </trkpt>
      <trkpt lat="47.86833" lon="3.44317">
        <ele>126</ele>
        <time>2019-07-11T09:36:15Z</time>
      </trkpt>
      <trkpt lat="47.86809" lon="3.44292">
        <ele>126</ele>
        <time>2019-07-11T09:36:35Z</time>
      </trkpt>
      <trkpt lat="47.86784" lon="3.4427">
        <ele>125</ele>
        <time>2019-07-11T09:36:50Z</time>
      </trkpt>
      <trkpt lat="47.86771" lon="3.44259">
        <ele>125</ele>
        <time>2019-07-11T09:36:55Z</time>
      </trkpt>
      <trkpt lat="47.86764" lon="3.44256">
        <ele>125</ele>
        <time>2019-07-11T09:37:00Z</time>
      </trkpt>
      <trkpt lat="47.86751" lon="3.44247">
        <ele>124</ele>
        <time>2019-07-11T09:37:20Z</time>
      </trkpt>
      <trkpt lat="47.86718" lon="3.4422">
        <ele>124</ele>
        <time>2019-07-11T09:38:05Z</time>
      </trkpt>
      <trkpt lat="47.86693" lon="3.44197">
        <ele>123</ele>
        <time>2019-07-11T09:38:10Z</time>
      </trkpt>
      <trkpt lat="47.86689" lon="3.4419">
        <ele>123</ele>
        <time>2019-07-11T09:38:15Z</time>
      </trkpt>
      <trkpt lat="47.86683" lon="3.44187">
        <ele>123</ele>
        <time>2019-07-11T09:38:20Z</time>
      </trkpt>
      <trkpt lat="47.86649" lon="3.4418">
        <ele>122</ele>
        <time>2019-07-11T09:38:30Z</time>
      </trkpt>
      <trkpt lat="47.86633" lon="3.44191">
        <ele>123</ele>
        <time>2019-07-11T09:38:35Z</time>
      </trkpt>
      <trkpt lat="47.86628" lon="3.44197">
        <ele>123</ele>
        <time>2019-07-11T09:38:45Z</time>
      </trkpt>
      <trkpt lat="47.86621" lon="3.44189">
        <ele>123</ele>
        <time>2019-07-11T09:38:50Z</time>
      </trkpt>
      <trkpt lat="47.86615" lon="3.44182">
        <ele>124</ele>
        <time>2019-07-11T09:39:00Z</time>
      </trkpt>
      <trkpt lat="47.8661" lon="3.44176">
        <ele>123</ele>
        <time>2019-07-11T09:39:05Z</time>
      </trkpt>
      <trkpt lat="47.86603" lon="3.4417">
        <ele>123</ele>
        <time>2019-07-11T09:39:10Z</time>
      </trkpt>
      <trkpt lat="47.86521" lon="3.44096">
        <ele>125</ele>
        <time>2019-07-11T09:39:25Z</time>
      </trkpt>
      <trkpt lat="47.86515" lon="3.44091">
        <ele>124</ele>
        <time>2019-07-11T09:39:40Z</time>
      </trkpt>
      <trkpt lat="47.86507" lon="3.44087">
        <ele>125</ele>
        <time>2019-07-11T09:39:50Z</time>
      </trkpt>
      <trkpt lat="47.86501" lon="3.44082">
        <ele>125</ele>
        <time>2019-07-11T09:39:55Z</time>
      </trkpt>
      <trkpt lat="47.86476" lon="3.4406">
        <ele>128</ele>
        <time>2019-07-11T09:40:00Z</time>
      </trkpt>
      <trkpt lat="47.86454" lon="3.44049">
        <ele>129</ele>
        <time>2019-07-11T09:40:10Z</time>
      </trkpt>
      <trkpt lat="47.86447" lon="3.44044">
        <ele>129</ele>
        <time>2019-07-11T09:40:15Z</time>
      </trkpt>
      <trkpt lat="47.86438" lon="3.44041">
        <ele>129</ele>
        <time>2019-07-11T09:40:20Z</time>
      </trkpt>
      <trkpt lat="47.86414" lon="3.44027">
        <ele>128</ele>
        <time>2019-07-11T09:40:25Z</time>
      </trkpt>
      <trkpt lat="47.86352" lon="3.43999">
        <ele>126</ele>
        <time>2019-07-11T09:40:40Z</time>
      </trkpt>
      <trkpt lat="47.86345" lon="3.43996">
        <ele>125</ele>
        <time>2019-07-11T09:40:45Z</time>
      </trkpt>
      <trkpt lat="47.86338" lon="3.43993">
        <ele>125</ele>
        <time>2019-07-11T09:40:55Z</time>
      </trkpt>
      <trkpt lat="47.86332" lon="3.4399">
        <ele>125</ele>
        <time>2019-07-11T09:41:05Z</time>
      </trkpt>
      <trkpt lat="47.86318" lon="3.43987">
        <ele>125</ele>
        <time>2019-07-11T09:41:20Z</time>
      </trkpt>
      <trkpt lat="47.86311" lon="3.43983">
        <ele>125</ele>
        <time>2019-07-11T09:41:40Z</time>
      </trkpt>
      <trkpt lat="47.86298" lon="3.43981">
        <ele>125</ele>
        <time>2019-07-11T09:41:50Z</time>
      </trkpt>
      <trkpt lat="47.86291" lon="3.4398">
        <ele>125</ele>
        <time>2019-07-11T09:42:05Z</time>
      </trkpt>
      <trkpt lat="47.86277" lon="3.43978">
        <ele>125</ele>
        <time>2019-07-11T09:42:10Z</time>
      </trkpt>
      <trkpt lat="47.8627" lon="3.43977">
        <ele>125</ele>
        <time>2019-07-11T09:42:15Z</time>
      </trkpt>
      <trkpt lat="47.86263" lon="3.43977">
        <ele>125</ele>
        <time>2019-07-11T09:42:30Z</time>
      </trkpt>
      <trkpt lat="47.86242" lon="3.43976">
        <ele>126</ele>
        <time>2019-07-11T09:42:35Z</time>
      </trkpt>
      <trkpt lat="47.86224" lon="3.43976">
        <ele>127</ele>
        <time>2019-07-11T09:42:40Z</time>
      </trkpt>
      <trkpt lat="47.86208" lon="3.43973">
        <ele>126</ele>
        <time>2019-07-11T09:42:45Z</time>
      </trkpt>
      <trkpt lat="47.86202" lon="3.43971">
        <ele>126</ele>
        <time>2019-07-11T09:43:00Z</time>
      </trkpt>
      <trkpt lat="47.86195" lon="3.43969">
        <ele>127</ele>
        <time>2019-07-11T09:43:10Z</time>
      </trkpt>
      <trkpt lat="47.86183" lon="3.43967">
        <ele>127</ele>
        <time>2019-07-11T09:43:15Z</time>
      </trkpt>
      <trkpt lat="47.86177" lon="3.43967">
        <ele>127</ele>
        <time>2019-07-11T09:43:20Z</time>
      </trkpt>
      <trkpt lat="47.86169" lon="3.43965">
        <ele>127</ele>
        <time>2019-07-11T09:43:25Z</time>
      </trkpt>
      <trkpt lat="47.86162" lon="3.43963">
        <ele>127</ele>
        <time>2019-07-11T09:43:30Z</time>
      </trkpt>
      <trkpt lat="47.8614" lon="3.43955">
        <ele>127</ele>
        <time>2019-07-11T09:43:45Z</time>
      </trkpt>
      <trkpt lat="47.86133" lon="3.43955">
        <ele>127</ele>
        <time>2019-07-11T09:43:55Z</time>
      </trkpt>
      <trkpt lat="47.86118" lon="3.43956">
        <ele>127</ele>
        <time>2019-07-11T09:44:00Z</time>
      </trkpt>
      <trkpt lat="47.86105" lon="3.43955">
        <ele>127</ele>
        <time>2019-07-11T09:44:05Z</time>
      </trkpt>
      <trkpt lat="47.86086" lon="3.43952">
        <ele>127</ele>
        <time>2019-07-11T09:44:45Z</time>
      </trkpt>
      <trkpt lat="47.86059" lon="3.43949">
        <ele>127</ele>
        <time>2019-07-11T09:44:50Z</time>
      </trkpt>
      <trkpt lat="47.86047" lon="3.43946">
        <ele>126</ele>
        <time>2019-07-11T09:45:00Z</time>
      </trkpt>
      <trkpt lat="47.86024" lon="3.43949">
        <ele>125</ele>
        <time>2019-07-11T09:45:10Z</time>
      </trkpt>
      <trkpt lat="47.86017" lon="3.4395">
        <ele>125</ele>
        <time>2019-07-11T09:45:15Z</time>
      </trkpt>
      <trkpt lat="47.86012" lon="3.43951">
        <ele>125</ele>
        <time>2019-07-11T09:45:40Z</time>
      </trkpt>
      <trkpt lat="47.85989" lon="3.43958">
        <ele>123</ele>
        <time>2019-07-11T09:45:50Z</time>
      </trkpt>
      <trkpt lat="47.85983" lon="3.43962">
        <ele>124</ele>
        <time>2019-07-11T09:46:20Z</time>
      </trkpt>
      <trkpt lat="47.85976" lon="3.43961">
        <ele>123</ele>
        <time>2019-07-11T09:46:45Z</time>
      </trkpt>
      <trkpt lat="47.85968" lon="3.43963">
        <ele>123</ele>
        <time>2019-07-11T09:47:25Z</time>
      </trkpt>
      <trkpt lat="47.85946" lon="3.43976">
        <ele>124</ele>
        <time>2019-07-11T09:47:35Z</time>
      </trkpt>
      <trkpt lat="47.85935" lon="3.43983">
        <ele>124</ele>
        <time>2019-07-11T09:47:40Z</time>
      </trkpt>
      <trkpt lat="47.8593" lon="3.43987">
        <ele>124</ele>
        <time>2019-07-11T09:47:50Z</time>
      </trkpt>
      <trkpt lat="47.85924" lon="3.4399">
        <ele>124</ele>
        <time>2019-07-11T09:48:10Z</time>
      </trkpt>
      <trkpt lat="47.85919" lon="3.43992">
        <ele>124</ele>
        <time>2019-07-11T09:48:15Z</time>
      </trkpt>
      <trkpt lat="47.85914" lon="3.43994">
        <ele>125</ele>
        <time>2019-07-11T09:48:25Z</time>
      </trkpt>
      <trkpt lat="47.85891" lon="3.44006">
        <ele>125</ele>
        <time>2019-07-11T09:48:30Z</time>
      </trkpt>
      <trkpt lat="47.85879" lon="3.44014">
        <ele>125</ele>
        <time>2019-07-11T09:48:35Z</time>
      </trkpt>
      <trkpt lat="47.85871" lon="3.44017">
        <ele>125</ele>
        <time>2019-07-11T09:48:40Z</time>
      </trkpt>
      <trkpt lat="47.85864" lon="3.44022">
        <ele>125</ele>
        <time>2019-07-11T09:48:45Z</time>
      </trkpt>
      <trkpt lat="47.8581" lon="3.4405">
        <ele>127</ele>
        <time>2019-07-11T09:49:00Z</time>
      </trkpt>
      <trkpt lat="47.85802" lon="3.44053">
        <ele>128</ele>
        <time>2019-07-11T09:49:15Z</time>
      </trkpt>
      <trkpt lat="47.85791" lon="3.44059">
        <ele>128</ele>
        <time>2019-07-11T09:49:35Z</time>
      </trkpt>
      <trkpt lat="47.85775" lon="3.44066">
        <ele>128</ele>
        <time>2019-07-11T09:49:45Z</time>
      </trkpt>
      <trkpt lat="47.85768" lon="3.44069">
        <ele>128</ele>
        <time>2019-07-11T09:49:50Z</time>
      </trkpt>
      <trkpt lat="47.85739" lon="3.44085">
        <ele>129</ele>
        <time>2019-07-11T09:50:00Z</time>
      </trkpt>
      <trkpt lat="47.85726" lon="3.4409">
        <ele>129</ele>
        <time>2019-07-11T09:50:05Z</time>
      </trkpt>
      <trkpt lat="47.85682" lon="3.44116">
        <ele>131</ele>
        <time>2019-07-11T09:50:25Z</time>
      </trkpt>
      <trkpt lat="47.85649" lon="3.44132">
        <ele>132</ele>
        <time>2019-07-11T09:50:30Z</time>
      </trkpt>
      <trkpt lat="47.85601" lon="3.44178">
        <ele>133</ele>
        <time>2019-07-11T09:51:00Z</time>
      </trkpt>
      <trkpt lat="47.85589" lon="3.44187">
        <ele>133</ele>
        <time>2019-07-11T09:51:10Z</time>
      </trkpt>
      <trkpt lat="47.85584" lon="3.44192">
        <ele>133</ele>
        <time>2019-07-11T09:51:20Z</time>
      </trkpt>
      <trkpt lat="47.85573" lon="3.44209">
        <ele>133</ele>
        <time>2019-07-11T09:51:35Z</time>
      </trkpt>
      <trkpt lat="47.85554" lon="3.44242">
        <ele>133</ele>
        <time>2019-07-11T09:51:40Z</time>
      </trkpt>
      <trkpt lat="47.85551" lon="3.44248">
        <ele>133</ele>
        <time>2019-07-11T09:51:45Z</time>
      </trkpt>
      <trkpt lat="47.85538" lon="3.44264">
        <ele>132</ele>
        <time>2019-07-11T09:51:50Z</time>
      </trkpt>
      <trkpt lat="47.85533" lon="3.44273">
        <ele>132</ele>
        <time>2019-07-11T09:51:55Z</time>
      </trkpt>
      <trkpt lat="47.85526" lon="3.44279">
        <ele>132</ele>
        <time>2019-07-11T09:52:00Z</time>
      </trkpt>
      <trkpt lat="47.85521" lon="3.44288">
        <ele>132</ele>
        <time>2019-07-11T09:52:10Z</time>
      </trkpt>
      <trkpt lat="47.85516" lon="3.44298">
        <ele>132</ele>
        <time>2019-07-11T09:52:20Z</time>
      </trkpt>
      <trkpt lat="47.85504" lon="3.44319">
        <ele>132</ele>
        <time>2019-07-11T09:52:50Z</time>
      </trkpt>
      <trkpt lat="47.85493" lon="3.44345">
        <ele>132</ele>
        <time>2019-07-11T09:53:00Z</time>
      </trkpt>
      <trkpt lat="47.85476" lon="3.44375">
        <ele>132</ele>
        <time>2019-07-11T09:53:10Z</time>
      </trkpt>
      <trkpt lat="47.85464" lon="3.44396">
        <ele>132</ele>
        <time>2019-07-11T09:53:20Z</time>
      </trkpt>
      <trkpt lat="47.8546" lon="3.44406">
        <ele>132</ele>
        <time>2019-07-11T09:53:25Z</time>
      </trkpt>
      <trkpt lat="47.8545" lon="3.44421">
        <ele>132</ele>
        <time>2019-07-11T09:53:35Z</time>
      </trkpt>
      <trkpt lat="47.85445" lon="3.44429">
        <ele>132</ele>
        <time>2019-07-11T09:53:45Z</time>
      </trkpt>
      <trkpt lat="47.85426" lon="3.44461">
        <ele>132</ele>
        <time>2019-07-11T09:54:00Z</time>
      </trkpt>
      <trkpt lat="47.85421" lon="3.44468">
        <ele>132</ele>
        <time>2019-07-11T09:54:15Z</time>
      </trkpt>
      <trkpt lat="47.85395" lon="3.44517">
        <ele>133</ele>
        <time>2019-07-11T09:54:20Z</time>
      </trkpt>
      <trkpt lat="47.85386" lon="3.44534">
        <ele>133</ele>
        <time>2019-07-11T09:54:35Z</time>
      </trkpt>
      <trkpt lat="47.85376" lon="3.44551">
        <ele>134</ele>
        <time>2019-07-11T09:54:40Z</time>
      </trkpt>
      <trkpt lat="47.85361" lon="3.44577">
        <ele>134</ele>
        <time>2019-07-11T09:55:20Z</time>
      </trkpt>
      <trkpt lat="47.85356" lon="3.44583">
        <ele>134</ele>
        <time>2019-07-11T09:55:45Z</time>
      </trkpt>
      <trkpt lat="47.85351" lon="3.44589">
        <ele>134</ele>
        <time>2019-07-11T09:56:00Z</time>
      </trkpt>
      <trkpt lat="47.85347" lon="3.44597">
        <ele>134</ele>
        <time>2019-07-11T09:56:10Z</time>
      </trkpt>
      <trkpt lat="47.85342" lon="3.44605">
        <ele>135</ele>
        <time>2019-07-11T09:56:20Z</time>
      </trkpt>
      <trkpt lat="47.85337" lon="3.44613">
        <ele>135</ele>
        <time>2019-07-11T09:56:25Z</time>
      </trkpt>
      <trkpt lat="47.85329" lon="3.44625">
        <ele>135</ele>
        <time>2019-07-11T09:56:30Z</time>
      </trkpt>
      <trkpt lat="47.8532" lon="3.44636">
        <ele>135</ele>
        <time>2019-07-11T09:57:20Z</time>
      </trkpt>
      <trkpt lat="47.85286" lon="3.44671">
        <ele>137</ele>
        <time>2019-07-11T09:57:50Z</time>
      </trkpt>
      <trkpt lat="47.85274" lon="3.44683">
        <ele>137</ele>
        <time>2019-07-11T09:58:00Z</time>
      </trkpt>
      <trkpt lat="47.85265" lon="3.44687">
        <ele>137</ele>
        <time>2019-07-11T09:58:20Z</time>
      </trkpt>
      <trkpt lat="47.85254" lon="3.44697">
        <ele>137</ele>
        <time>2019-07-11T09:58:55Z</time>
      </trkpt>
      <trkpt lat="47.85245" lon="3.44703">
        <ele>137</ele>
        <time>2019-07-11T09:59:05Z</time>
      </trkpt>
      <trkpt lat="47.85231" lon="3.44711">
        <ele>136</ele>
        <time>2019-07-11T09:59:20Z</time>
      </trkpt>
      <trkpt lat="47.85216" lon="3.44716">
        <ele>136</ele>
        <time>2019-07-11T09:59:25Z</time>
      </trkpt>
      <trkpt lat="47.85194" lon="3.44731">
        <ele>135</ele>
        <time>2019-07-11T09:59:30Z</time>
      </trkpt>
      <trkpt lat="47.85173" lon="3.44741">
        <ele>135</ele>
        <time>2019-07-11T09:59:45Z</time>
      </trkpt>
      <trkpt lat="47.85165" lon="3.44743">
        <ele>134</ele>
        <time>2019-07-11T10:00:05Z</time>
      </trkpt>
      <trkpt lat="47.85144" lon="3.44752">
        <ele>134</ele>
        <time>2019-07-11T10:00:10Z</time>
      </trkpt>
      <trkpt lat="47.85137" lon="3.44753">
        <ele>134</ele>
        <time>2019-07-11T10:00:15Z</time>
      </trkpt>
      <trkpt lat="47.85079" lon="3.44766">
        <ele>135</ele>
        <time>2019-07-11T10:00:20Z</time>
      </trkpt>
      <trkpt lat="47.85046" lon="3.44787">
        <ele>136</ele>
        <time>2019-07-11T10:00:25Z</time>
      </trkpt>
      <trkpt lat="47.85029" lon="3.44799">
        <ele>137</ele>
        <time>2019-07-11T10:00:30Z</time>
      </trkpt>
      <trkpt lat="47.8502" lon="3.44801">
        <ele>137</ele>
        <time>2019-07-11T10:00:40Z</time>
      </trkpt>
      <trkpt lat="47.85005" lon="3.44812">
        <ele>137</ele>
        <time>2019-07-11T10:00:50Z</time>
      </trkpt>
      <trkpt lat="47.84999" lon="3.44819">
        <ele>137</ele>
        <time>2019-07-11T10:01:05Z</time>
      </trkpt>
      <trkpt lat="47.84992" lon="3.44825">
        <ele>138</ele>
        <time>2019-07-11T10:01:30Z</time>
      </trkpt>
      <trkpt lat="47.84973" lon="3.44837">
        <ele>136</ele>
        <time>2019-07-11T10:01:35Z</time>
      </trkpt>
      <trkpt lat="47.84959" lon="3.44847">
        <ele>136</ele>
        <time>2019-07-11T10:01:45Z</time>
      </trkpt>
      <trkpt lat="47.8493" lon="3.44876">
        <ele>138</ele>
        <time>2019-07-11T10:02:05Z</time>
      </trkpt>
      <trkpt lat="47.84894" lon="3.44922">
        <ele>138</ele>
        <time>2019-07-11T10:02:20Z</time>
      </trkpt>
      <trkpt lat="47.84882" lon="3.44937">
        <ele>138</ele>
        <time>2019-07-11T10:02:30Z</time>
      </trkpt>
      <trkpt lat="47.84857" lon="3.44958">
        <ele>138</ele>
        <time>2019-07-11T10:02:35Z</time>
      </trkpt>
      <trkpt lat="47.84819" lon="3.45002">
        <ele>139</ele>
        <time>2019-07-11T10:02:50Z</time>
      </trkpt>
      <trkpt lat="47.84806" lon="3.45015">
        <ele>139</ele>
        <time>2019-07-11T10:03:00Z</time>
      </trkpt>
      <trkpt lat="47.84789" lon="3.45035">
        <ele>138</ele>
        <time>2019-07-11T10:03:05Z</time>
      </trkpt>
      <trkpt lat="47.84783" lon="3.45043">
        <ele>138</ele>
        <time>2019-07-11T10:03:10Z</time>
      </trkpt>
      <trkpt lat="47.84778" lon="3.45051">
        <ele>138</ele>
        <time>2019-07-11T10:03:15Z</time>
      </trkpt>
      <trkpt lat="47.84762" lon="3.45066">
        <ele>137</ele>
        <time>2019-07-11T10:03:35Z</time>
      </trkpt>
      <trkpt lat="47.84738" lon="3.45092">
        <ele>137</ele>
        <time>2019-07-11T10:03:40Z</time>
      </trkpt>
      <trkpt lat="47.84733" lon="3.45098">
        <ele>137</ele>
        <time>2019-07-11T10:03:55Z</time>
      </trkpt>
      <trkpt lat="47.84728" lon="3.45106">
        <ele>137</ele>
        <time>2019-07-11T10:04:00Z</time>
      </trkpt>
      <trkpt lat="47.84723" lon="3.45113">
        <ele>137</ele>
        <time>2019-07-11T10:04:15Z</time>
      </trkpt>
      <trkpt lat="47.84716" lon="3.45118">
        <ele>137</ele>
        <time>2019-07-11T10:04:25Z</time>
      </trkpt>
      <trkpt lat="47.84712" lon="3.45125">
        <ele>137</ele>
        <time>2019-07-11T10:04:30Z</time>
      </trkpt>
      <trkpt lat="47.84701" lon="3.45139">
        <ele>138</ele>
        <time>2019-07-11T10:04:35Z</time>
      </trkpt>
      <trkpt lat="47.84692" lon="3.45152">
        <ele>139</ele>
        <time>2019-07-11T10:04:40Z</time>
      </trkpt>
      <trkpt lat="47.84678" lon="3.45167">
        <ele>139</ele>
        <time>2019-07-11T10:04:55Z</time>
      </trkpt>
      <trkpt lat="47.8465" lon="3.45201">
        <ele>141</ele>
        <time>2019-07-11T10:05:00Z</time>
      </trkpt>
      <trkpt lat="47.84645" lon="3.45208">
        <ele>141</ele>
        <time>2019-07-11T10:05:20Z</time>
      </trkpt>
      <trkpt lat="47.84633" lon="3.45221">
        <ele>142</ele>
        <time>2019-07-11T10:05:25Z</time>
      </trkpt>
      <trkpt lat="47.84609" lon="3.45247">
        <ele>144</ele>
        <time>2019-07-11T10:05:30Z</time>
      </trkpt>
      <trkpt lat="47.84591" lon="3.45268">
        <ele>145</ele>
        <time>2019-07-11T10:05:45Z</time>
      </trkpt>
      <trkpt lat="47.8458" lon="3.4528">
        <ele>146</ele>
        <time>2019-07-11T10:05:50Z</time>
      </trkpt>
      <trkpt lat="47.84575" lon="3.45282">
        <ele>146</ele>
        <time>2019-07-11T10:06:20Z</time>
      </trkpt>
      <trkpt lat="47.84552" lon="3.45308">
        <ele>148</ele>
        <time>2019-07-11T10:06:25Z</time>
      </trkpt>
      <trkpt lat="47.8454" lon="3.45322">
        <ele>148</ele>
        <time>2019-07-11T10:06:30Z</time>
      </trkpt>
      <trkpt lat="47.84533" lon="3.45328">
        <ele>148</ele>
        <time>2019-07-11T10:06:45Z</time>
      </trkpt>
      <trkpt lat="47.84527" lon="3.45333">
        <ele>148</ele>
        <time>2019-07-11T10:06:50Z</time>
      </trkpt>
      <trkpt lat="47.8452" lon="3.45339">
        <ele>148</ele>
        <time>2019-07-11T10:07:00Z</time>
      </trkpt>
      <trkpt lat="47.84495" lon="3.45359">
        <ele>147</ele>
        <time>2019-07-11T10:07:30Z</time>
      </trkpt>
      <trkpt lat="47.84489" lon="3.45363">
        <ele>146</ele>
        <time>2019-07-11T10:07:40Z</time>
      </trkpt>
      <trkpt lat="47.84472" lon="3.45378">
        <ele>145</ele>
        <time>2019-07-11T10:07:50Z</time>
      </trkpt>
      <trkpt lat="47.84466" lon="3.45384">
        <ele>145</ele>
        <time>2019-07-11T10:08:00Z</time>
      </trkpt>
      <trkpt lat="47.84446" lon="3.45399">
        <ele>144</ele>
        <time>2019-07-11T10:08:05Z</time>
      </trkpt>
      <trkpt lat="47.84433" lon="3.45408">
        <ele>143</ele>
        <time>2019-07-11T10:08:25Z</time>
      </trkpt>
      <trkpt lat="47.84427" lon="3.45413">
        <ele>143</ele>
        <time>2019-07-11T10:08:30Z</time>
      </trkpt>
      <trkpt lat="47.8442" lon="3.45417">
        <ele>143</ele>
        <time>2019-07-11T10:08:40Z</time>
      </trkpt>
      <trkpt lat="47.84414" lon="3.45422">
        <ele>143</ele>
        <time>2019-07-11T10:08:45Z</time>
      </trkpt>
      <trkpt lat="47.84395" lon="3.45434">
        <ele>144</ele>
        <time>2019-07-11T10:08:55Z</time>
      </trkpt>
      <trkpt lat="47.84388" lon="3.45436">
        <ele>144</ele>
        <time>2019-07-11T10:09:05Z</time>
      </trkpt>
      <trkpt lat="47.84364" lon="3.45451">
        <ele>145</ele>
        <time>2019-07-11T10:09:15Z</time>
      </trkpt>
      <trkpt lat="47.84358" lon="3.45453">
        <ele>145</ele>
        <time>2019-07-11T10:09:25Z</time>
      </trkpt>
      <trkpt lat="47.84352" lon="3.45455">
        <ele>145</ele>
        <time>2019-07-11T10:09:55Z</time>
      </trkpt>
      <trkpt lat="47.84334" lon="3.4547">
        <ele>147</ele>
        <time>2019-07-11T10:10:15Z</time>
      </trkpt>
      <trkpt lat="47.84327" lon="3.45475">
        <ele>147</ele>
        <time>2019-07-11T10:10:20Z</time>
      </trkpt>
      <trkpt lat="47.84287" lon="3.45502">
        <ele>148</ele>
        <time>2019-07-11T10:10:30Z</time>
      </trkpt>
      <trkpt lat="47.8428" lon="3.45505">
        <ele>148</ele>
        <time>2019-07-11T10:10:35Z</time>
      </trkpt>
      <trkpt lat="47.84273" lon="3.4551">
        <ele>148</ele>
        <time>2019-07-11T10:10:40Z</time>
      </trkpt>
      <trkpt lat="47.84248" lon="3.45517">
        <ele>148</ele>
        <time>2019-07-11T10:10:45Z</time>
      </trkpt>
      <trkpt lat="47.84242" lon="3.45521">
        <ele>148</ele>
        <time>2019-07-11T10:11:00Z</time>
      </trkpt>
      <trkpt lat="47.84229" lon="3.45526">
        <ele>148</ele>
        <time>2019-07-11T10:11:05Z</time>
      </trkpt>
      <trkpt lat="47.84195" lon="3.45553">
        <ele>149</ele>
        <time>2019-07-11T10:11:10Z</time>
      </trkpt>
      <trkpt lat="47.84185" lon="3.45565">
        <ele>150</ele>
        <time>2019-07-11T10:11:15Z</time>
      </trkpt>
      <trkpt lat="47.84174" lon="3.4558">
        <ele>150</ele>
        <time>2019-07-11T10:11:20Z</time>
      </trkpt>
      <trkpt lat="47.84163" lon="3.45595">
        <ele>151</ele>
        <time>2019-07-11T10:11:25Z</time>
      </trkpt>
      <trkpt lat="47.84158" lon="3.45604">
        <ele>151</ele>
        <time>2019-07-11T10:11:30Z</time>
      </trkpt>
      <trkpt lat="47.84143" lon="3.45635">
        <ele>153</ele>
        <time>2019-07-11T10:11:35Z</time>
      </trkpt>
      <trkpt lat="47.8414" lon="3.45641">
        <ele>154</ele>
        <time>2019-07-11T10:11:40Z</time>
      </trkpt>
      <trkpt lat="47.84132" lon="3.45658">
        <ele>155</ele>
        <time>2019-07-11T10:11:45Z</time>
      </trkpt>
      <trkpt lat="47.84129" lon="3.45666">
        <ele>155</ele>
        <time>2019-07-11T10:11:50Z</time>
      </trkpt>
      <trkpt lat="47.84122" lon="3.4568">
        <ele>156</ele>
        <time>2019-07-11T10:12:10Z</time>
      </trkpt>
      <trkpt lat="47.84116" lon="3.45696">
        <ele>157</ele>
        <time>2019-07-11T10:12:15Z</time>
      </trkpt>
      <trkpt lat="47.84108" lon="3.45715">
        <ele>158</ele>
        <time>2019-07-11T10:12:20Z</time>
      </trkpt>
      <trkpt lat="47.84099" lon="3.45733">
        <ele>159</ele>
        <time>2019-07-11T10:12:25Z</time>
      </trkpt>
      <trkpt lat="47.84089" lon="3.45757">
        <ele>157</ele>
        <time>2019-07-11T10:12:35Z</time>
      </trkpt>
      <trkpt lat="47.84076" lon="3.45787">
        <ele>160</ele>
        <time>2019-07-11T10:13:05Z</time>
      </trkpt>
      <trkpt lat="47.84055" lon="3.45813">
        <ele>160</ele>
        <time>2019-07-11T10:13:10Z</time>
      </trkpt>
      <trkpt lat="47.84049" lon="3.4582">
        <ele>160</ele>
        <time>2019-07-11T10:13:15Z</time>
      </trkpt>
      <trkpt lat="47.84033" lon="3.45833">
        <ele>160</ele>
        <time>2019-07-11T10:13:35Z</time>
      </trkpt>
      <trkpt lat="47.84027" lon="3.45841">
        <ele>160</ele>
        <time>2019-07-11T10:13:50Z</time>
      </trkpt>
      <trkpt lat="47.8402" lon="3.45846">
        <ele>160</ele>
        <time>2019-07-11T10:14:00Z</time>
      </trkpt>
      <trkpt lat="47.84011" lon="3.45849">
        <ele>160</ele>
        <time>2019-07-11T10:14:05Z</time>
      </trkpt>
      <trkpt lat="47.83993" lon="3.4586">
        <ele>160</ele>
        <time>2019-07-11T10:14:10Z</time>
      </trkpt>
      <trkpt lat="47.83987" lon="3.45864">
        <ele>160</ele>
        <time>2019-07-11T10:14:15Z</time>
      </trkpt>
      <trkpt lat="47.83982" lon="3.45865">
        <ele>160</ele>
        <time>2019-07-11T10:14:20Z</time>
      </trkpt>
      <trkpt lat="47.83977" lon="3.45866">
        <ele>160</ele>
        <time>2019-07-11T10:14:25Z</time>
      </trkpt>
      <trkpt lat="47.83969" lon="3.45869">
        <ele>160</ele>
        <time>2019-07-11T10:14:30Z</time>
      </trkpt>
      <trkpt lat="47.83963" lon="3.45872">
        <ele>160</ele>
        <time>2019-07-11T10:15:15Z</time>
      </trkpt>
      <trkpt lat="47.83957" lon="3.45876">
        <ele>161</ele>
        <time>2019-07-11T10:15:20Z</time>
      </trkpt>
      <trkpt lat="47.83948" lon="3.45881">
        <ele>161</ele>
        <time>2019-07-11T10:15:30Z</time>
      </trkpt>
      <trkpt lat="47.8394" lon="3.45887">
        <ele>161</ele>
        <time>2019-07-11T10:15:35Z</time>
      </trkpt>
      <trkpt lat="47.83934" lon="3.45894">
        <ele>161</ele>
        <time>2019-07-11T10:16:10Z</time>
      </trkpt>
      <trkpt lat="47.83928" lon="3.45899">
        <ele>161</ele>
        <time>2019-07-11T10:16:30Z</time>
      </trkpt>
      <trkpt lat="47.83908" lon="3.4591">
        <ele>163</ele>
        <time>2019-07-11T10:16:35Z</time>
      </trkpt>
      <trkpt lat="47.83902" lon="3.45916">
        <ele>163</ele>
        <time>2019-07-11T10:16:40Z</time>
      </trkpt>
      <trkpt lat="47.83896" lon="3.45921">
        <ele>163</ele>
        <time>2019-07-11T10:16:50Z</time>
      </trkpt>
      <trkpt lat="47.83889" lon="3.4593">
        <ele>164</ele>
        <time>2019-07-11T10:17:00Z</time>
      </trkpt>
      <trkpt lat="47.83878" lon="3.45941">
        <ele>165</ele>
        <time>2019-07-11T10:17:20Z</time>
      </trkpt>
      <trkpt lat="47.83841" lon="3.45971">
        <ele>168</ele>
        <time>2019-07-11T10:17:35Z</time>
      </trkpt>
      <trkpt lat="47.83834" lon="3.45977">
        <ele>169</ele>
        <time>2019-07-11T10:17:45Z</time>
      </trkpt>
      <trkpt lat="47.83827" lon="3.45983">
        <ele>169</ele>
        <time>2019-07-11T10:18:05Z</time>
      </trkpt>
      <trkpt lat="47.83799" lon="3.46009">
        <ele>170</ele>
        <time>2019-07-11T10:18:15Z</time>
      </trkpt>
      <trkpt lat="47.83782" lon="3.4602">
        <ele>171</ele>
        <time>2019-07-11T10:18:20Z</time>
      </trkpt>
      <trkpt lat="47.83769" lon="3.4603">
        <ele>171</ele>
        <time>2019-07-11T10:18:35Z</time>
      </trkpt>
      <trkpt lat="47.83762" lon="3.46035">
        <ele>171</ele>
        <time>2019-07-11T10:18:40Z</time>
      </trkpt>
      <trkpt lat="47.83757" lon="3.4604">
        <ele>171</ele>
        <time>2019-07-11T10:18:45Z</time>
      </trkpt>
      <trkpt lat="47.8375" lon="3.46044">
        <ele>172</ele>
        <time>2019-07-11T10:18:55Z</time>
      </trkpt>
      <trkpt lat="47.83742" lon="3.46048">
        <ele>171</ele>
        <time>2019-07-11T10:19:00Z</time>
      </trkpt>
      <trkpt lat="47.83734" lon="3.46055">
        <ele>171</ele>
        <time>2019-07-11T10:19:05Z</time>
      </trkpt>
      <trkpt lat="47.83728" lon="3.46058">
        <ele>171</ele>
        <time>2019-07-11T10:19:15Z</time>
      </trkpt>
      <trkpt lat="47.837" lon="3.46076">
        <ele>168</ele>
        <time>2019-07-11T10:19:20Z</time>
      </trkpt>
      <trkpt lat="47.83668" lon="3.46092">
        <ele>170</ele>
        <time>2019-07-11T10:19:30Z</time>
      </trkpt>
      <trkpt lat="47.83661" lon="3.46096">
        <ele>170</ele>
        <time>2019-07-11T10:19:40Z</time>
      </trkpt>
      <trkpt lat="47.83646" lon="3.46102">
        <ele>170</ele>
        <time>2019-07-11T10:19:45Z</time>
      </trkpt>
      <trkpt lat="47.83638" lon="3.46105">
        <ele>170</ele>
        <time>2019-07-11T10:19:50Z</time>
      </trkpt>
      <trkpt lat="47.83623" lon="3.46112">
        <ele>169.7</ele>
        <time>2019-07-11T10:20:10Z</time>
      </trkpt>
      <trkpt lat="47.83607" lon="3.46118">
        <ele>170</ele>
        <time>2019-07-11T10:20:20Z</time>
      </trkpt>
      <trkpt lat="47.83591" lon="3.46121">
        <ele>169.5</ele>
        <time>2019-07-11T10:20:25Z</time>
      </trkpt>
      <trkpt lat="47.83584" lon="3.46121">
        <ele>170</ele>
        <time>2019-07-11T10:21:25Z</time>
      </trkpt>
      <trkpt lat="47.83555" lon="3.46128">
        <ele>171</ele>
        <time>2019-07-11T10:21:30Z</time>
      </trkpt>
      <trkpt lat="47.83548" lon="3.46128">
        <ele>171</ele>
        <time>2019-07-11T10:21:45Z</time>
      </trkpt>
      <trkpt lat="47.83542" lon="3.46129">
        <ele>172</ele>
        <time>2019-07-11T10:21:50Z</time>
      </trkpt>
      <trkpt lat="47.83529" lon="3.46131">
        <ele>171</ele>
        <time>2019-07-11T10:22:00Z</time>
      </trkpt>
      <trkpt lat="47.83513" lon="3.4613">
        <ele>171</ele>
        <time>2019-07-11T10:22:10Z</time>
      </trkpt>
      <trkpt lat="47.83484" lon="3.46128">
        <ele>171</ele>
        <time>2019-07-11T10:22:15Z</time>
      </trkpt>
      <trkpt lat="47.83463" lon="3.46124">
        <ele>172</ele>
        <time>2019-07-11T10:22:25Z</time>
      </trkpt>
      <trkpt lat="47.8345" lon="3.46122">
        <ele>172</ele>
        <time>2019-07-11T10:22:35Z</time>
      </trkpt>
      <trkpt lat="47.83423" lon="3.46116">
        <ele>174</ele>
        <time>2019-07-11T10:22:40Z</time>
      </trkpt>
      <trkpt lat="47.83409" lon="3.4611">
        <ele>174</ele>
        <time>2019-07-11T10:22:45Z</time>
      </trkpt>
      <trkpt lat="47.83402" lon="3.46109">
        <ele>175</ele>
        <time>2019-07-11T10:23:30Z</time>
      </trkpt>
      <trkpt lat="47.83382" lon="3.46102">
        <ele>176</ele>
        <time>2019-07-11T10:23:45Z</time>
      </trkpt>
      <trkpt lat="47.83375" lon="3.46098">
        <ele>176</ele>
        <time>2019-07-11T10:23:55Z</time>
      </trkpt>
      <trkpt lat="47.83368" lon="3.46095">
        <ele>176</ele>
        <time>2019-07-11T10:24:00Z</time>
      </trkpt>
      <trkpt lat="47.83354" lon="3.46092">
        <ele>177</ele>
        <time>2019-07-11T10:24:10Z</time>
      </trkpt>
      <trkpt lat="47.83347" lon="3.46091">
        <ele>177</ele>
        <time>2019-07-11T10:24:15Z</time>
      </trkpt>
      <trkpt lat="47.8334" lon="3.46089">
        <ele>177</ele>
        <time>2019-07-11T10:24:20Z</time>
      </trkpt>
      <trkpt lat="47.83326" lon="3.46087">
        <ele>177</ele>
        <time>2019-07-11T10:24:25Z</time>
      </trkpt>
      <trkpt lat="47.8332" lon="3.46085">
        <ele>177</ele>
        <time>2019-07-11T10:24:30Z</time>
      </trkpt>
      <trkpt lat="47.83305" lon="3.4608">
        <ele>178</ele>
        <time>2019-07-11T10:24:40Z</time>
      </trkpt>
      <trkpt lat="47.83292" lon="3.46076">
        <ele>178</ele>
        <time>2019-07-11T10:25:00Z</time>
      </trkpt>
      <trkpt lat="47.83285" lon="3.46076">
        <ele>178</ele>
        <time>2019-07-11T10:25:15Z</time>
      </trkpt>
      <trkpt lat="47.83278" lon="3.46074">
        <ele>178</ele>
        <time>2019-07-11T10:25:20Z</time>
      </trkpt>
      <trkpt lat="47.8325" lon="3.46064">
        <ele>178</ele>
        <time>2019-07-11T10:26:00Z</time>
      </trkpt>
      <trkpt lat="47.83237" lon="3.4606">
        <ele>179</ele>
        <time>2019-07-11T10:26:10Z</time>
      </trkpt>
      <trkpt lat="47.83229" lon="3.46058">
        <ele>179</ele>
        <time>2019-07-11T10:26:15Z</time>
      </trkpt>
      <trkpt lat="47.83223" lon="3.46054">
        <ele>176.6</ele>
        <time>2019-07-11T10:26:20Z</time>
      </trkpt>
      <trkpt lat="47.83215" lon="3.46046">
        <ele>177</ele>
        <time>2019-07-11T10:26:25Z</time>
      </trkpt>
      <trkpt lat="47.83206" lon="3.46028">
        <ele>176.8</ele>
        <time>2019-07-11T10:26:30Z</time>
      </trkpt>
      <trkpt lat="47.832" lon="3.46005">
        <ele>176.9</ele>
        <time>2019-07-11T10:26:35Z</time>
      </trkpt>
      <trkpt lat="47.83187" lon="3.45994">
        <ele>177</ele>
        <time>2019-07-11T10:26:45Z</time>
      </trkpt>
      <trkpt lat="47.83177" lon="3.45992">
        <ele>177</ele>
        <time>2019-07-11T10:27:10Z</time>
      </trkpt>
      <trkpt lat="47.83166" lon="3.45987">
        <ele>179</ele>
        <time>2019-07-11T10:27:20Z</time>
      </trkpt>
      <trkpt lat="47.83159" lon="3.45983">
        <ele>179</ele>
        <time>2019-07-11T10:27:45Z</time>
      </trkpt>
      <trkpt lat="47.83139" lon="3.45974">
        <ele>180</ele>
        <time>2019-07-11T10:27:50Z</time>
      </trkpt>
      <trkpt lat="47.83132" lon="3.4597">
        <ele>179</ele>
        <time>2019-07-11T10:28:05Z</time>
      </trkpt>
      <trkpt lat="47.83118" lon="3.45965">
        <ele>179</ele>
        <time>2019-07-11T10:28:10Z</time>
      </trkpt>
      <trkpt lat="47.83104" lon="3.45961">
        <ele>179</ele>
        <time>2019-07-11T10:28:25Z</time>
      </trkpt>
      <trkpt lat="47.83097" lon="3.45958">
        <ele>179</ele>
        <time>2019-07-11T10:29:00Z</time>
      </trkpt>
      <trkpt lat="47.83084" lon="3.45951">
        <ele>179</ele>
        <time>2019-07-11T10:29:05Z</time>
      </trkpt>
      <trkpt lat="47.83069" lon="3.45946">
        <ele>179</ele>
        <time>2019-07-11T10:29:20Z</time>
      </trkpt>
      <trkpt lat="47.83062" lon="3.45942">
        <ele>179</ele>
        <time>2019-07-11T10:29:25Z</time>
      </trkpt>
      <trkpt lat="47.83056" lon="3.4594">
        <ele>179</ele>
        <time>2019-07-11T10:29:40Z</time>
      </trkpt>
      <trkpt lat="47.83025" lon="3.45924">
        <ele>177</ele>
        <time>2019-07-11T10:29:50Z</time>
      </trkpt>
      <trkpt lat="47.82993" lon="3.45909">
        <ele>180</ele>
        <time>2019-07-11T10:30:05Z</time>
      </trkpt>
      <trkpt lat="47.82972" lon="3.45899">
        <ele>180</ele>
        <time>2019-07-11T10:30:20Z</time>
      </trkpt>
      <trkpt lat="47.82959" lon="3.45892">
        <ele>180</ele>
        <time>2019-07-11T10:30:40Z</time>
      </trkpt>
      <trkpt lat="47.82952" lon="3.45889">
        <ele>180</ele>
        <time>2019-07-11T10:30:50Z</time>
      </trkpt>
      <trkpt lat="47.82939" lon="3.45883">
        <ele>180</ele>
        <time>2019-07-11T10:31:00Z</time>
      </trkpt>
      <trkpt lat="47.82932" lon="3.45878">
        <ele>180</ele>
        <time>2019-07-11T10:31:20Z</time>
      </trkpt>
      <trkpt lat="47.82926" lon="3.45873">
        <ele>180</ele>
        <time>2019-07-11T10:31:45Z</time>
      </trkpt>
      <trkpt lat="47.82919" lon="3.45869">
        <ele>180</ele>
        <time>2019-07-11T10:31:50Z</time>
      </trkpt>
      <trkpt lat="47.82913" lon="3.45865">
        <ele>180</ele>
        <time>2019-07-11T10:32:05Z</time>
      </trkpt>
      <trkpt lat="47.82899" lon="3.45856">
        <ele>180</ele>
        <time>2019-07-11T10:32:15Z</time>
      </trkpt>
      <trkpt lat="47.82874" lon="3.45839">
        <ele>180</ele>
        <time>2019-07-11T10:32:25Z</time>
      </trkpt>
      <trkpt lat="47.82857" lon="3.45822">
        <ele>180</ele>
        <time>2019-07-11T10:32:35Z</time>
      </trkpt>
      <trkpt lat="47.82851" lon="3.45817">
        <ele>180</ele>
        <time>2019-07-11T10:32:45Z</time>
      </trkpt>
      <trkpt lat="47.82798" lon="3.45777">
        <ele>180</ele>
        <time>2019-07-11T10:33:05Z</time>
      </trkpt>
      <trkpt lat="47.82785" lon="3.45768">
        <ele>180</ele>
        <time>2019-07-11T10:33:30Z</time>
      </trkpt>
      <trkpt lat="47.82778" lon="3.45763">
        <ele>180</ele>
        <time>2019-07-11T10:33:35Z</time>
      </trkpt>
      <trkpt lat="47.82772" lon="3.45759">
        <ele>180</ele>
        <time>2019-07-11T10:33:45Z</time>
      </trkpt>
      <trkpt lat="47.82765" lon="3.45754">
        <ele>180</ele>
        <time>2019-07-11T10:34:00Z</time>
      </trkpt>
      <trkpt lat="47.82758" lon="3.45749">
        <ele>180</ele>
        <time>2019-07-11T10:34:10Z</time>
      </trkpt>
      <trkpt lat="47.82752" lon="3.45745">
        <ele>180</ele>
        <time>2019-07-11T10:34:25Z</time>
      </trkpt>
      <trkpt lat="47.8274" lon="3.45734">
        <ele>180</ele>
        <time>2019-07-11T10:34:30Z</time>
      </trkpt>
      <trkpt lat="47.82709" lon="3.45704">
        <ele>180</ele>
        <time>2019-07-11T10:34:35Z</time>
      </trkpt>
      <trkpt lat="47.82695" lon="3.45695">
        <ele>180</ele>
        <time>2019-07-11T10:34:50Z</time>
      </trkpt>
      <trkpt lat="47.82664" lon="3.45669">
        <ele>180</ele>
        <time>2019-07-11T10:35:10Z</time>
      </trkpt>
      <trkpt lat="47.82658" lon="3.45663">
        <ele>180</ele>
        <time>2019-07-11T10:35:15Z</time>
      </trkpt>
      <trkpt lat="47.82639" lon="3.45651">
        <ele>180</ele>
        <time>2019-07-11T10:35:30Z</time>
      </trkpt>
      <trkpt lat="47.82633" lon="3.45646">
        <ele>181</ele>
        <time>2019-07-11T10:35:35Z</time>
      </trkpt>
      <trkpt lat="47.82615" lon="3.45629">
        <ele>181</ele>
        <time>2019-07-11T10:36:10Z</time>
      </trkpt>
      <trkpt lat="47.82607" lon="3.45622">
        <ele>179.6</ele>
        <time>2019-07-11T10:36:15Z</time>
      </trkpt>
      <trkpt lat="47.826" lon="3.45621">
        <ele>180</ele>
        <time>2019-07-11T10:36:40Z</time>
      </trkpt>
      <trkpt lat="47.82594" lon="3.45627">
        <ele>179.4</ele>
        <time>2019-07-11T10:36:45Z</time>
      </trkpt>
      <trkpt lat="47.82573" lon="3.45659">
        <ele>180</ele>
        <time>2019-07-11T10:37:40Z</time>
      </trkpt>
      <trkpt lat="47.82568" lon="3.45668">
        <ele>180</ele>
        <time>2019-07-11T10:37:45Z</time>
      </trkpt>
      <trkpt lat="47.82558" lon="3.45697">
        <ele>180</ele>
        <time>2019-07-11T10:37:55Z</time>
      </trkpt>
      <trkpt lat="47.82556" lon="3.45709">
        <ele>179</ele>
        <time>2019-07-11T10:38:00Z</time>
      </trkpt>
      <trkpt lat="47.82549" lon="3.45742">
        <ele>179</ele>
        <time>2019-07-11T10:38:20Z</time>
      </trkpt>
      <trkpt lat="47.82545" lon="3.45762">
        <ele>178</ele>
        <time>2019-07-11T10:38:25Z</time>
      </trkpt>
      <trkpt lat="47.82544" lon="3.45789">
        <ele>178</ele>
        <time>2019-07-11T10:38:30Z</time>
      </trkpt>
      <trkpt lat="47.82539" lon="3.4582">
        <ele>177</ele>
        <time>2019-07-11T10:38:35Z</time>
      </trkpt>
      <trkpt lat="47.82538" lon="3.45861">
        <ele>177</ele>
        <time>2019-07-11T10:38:45Z</time>
      </trkpt>
      <trkpt lat="47.82539" lon="3.45882">
        <ele>177</ele>
        <time>2019-07-11T10:38:56Z</time>
      </trkpt>
      <trkpt lat="47.82538" lon="3.45904">
        <ele>177</ele>
        <time>2019-07-11T10:39:01Z</time>
      </trkpt>
      <trkpt lat="47.82537" lon="3.45945">
        <ele>177</ele>
        <time>2019-07-11T10:39:06Z</time>
      </trkpt>
      <trkpt lat="47.82527" lon="3.45997">
        <ele>175</ele>
        <time>2019-07-11T10:39:12Z</time>
      </trkpt>
      <trkpt lat="47.82527" lon="3.46009">
        <ele>175</ele>
        <time>2019-07-11T10:39:17Z</time>
      </trkpt>
      <trkpt lat="47.82523" lon="3.46041">
        <ele>174</ele>
        <time>2019-07-11T10:40:15Z</time>
      </trkpt>
      <trkpt lat="47.8252" lon="3.46062">
        <ele>173</ele>
        <time>2019-07-11T10:41:07Z</time>
      </trkpt>
      <trkpt lat="47.82515" lon="3.46083">
        <ele>172</ele>
        <time>2019-07-11T10:41:17Z</time>
      </trkpt>
      <trkpt lat="47.82513" lon="3.46104">
        <ele>172</ele>
        <time>2019-07-11T10:41:22Z</time>
      </trkpt>
      <trkpt lat="47.8251" lon="3.46125">
        <ele>172</ele>
        <time>2019-07-11T10:41:27Z</time>
      </trkpt>
      <trkpt lat="47.82502" lon="3.46167">
        <ele>171</ele>
        <time>2019-07-11T10:41:52Z</time>
      </trkpt>
      <trkpt lat="47.82491" lon="3.4622">
        <ele>171</ele>
        <time>2019-07-11T10:41:57Z</time>
      </trkpt>
      <trkpt lat="47.82489" lon="3.4623">
        <ele>171</ele>
        <time>2019-07-11T10:42:12Z</time>
      </trkpt>
      <trkpt lat="47.82485" lon="3.4625">
        <ele>170</ele>
        <time>2019-07-11T10:42:17Z</time>
      </trkpt>
      <trkpt lat="47.82481" lon="3.46281">
        <ele>169</ele>
        <time>2019-07-11T10:42:27Z</time>
      </trkpt>
      <trkpt lat="47.82478" lon="3.46302">
        <ele>168</ele>
        <time>2019-07-11T10:42:47Z</time>
      </trkpt>
      <trkpt lat="47.82471" lon="3.46334">
        <ele>167</ele>
        <time>2019-07-11T10:42:52Z</time>
      </trkpt>
      <trkpt lat="47.8247" lon="3.46344">
        <ele>167</ele>
        <time>2019-07-11T10:43:07Z</time>
      </trkpt>
      <trkpt lat="47.82468" lon="3.46355">
        <ele>166</ele>
        <time>2019-07-11T10:43:12Z</time>
      </trkpt>
      <trkpt lat="47.82462" lon="3.46386">
        <ele>166</ele>
        <time>2019-07-11T10:43:22Z</time>
      </trkpt>
      <trkpt lat="47.8246" lon="3.46427">
        <ele>164</ele>
        <time>2019-07-11T10:43:27Z</time>
      </trkpt>
      <trkpt lat="47.8246" lon="3.46438">
        <ele>164</ele>
        <time>2019-07-11T10:43:37Z</time>
      </trkpt>
      <trkpt lat="47.82456" lon="3.46471">
        <ele>163</ele>
        <time>2019-07-11T10:43:42Z</time>
      </trkpt>
      <trkpt lat="47.82454" lon="3.46482">
        <ele>163</ele>
        <time>2019-07-11T10:44:02Z</time>
      </trkpt>
      <trkpt lat="47.82449" lon="3.46557">
        <ele>161</ele>
        <time>2019-07-11T10:44:17Z</time>
      </trkpt>
      <trkpt lat="47.82447" lon="3.46569">
        <ele>161</ele>
        <time>2019-07-11T10:44:27Z</time>
      </trkpt>
      <trkpt lat="47.82438" lon="3.46601">
        <ele>157.5</ele>
        <time>2019-07-11T10:44:42Z</time>
      </trkpt>
      <trkpt lat="47.82426" lon="3.46604">
        <ele>160</ele>
        <time>2019-07-11T10:45:27Z</time>
      </trkpt>
      <trkpt lat="47.8242" lon="3.46606">
        <ele>160</ele>
        <time>2019-07-11T10:45:32Z</time>
      </trkpt>
      <trkpt lat="47.82399" lon="3.46613">
        <ele>158</ele>
        <time>2019-07-11T10:45:42Z</time>
      </trkpt>
      <trkpt lat="47.82379" lon="3.46619">
        <ele>157.6</ele>
        <time>2019-07-11T10:45:47Z</time>
      </trkpt>
      <trkpt lat="47.82373" lon="3.46675">
        <ele>158</ele>
        <time>2019-07-11T10:45:52Z</time>
      </trkpt>
      <trkpt lat="47.82371" lon="3.46686">
        <ele>158</ele>
        <time>2019-07-11T10:46:02Z</time>
      </trkpt>
      <trkpt lat="47.8237" lon="3.46702">
        <ele>157</ele>
        <time>2019-07-11T10:46:07Z</time>
      </trkpt>
      <trkpt lat="47.82371" lon="3.46706">
        <ele>157</ele>
        <time>2019-07-11T10:46:37Z</time>
      </trkpt>
      <trkpt lat="47.82368" lon="3.4672">
        <ele>157</ele>
        <time>2019-07-11T10:46:42Z</time>
      </trkpt>
      <trkpt lat="47.8237" lon="3.46728">
        <ele>157</ele>
        <time>2019-07-11T10:47:02Z</time>
      </trkpt>
      <trkpt lat="47.8237" lon="3.46731">
        <ele>156</ele>
        <time>2019-07-11T10:47:07Z</time>
      </trkpt>
      <trkpt lat="47.8237" lon="3.46725">
        <ele>157</ele>
        <time>2019-07-11T10:47:12Z</time>
      </trkpt>
      <trkpt lat="47.82374" lon="3.46729">
        <ele>157</ele>
        <time>2019-07-11T10:47:27Z</time>
      </trkpt>
      <trkpt lat="47.82368" lon="3.46721">
        <ele>157</ele>
        <time>2019-07-11T10:47:37Z</time>
      </trkpt>
      <trkpt lat="47.82367" lon="3.46715">
        <ele>157</ele>
        <time>2019-07-11T10:47:42Z</time>
      </trkpt>
      <trkpt lat="47.82367" lon="3.46705">
        <ele>157</ele>
        <time>2019-07-11T10:48:02Z</time>
      </trkpt>
      <trkpt lat="47.82368" lon="3.46697">
        <ele>157</ele>
        <time>2019-07-11T10:48:07Z</time>
      </trkpt>
      <trkpt lat="47.82372" lon="3.46688">
        <ele>158</ele>
        <time>2019-07-11T10:48:12Z</time>
      </trkpt>
      <trkpt lat="47.82376" lon="3.46647">
        <ele>157.3</ele>
        <time>2019-07-11T10:48:17Z</time>
      </trkpt>
      <trkpt lat="47.82377" lon="3.46619">
        <ele>157.6</ele>
        <time>2019-07-11T10:48:22Z</time>
      </trkpt>
      <trkpt lat="47.82382" lon="3.46616">
        <ele>158</ele>
        <time>2019-07-11T10:48:27Z</time>
      </trkpt>
      <trkpt lat="47.82392" lon="3.46618">
        <ele>157.6</ele>
        <time>2019-07-11T10:48:37Z</time>
      </trkpt>
      <trkpt lat="47.82413" lon="3.46608">
        <ele>160</ele>
        <time>2019-07-11T10:48:52Z</time>
      </trkpt>
      <trkpt lat="47.82446" lon="3.46607">
        <ele>157</ele>
        <time>2019-07-11T10:48:57Z</time>
      </trkpt>
      <trkpt lat="47.8246" lon="3.46616">
        <ele>157</ele>
        <time>2019-07-11T10:49:07Z</time>
      </trkpt>
      <trkpt lat="47.82483" lon="3.46636">
        <ele>159</ele>
        <time>2019-07-11T10:49:12Z</time>
      </trkpt>
      <trkpt lat="47.82498" lon="3.46642">
        <ele>159</ele>
        <time>2019-07-11T10:49:17Z</time>
      </trkpt>
      <trkpt lat="47.82503" lon="3.46645">
        <ele>159</ele>
        <time>2019-07-11T10:51:12Z</time>
      </trkpt>
      <trkpt lat="47.8251" lon="3.46649">
        <ele>158</ele>
        <time>2019-07-11T10:51:17Z</time>
      </trkpt>
      <trkpt lat="47.82541" lon="3.46669">
        <ele>157</ele>
        <time>2019-07-11T10:51:27Z</time>
      </trkpt>
      <trkpt lat="47.82547" lon="3.46674">
        <ele>157</ele>
        <time>2019-07-11T10:51:47Z</time>
      </trkpt>
      <trkpt lat="47.82564" lon="3.46687">
        <ele>156</ele>
        <time>2019-07-11T10:51:52Z</time>
      </trkpt>
      <trkpt lat="47.82569" lon="3.46692">
        <ele>156</ele>
        <time>2019-07-11T10:51:57Z</time>
      </trkpt>
      <trkpt lat="47.82583" lon="3.46701">
        <ele>156</ele>
        <time>2019-07-11T10:52:02Z</time>
      </trkpt>
      <trkpt lat="47.82608" lon="3.46717">
        <ele>156</ele>
        <time>2019-07-11T10:52:12Z</time>
      </trkpt>
      <trkpt lat="47.82613" lon="3.46722">
        <ele>156</ele>
        <time>2019-07-11T10:52:22Z</time>
      </trkpt>
      <trkpt lat="47.82612" lon="3.46732">
        <ele>154</ele>
        <time>2019-07-11T10:52:32Z</time>
      </trkpt>
      <trkpt lat="47.82606" lon="3.46753">
        <ele>155</ele>
        <time>2019-07-11T10:52:47Z</time>
      </trkpt>
      <trkpt lat="47.82604" lon="3.46765">
        <ele>155</ele>
        <time>2019-07-11T10:52:57Z</time>
      </trkpt>
      <trkpt lat="47.82601" lon="3.46786">
        <ele>155</ele>
        <time>2019-07-11T10:53:02Z</time>
      </trkpt>
      <trkpt lat="47.82598" lon="3.46795">
        <ele>155</ele>
        <time>2019-07-11T10:53:42Z</time>
      </trkpt>
      <trkpt lat="47.82595" lon="3.46817">
        <ele>155</ele>
        <time>2019-07-11T10:53:57Z</time>
      </trkpt>
      <trkpt lat="47.82594" lon="3.46827">
        <ele>155</ele>
        <time>2019-07-11T10:54:02Z</time>
      </trkpt>
      <trkpt lat="47.82586" lon="3.46867">
        <ele>156</ele>
        <time>2019-07-11T10:54:07Z</time>
      </trkpt>
      <trkpt lat="47.82578" lon="3.46897">
        <ele>155</ele>
        <time>2019-07-11T10:54:32Z</time>
      </trkpt>
      <trkpt lat="47.82572" lon="3.46918">
        <ele>155</ele>
        <time>2019-07-11T10:54:57Z</time>
      </trkpt>
      <trkpt lat="47.82563" lon="3.46946">
        <ele>154</ele>
        <time>2019-07-11T10:55:07Z</time>
      </trkpt>
      <trkpt lat="47.82534" lon="3.47033">
        <ele>149</ele>
        <time>2019-07-11T10:55:32Z</time>
      </trkpt>
      <trkpt lat="47.82531" lon="3.47043">
        <ele>149</ele>
        <time>2019-07-11T10:55:37Z</time>
      </trkpt>
      <trkpt lat="47.82525" lon="3.4706">
        <ele>148</ele>
        <time>2019-07-11T10:55:47Z</time>
      </trkpt>
      <trkpt lat="47.8252" lon="3.47067">
        <ele>148</ele>
        <time>2019-07-11T10:56:07Z</time>
      </trkpt>
      <trkpt lat="47.82516" lon="3.47079">
        <ele>147</ele>
        <time>2019-07-11T10:56:32Z</time>
      </trkpt>
      <trkpt lat="47.82507" lon="3.47098">
        <ele>147</ele>
        <time>2019-07-11T10:57:02Z</time>
      </trkpt>
      <trkpt lat="47.82504" lon="3.47107">
        <ele>147</ele>
        <time>2019-07-11T10:57:12Z</time>
      </trkpt>
      <trkpt lat="47.82484" lon="3.47168">
        <ele>145</ele>
        <time>2019-07-11T10:57:22Z</time>
      </trkpt>
      <trkpt lat="47.82481" lon="3.47176">
        <ele>145</ele>
        <time>2019-07-11T10:57:27Z</time>
      </trkpt>
      <trkpt lat="47.82468" lon="3.47203">
        <ele>145</ele>
        <time>2019-07-11T10:57:42Z</time>
      </trkpt>
      <trkpt lat="47.82466" lon="3.4721">
        <ele>146</ele>
        <time>2019-07-11T10:57:52Z</time>
      </trkpt>
      <trkpt lat="47.82462" lon="3.4722">
        <ele>146</ele>
        <time>2019-07-11T10:57:57Z</time>
      </trkpt>
      <trkpt lat="47.82452" lon="3.47251">
        <ele>146</ele>
        <time>2019-07-11T10:58:27Z</time>
      </trkpt>
      <trkpt lat="47.82444" lon="3.47277">
        <ele>147</ele>
        <time>2019-07-11T10:58:42Z</time>
      </trkpt>
      <trkpt lat="47.8244" lon="3.47288">
        <ele>147</ele>
        <time>2019-07-11T10:58:47Z</time>
      </trkpt>
      <trkpt lat="47.82433" lon="3.47326">
        <ele>148</ele>
        <time>2019-07-11T10:58:52Z</time>
      </trkpt>
      <trkpt lat="47.82431" lon="3.47334">
        <ele>148</ele>
        <time>2019-07-11T10:59:22Z</time>
      </trkpt>
      <trkpt lat="47.82429" lon="3.47342">
        <ele>148</ele>
        <time>2019-07-11T10:59:32Z</time>
      </trkpt>
      <trkpt lat="47.8243" lon="3.47351">
        <ele>148</ele>
        <time>2019-07-11T10:59:37Z</time>
      </trkpt>
      <trkpt lat="47.82428" lon="3.47362">
        <ele>148</ele>
        <time>2019-07-11T10:59:47Z</time>
      </trkpt>
      <trkpt lat="47.82427" lon="3.47374">
        <ele>148</ele>
        <time>2019-07-11T10:59:52Z</time>
      </trkpt>
      <trkpt lat="47.82423" lon="3.47394">
        <ele>148</ele>
        <time>2019-07-11T10:59:57Z</time>
      </trkpt>
      <trkpt lat="47.8242" lon="3.47424">
        <ele>149</ele>
        <time>2019-07-11T11:00:12Z</time>
      </trkpt>
      <trkpt lat="47.82419" lon="3.47433">
        <ele>150</ele>
        <time>2019-07-11T11:00:17Z</time>
      </trkpt>
      <trkpt lat="47.82418" lon="3.47452">
        <ele>150</ele>
        <time>2019-07-11T11:00:22Z</time>
      </trkpt>
      <trkpt lat="47.82418" lon="3.47463">
        <ele>151</ele>
        <time>2019-07-11T11:00:47Z</time>
      </trkpt>
      <trkpt lat="47.82417" lon="3.47476">
        <ele>151</ele>
        <time>2019-07-11T11:00:52Z</time>
      </trkpt>
      <trkpt lat="47.82416" lon="3.47527">
        <ele>152</ele>
        <time>2019-07-11T11:01:02Z</time>
      </trkpt>
      <trkpt lat="47.82421" lon="3.47639">
        <ele>149</ele>
        <time>2019-07-11T11:01:07Z</time>
      </trkpt>
      <trkpt lat="47.82422" lon="3.47689">
        <ele>146.3</ele>
        <time>2019-07-11T11:01:27Z</time>
      </trkpt>
      <trkpt lat="47.82426" lon="3.47726">
        <ele>149</ele>
        <time>2019-07-11T11:01:37Z</time>
      </trkpt>
      <trkpt lat="47.82426" lon="3.47737">
        <ele>148</ele>
        <time>2019-07-11T11:01:42Z</time>
      </trkpt>
      <trkpt lat="47.82426" lon="3.47758">
        <ele>148</ele>
        <time>2019-07-11T11:01:47Z</time>
      </trkpt>
      <trkpt lat="47.82428" lon="3.47804">
        <ele>147</ele>
        <time>2019-07-11T11:01:57Z</time>
      </trkpt>
      <trkpt lat="47.82429" lon="3.47815">
        <ele>146</ele>
        <time>2019-07-11T11:02:07Z</time>
      </trkpt>
      <trkpt lat="47.8243" lon="3.47825">
        <ele>146</ele>
        <time>2019-07-11T11:02:22Z</time>
      </trkpt>
      <trkpt lat="47.82431" lon="3.47837">
        <ele>146</ele>
        <time>2019-07-11T11:02:37Z</time>
      </trkpt>
      <trkpt lat="47.82431" lon="3.47859">
        <ele>146</ele>
        <time>2019-07-11T11:02:52Z</time>
      </trkpt>
      <trkpt lat="47.82433" lon="3.4788">
        <ele>145</ele>
        <time>2019-07-11T11:02:57Z</time>
      </trkpt>
      <trkpt lat="47.82435" lon="3.479">
        <ele>145</ele>
        <time>2019-07-11T11:03:07Z</time>
      </trkpt>
      <trkpt lat="47.82434" lon="3.47912">
        <ele>142.6</ele>
        <time>2019-07-11T11:03:22Z</time>
      </trkpt>
      <trkpt lat="47.82431" lon="3.47926">
        <ele>142</ele>
        <time>2019-07-11T11:03:42Z</time>
      </trkpt>
      <trkpt lat="47.82435" lon="3.47933">
        <ele>144</ele>
        <time>2019-07-11T11:03:52Z</time>
      </trkpt>
      <trkpt lat="47.82443" lon="3.4795">
        <ele>144</ele>
        <time>2019-07-11T11:03:57Z</time>
      </trkpt>
      <trkpt lat="47.82449" lon="3.47958">
        <ele>143</ele>
        <time>2019-07-11T11:04:07Z</time>
      </trkpt>
      <trkpt lat="47.82489" lon="3.48022">
        <ele>140</ele>
        <time>2019-07-11T11:04:12Z</time>
      </trkpt>
      <trkpt lat="47.82503" lon="3.48044">
        <ele>139</ele>
        <time>2019-07-11T11:04:22Z</time>
      </trkpt>
      <trkpt lat="47.82507" lon="3.48052">
        <ele>139</ele>
        <time>2019-07-11T11:04:27Z</time>
      </trkpt>
      <trkpt lat="47.82512" lon="3.48059">
        <ele>138</ele>
        <time>2019-07-11T11:04:32Z</time>
      </trkpt>
      <trkpt lat="47.82537" lon="3.48096">
        <ele>138</ele>
        <time>2019-07-11T11:04:42Z</time>
      </trkpt>
      <trkpt lat="47.8256" lon="3.48134">
        <ele>137</ele>
        <time>2019-07-11T11:04:57Z</time>
      </trkpt>
      <trkpt lat="47.8257" lon="3.48149">
        <ele>137</ele>
        <time>2019-07-11T11:05:07Z</time>
      </trkpt>
      <trkpt lat="47.82594" lon="3.48186">
        <ele>136</ele>
        <time>2019-07-11T11:05:17Z</time>
      </trkpt>
      <trkpt lat="47.82599" lon="3.48194">
        <ele>136</ele>
        <time>2019-07-11T11:05:22Z</time>
      </trkpt>
      <trkpt lat="47.8261" lon="3.48208">
        <ele>136</ele>
        <time>2019-07-11T11:05:52Z</time>
      </trkpt>
      <trkpt lat="47.8263" lon="3.48236">
        <ele>136</ele>
        <time>2019-07-11T11:06:02Z</time>
      </trkpt>
      <trkpt lat="47.82657" lon="3.48269">
        <ele>135</ele>
        <time>2019-07-11T11:06:22Z</time>
      </trkpt>
      <trkpt lat="47.82691" lon="3.48314">
        <ele>134</ele>
        <time>2019-07-11T11:06:27Z</time>
      </trkpt>
      <trkpt lat="47.82697" lon="3.48333">
        <ele>134</ele>
        <time>2019-07-11T11:06:37Z</time>
      </trkpt>
      <trkpt lat="47.82698" lon="3.48333">
        <ele>134</ele>
        <time>2019-07-11T11:06:47Z</time>
      </trkpt>
      <trkpt lat="47.82698" lon="3.48341">
        <ele>134</ele>
        <time>2019-07-11T11:07:12Z</time>
      </trkpt>
      <trkpt lat="47.82707" lon="3.48372">
        <ele>134</ele>
        <time>2019-07-11T11:07:22Z</time>
      </trkpt>
      <trkpt lat="47.8271" lon="3.48388">
        <ele>134</ele>
        <time>2019-07-11T11:07:47Z</time>
      </trkpt>
      <trkpt lat="47.82711" lon="3.48398">
        <ele>134</ele>
        <time>2019-07-11T11:07:52Z</time>
      </trkpt>
      <trkpt lat="47.82719" lon="3.48451">
        <ele>130.7</ele>
        <time>2019-07-11T11:08:07Z</time>
      </trkpt>
      <trkpt lat="47.82721" lon="3.48462">
        <ele>133</ele>
        <time>2019-07-11T11:08:12Z</time>
      </trkpt>
      <trkpt lat="47.82719" lon="3.48495">
        <ele>132</ele>
        <time>2019-07-11T11:08:17Z</time>
      </trkpt>
      <trkpt lat="47.82719" lon="3.48507">
        <ele>131</ele>
        <time>2019-07-11T11:08:27Z</time>
      </trkpt>
      <trkpt lat="47.8272" lon="3.48518">
        <ele>131</ele>
        <time>2019-07-11T11:08:37Z</time>
      </trkpt>
      <trkpt lat="47.82721" lon="3.48555">
        <ele>129</ele>
        <time>2019-07-11T11:08:42Z</time>
      </trkpt>
      <trkpt lat="47.82727" lon="3.48587">
        <ele>132</ele>
        <time>2019-07-11T11:08:52Z</time>
      </trkpt>
      <trkpt lat="47.82727" lon="3.48606">
        <ele>132</ele>
        <time>2019-07-11T11:09:02Z</time>
      </trkpt>
      <trkpt lat="47.82728" lon="3.48615">
        <ele>132</ele>
        <time>2019-07-11T11:09:07Z</time>
      </trkpt>
      <trkpt lat="47.82727" lon="3.48639">
        <ele>132</ele>
        <time>2019-07-11T11:09:12Z</time>
      </trkpt>
      <trkpt lat="47.82728" lon="3.4865">
        <ele>133</ele>
        <time>2019-07-11T11:09:17Z</time>
      </trkpt>
      <trkpt lat="47.8273" lon="3.48661">
        <ele>133</ele>
        <time>2019-07-11T11:09:32Z</time>
      </trkpt>
      <trkpt lat="47.82732" lon="3.48693">
        <ele>133</ele>
        <time>2019-07-11T11:09:37Z</time>
      </trkpt>
      <trkpt lat="47.82734" lon="3.48702">
        <ele>133</ele>
        <time>2019-07-11T11:09:42Z</time>
      </trkpt>
      <trkpt lat="47.82736" lon="3.48715">
        <ele>133</ele>
        <time>2019-07-11T11:09:57Z</time>
      </trkpt>
      <trkpt lat="47.82737" lon="3.48769">
        <ele>132</ele>
        <time>2019-07-11T11:10:02Z</time>
      </trkpt>
      <trkpt lat="47.82735" lon="3.48781">
        <ele>132</ele>
        <time>2019-07-11T11:10:12Z</time>
      </trkpt>
      <trkpt lat="47.82732" lon="3.48806">
        <ele>131</ele>
        <time>2019-07-11T11:10:22Z</time>
      </trkpt>
      <trkpt lat="47.82731" lon="3.48818">
        <ele>130</ele>
        <time>2019-07-11T11:10:32Z</time>
      </trkpt>
      <trkpt lat="47.82728" lon="3.48867">
        <ele>129</ele>
        <time>2019-07-11T11:10:42Z</time>
      </trkpt>
      <trkpt lat="47.82725" lon="3.48888">
        <ele>129</ele>
        <time>2019-07-11T11:10:52Z</time>
      </trkpt>
      <trkpt lat="47.82722" lon="3.48899">
        <ele>129</ele>
        <time>2019-07-11T11:11:07Z</time>
      </trkpt>
      <trkpt lat="47.82717" lon="3.48908">
        <ele>129</ele>
        <time>2019-07-11T11:11:42Z</time>
      </trkpt>
      <trkpt lat="47.82709" lon="3.48927">
        <ele>129</ele>
        <time>2019-07-11T11:12:02Z</time>
      </trkpt>
      <trkpt lat="47.82701" lon="3.48945">
        <ele>129</ele>
        <time>2019-07-11T11:12:12Z</time>
      </trkpt>
      <trkpt lat="47.82682" lon="3.4896">
        <ele>129</ele>
        <time>2019-07-11T11:12:42Z</time>
      </trkpt>
      <trkpt lat="47.82662" lon="3.48965">
        <ele>129</ele>
        <time>2019-07-11T11:12:57Z</time>
      </trkpt>
      <trkpt lat="47.82647" lon="3.48984">
        <ele>130</ele>
        <time>2019-07-11T11:13:42Z</time>
      </trkpt>
      <trkpt lat="47.82646" lon="3.48995">
        <ele>130</ele>
        <time>2019-07-11T11:13:52Z</time>
      </trkpt>
      <trkpt lat="47.82648" lon="3.49016">
        <ele>130</ele>
        <time>2019-07-11T11:14:07Z</time>
      </trkpt>
      <trkpt lat="47.82638" lon="3.49041">
        <ele>130</ele>
        <time>2019-07-11T11:18:12Z</time>
      </trkpt>
      <trkpt lat="47.82612" lon="3.49064">
        <ele>131</ele>
        <time>2019-07-11T11:18:22Z</time>
      </trkpt>
      <trkpt lat="47.826" lon="3.49078">
        <ele>131</ele>
        <time>2019-07-11T11:18:37Z</time>
      </trkpt>
      <trkpt lat="47.82595" lon="3.49085">
        <ele>132</ele>
        <time>2019-07-11T11:18:42Z</time>
      </trkpt>
      <trkpt lat="47.82585" lon="3.49101">
        <ele>132</ele>
        <time>2019-07-11T11:18:47Z</time>
      </trkpt>
      <trkpt lat="47.82579" lon="3.49109">
        <ele>132</ele>
        <time>2019-07-11T11:19:07Z</time>
      </trkpt>
      <trkpt lat="47.82567" lon="3.49122">
        <ele>132</ele>
        <time>2019-07-11T11:19:12Z</time>
      </trkpt>
      <trkpt lat="47.8256" lon="3.49126">
        <ele>131</ele>
        <time>2019-07-11T11:19:17Z</time>
      </trkpt>
      <trkpt lat="47.82554" lon="3.49131">
        <ele>131</ele>
        <time>2019-07-11T11:19:22Z</time>
      </trkpt>
      <trkpt lat="47.8254" lon="3.49139">
        <ele>130</ele>
        <time>2019-07-11T11:19:37Z</time>
      </trkpt>
      <trkpt lat="47.8252" lon="3.4915">
        <ele>129</ele>
        <time>2019-07-11T11:20:02Z</time>
      </trkpt>
      <trkpt lat="47.82507" lon="3.49157">
        <ele>129</ele>
        <time>2019-07-11T11:20:07Z</time>
      </trkpt>
      <trkpt lat="47.82496" lon="3.49161">
        <ele>128</ele>
        <time>2019-07-11T11:20:32Z</time>
      </trkpt>
      <trkpt lat="47.82489" lon="3.49161">
        <ele>128</ele>
        <time>2019-07-11T11:20:37Z</time>
      </trkpt>
      <trkpt lat="47.82477" lon="3.49158">
        <ele>125.7</ele>
        <time>2019-07-11T11:20:57Z</time>
      </trkpt>
      <trkpt lat="47.82469" lon="3.49164">
        <ele>126</ele>
        <time>2019-07-11T11:21:02Z</time>
      </trkpt>
      <trkpt lat="47.82463" lon="3.49174">
        <ele>125.5</ele>
        <time>2019-07-11T11:21:07Z</time>
      </trkpt>
      <trkpt lat="47.82472" lon="3.49199">
        <ele>128</ele>
        <time>2019-07-11T11:21:42Z</time>
      </trkpt>
      <trkpt lat="47.8248" lon="3.49216">
        <ele>127</ele>
        <time>2019-07-11T11:21:47Z</time>
      </trkpt>
      <trkpt lat="47.82496" lon="3.49252">
        <ele>127</ele>
        <time>2019-07-11T11:21:52Z</time>
      </trkpt>
      <trkpt lat="47.82501" lon="3.4926">
        <ele>127</ele>
        <time>2019-07-11T11:22:17Z</time>
      </trkpt>
      <trkpt lat="47.82507" lon="3.49277">
        <ele>127</ele>
        <time>2019-07-11T11:22:22Z</time>
      </trkpt>
      <trkpt lat="47.82511" lon="3.49298">
        <ele>126</ele>
        <time>2019-07-11T11:22:27Z</time>
      </trkpt>
      <trkpt lat="47.82482" lon="3.49327">
        <ele>127</ele>
        <time>2019-07-11T11:22:52Z</time>
      </trkpt>
      <trkpt lat="47.82472" lon="3.49336">
        <ele>126</ele>
        <time>2019-07-11T11:22:57Z</time>
      </trkpt>
      <trkpt lat="47.82445" lon="3.49369">
        <ele>126</ele>
        <time>2019-07-11T11:23:07Z</time>
      </trkpt>
      <trkpt lat="47.82441" lon="3.49375">
        <ele>126</ele>
        <time>2019-07-11T11:23:37Z</time>
      </trkpt>
      <trkpt lat="47.82429" lon="3.49396">
        <ele>126</ele>
        <time>2019-07-11T11:23:42Z</time>
      </trkpt>
      <trkpt lat="47.82425" lon="3.49404">
        <ele>126</ele>
        <time>2019-07-11T11:23:57Z</time>
      </trkpt>
      <trkpt lat="47.8242" lon="3.49415">
        <ele>126</ele>
        <time>2019-07-11T11:24:12Z</time>
      </trkpt>
      <trkpt lat="47.82411" lon="3.49432">
        <ele>126</ele>
        <time>2019-07-11T11:24:22Z</time>
      </trkpt>
      <trkpt lat="47.82401" lon="3.49446">
        <ele>126</ele>
        <time>2019-07-11T11:24:27Z</time>
      </trkpt>
      <trkpt lat="47.82396" lon="3.49452">
        <ele>126</ele>
        <time>2019-07-11T11:24:32Z</time>
      </trkpt>
      <trkpt lat="47.82384" lon="3.49465">
        <ele>126</ele>
        <time>2019-07-11T11:24:37Z</time>
      </trkpt>
      <trkpt lat="47.82373" lon="3.49476">
        <ele>126</ele>
        <time>2019-07-11T11:24:42Z</time>
      </trkpt>
      <trkpt lat="47.82367" lon="3.49482">
        <ele>126</ele>
        <time>2019-07-11T11:24:47Z</time>
      </trkpt>
      <trkpt lat="47.82361" lon="3.49489">
        <ele>126</ele>
        <time>2019-07-11T11:24:57Z</time>
      </trkpt>
      <trkpt lat="47.82355" lon="3.49495">
        <ele>126</ele>
        <time>2019-07-11T11:25:02Z</time>
      </trkpt>
      <trkpt lat="47.82339" lon="3.49514">
        <ele>126</ele>
        <time>2019-07-11T11:25:07Z</time>
      </trkpt>
      <trkpt lat="47.82334" lon="3.49519">
        <ele>126</ele>
        <time>2019-07-11T11:25:32Z</time>
      </trkpt>
      <trkpt lat="47.82328" lon="3.49525">
        <ele>126</ele>
        <time>2019-07-11T11:25:37Z</time>
      </trkpt>
      <trkpt lat="47.82312" lon="3.49544">
        <ele>126</ele>
        <time>2019-07-11T11:25:47Z</time>
      </trkpt>
      <trkpt lat="47.82307" lon="3.49551">
        <ele>126</ele>
        <time>2019-07-11T11:26:02Z</time>
      </trkpt>
      <trkpt lat="47.82294" lon="3.4956">
        <ele>126</ele>
        <time>2019-07-11T11:26:22Z</time>
      </trkpt>
      <trkpt lat="47.82285" lon="3.49566">
        <ele>126</ele>
        <time>2019-07-11T11:26:27Z</time>
      </trkpt>
      <trkpt lat="47.82275" lon="3.49563">
        <ele>126</ele>
        <time>2019-07-11T11:26:42Z</time>
      </trkpt>
      <trkpt lat="47.82263" lon="3.49568">
        <ele>127</ele>
        <time>2019-07-11T11:26:47Z</time>
      </trkpt>
      <trkpt lat="47.82246" lon="3.49571">
        <ele>127</ele>
        <time>2019-07-11T11:27:02Z</time>
      </trkpt>
      <trkpt lat="47.82223" lon="3.49579">
        <ele>127</ele>
        <time>2019-07-11T11:27:27Z</time>
      </trkpt>
      <trkpt lat="47.82212" lon="3.49577">
        <ele>124.1</ele>
        <time>2019-07-11T11:27:37Z</time>
      </trkpt>
      <trkpt lat="47.82197" lon="3.49579">
        <ele>123.8</ele>
        <time>2019-07-11T11:27:42Z</time>
      </trkpt>
      <trkpt lat="47.82185" lon="3.49602">
        <ele>123.5</ele>
        <time>2019-07-11T11:27:57Z</time>
      </trkpt>
      <trkpt lat="47.82179" lon="3.49608">
        <ele>126</ele>
        <time>2019-07-11T11:28:02Z</time>
      </trkpt>
      <trkpt lat="47.82156" lon="3.49634">
        <ele>125</ele>
        <time>2019-07-11T11:28:12Z</time>
      </trkpt>
      <trkpt lat="47.82144" lon="3.49647">
        <ele>125</ele>
        <time>2019-07-11T11:28:17Z</time>
      </trkpt>
      <trkpt lat="47.82107" lon="3.49677">
        <ele>124</ele>
        <time>2019-07-11T11:28:22Z</time>
      </trkpt>
      <trkpt lat="47.82088" lon="3.49695">
        <ele>123</ele>
        <time>2019-07-11T11:28:27Z</time>
      </trkpt>
      <trkpt lat="47.82085" lon="3.49704">
        <ele>121</ele>
        <time>2019-07-11T11:28:32Z</time>
      </trkpt>
      <trkpt lat="47.82081" lon="3.49713">
        <ele>119.9</ele>
        <time>2019-07-11T11:28:57Z</time>
      </trkpt>
      <trkpt lat="47.82084" lon="3.49726">
        <ele>120</ele>
        <time>2019-07-11T11:29:02Z</time>
      </trkpt>
      <trkpt lat="47.82089" lon="3.49745">
        <ele>120</ele>
        <time>2019-07-11T11:29:22Z</time>
      </trkpt>
      <trkpt lat="47.82099" lon="3.49776">
        <ele>121.9</ele>
        <time>2019-07-11T11:29:27Z</time>
      </trkpt>
      <trkpt lat="47.82104" lon="3.49785">
        <ele>124</ele>
        <time>2019-07-11T11:29:42Z</time>
      </trkpt>
      <trkpt lat="47.82109" lon="3.49805">
        <ele>124</ele>
        <time>2019-07-11T11:30:02Z</time>
      </trkpt>
      <trkpt lat="47.82114" lon="3.49824">
        <ele>125</ele>
        <time>2019-07-11T11:30:12Z</time>
      </trkpt>
      <trkpt lat="47.82121" lon="3.49847">
        <ele>126.9</ele>
        <time>2019-07-11T11:30:22Z</time>
      </trkpt>
      <trkpt lat="47.82127" lon="3.49875">
        <ele>127.5</ele>
        <time>2019-07-11T11:30:27Z</time>
      </trkpt>
      <trkpt lat="47.82131" lon="3.49892">
        <ele>128</ele>
        <time>2019-07-11T11:30:42Z</time>
      </trkpt>
      <trkpt lat="47.82124" lon="3.49909">
        <ele>128.2</ele>
        <time>2019-07-11T11:31:02Z</time>
      </trkpt>
      <trkpt lat="47.82113" lon="3.49929">
        <ele>130.8</ele>
        <time>2019-07-11T11:31:07Z</time>
      </trkpt>
      <trkpt lat="47.82105" lon="3.49938">
        <ele>131</ele>
        <time>2019-07-11T11:31:37Z</time>
      </trkpt>
      <trkpt lat="47.82098" lon="3.49953">
        <ele>131.2</ele>
        <time>2019-07-11T11:31:52Z</time>
      </trkpt>
      <trkpt lat="47.82092" lon="3.49965">
        <ele>131.5</ele>
        <time>2019-07-11T11:32:02Z</time>
      </trkpt>
      <trkpt lat="47.82083" lon="3.49977">
        <ele>130</ele>
        <time>2019-07-11T11:32:52Z</time>
      </trkpt>
      <trkpt lat="47.82073" lon="3.49994">
        <ele>130.7</ele>
        <time>2019-07-11T11:32:57Z</time>
      </trkpt>
      <trkpt lat="47.82064" lon="3.50009">
        <ele>131.8</ele>
        <time>2019-07-11T11:33:17Z</time>
      </trkpt>
      <trkpt lat="47.82053" lon="3.5002">
        <ele>131.7</ele>
        <time>2019-07-11T11:33:42Z</time>
      </trkpt>
      <trkpt lat="47.82044" lon="3.50033">
        <ele>131.6</ele>
        <time>2019-07-11T11:33:47Z</time>
      </trkpt>
      <trkpt lat="47.82037" lon="3.50045">
        <ele>131.7</ele>
        <time>2019-07-11T11:33:52Z</time>
      </trkpt>
      <trkpt lat="47.8203" lon="3.50051">
        <ele>132</ele>
        <time>2019-07-11T11:33:57Z</time>
      </trkpt>
      <trkpt lat="47.82023" lon="3.50061">
        <ele>131.4</ele>
        <time>2019-07-11T11:34:22Z</time>
      </trkpt>
      <trkpt lat="47.82013" lon="3.50074">
        <ele>130.9</ele>
        <time>2019-07-11T11:34:42Z</time>
      </trkpt>
      <trkpt lat="47.82008" lon="3.50089">
        <ele>131.5</ele>
        <time>2019-07-11T11:34:52Z</time>
      </trkpt>
      <trkpt lat="47.81998" lon="3.50101">
        <ele>128.9</ele>
        <time>2019-07-11T11:34:57Z</time>
      </trkpt>
      <trkpt lat="47.81987" lon="3.50124">
        <ele>128.5</ele>
        <time>2019-07-11T11:35:02Z</time>
      </trkpt>
      <trkpt lat="47.81975" lon="3.50142">
        <ele>128.5</ele>
        <time>2019-07-11T11:35:12Z</time>
      </trkpt>
      <trkpt lat="47.81951" lon="3.50183">
        <ele>128.3</ele>
        <time>2019-07-11T11:35:22Z</time>
      </trkpt>
      <trkpt lat="47.81947" lon="3.50196">
        <ele>128.2</ele>
        <time>2019-07-11T11:35:27Z</time>
      </trkpt>
      <trkpt lat="47.81939" lon="3.50217">
        <ele>128</ele>
        <time>2019-07-11T11:35:32Z</time>
      </trkpt>
      <trkpt lat="47.81934" lon="3.50238">
        <ele>127</ele>
        <time>2019-07-11T11:35:37Z</time>
      </trkpt>
      <trkpt lat="47.81927" lon="3.50258">
        <ele>126</ele>
        <time>2019-07-11T11:36:02Z</time>
      </trkpt>
      <trkpt lat="47.81918" lon="3.50271">
        <ele>125</ele>
        <time>2019-07-11T11:36:07Z</time>
      </trkpt>
      <trkpt lat="47.81906" lon="3.50293">
        <ele>124</ele>
        <time>2019-07-11T11:36:27Z</time>
      </trkpt>
      <trkpt lat="47.81902" lon="3.503">
        <ele>124</ele>
        <time>2019-07-11T11:36:47Z</time>
      </trkpt>
      <trkpt lat="47.81896" lon="3.50307">
        <ele>124</ele>
        <time>2019-07-11T11:36:57Z</time>
      </trkpt>
      <trkpt lat="47.81869" lon="3.50326">
        <ele>123</ele>
        <time>2019-07-11T11:37:27Z</time>
      </trkpt>
      <trkpt lat="47.81862" lon="3.50332">
        <ele>122</ele>
        <time>2019-07-11T11:37:32Z</time>
      </trkpt>
      <trkpt lat="47.81855" lon="3.50339">
        <ele>122</ele>
        <time>2019-07-11T11:37:42Z</time>
      </trkpt>
      <trkpt lat="47.81848" lon="3.50345">
        <ele>122</ele>
        <time>2019-07-11T11:37:47Z</time>
      </trkpt>
      <trkpt lat="47.81825" lon="3.50354">
        <ele>122</ele>
        <time>2019-07-11T11:37:57Z</time>
      </trkpt>
      <trkpt lat="47.81791" lon="3.50372">
        <ele>124</ele>
        <time>2019-07-11T11:38:12Z</time>
      </trkpt>
      <trkpt lat="47.81785" lon="3.50374">
        <ele>124</ele>
        <time>2019-07-11T11:38:22Z</time>
      </trkpt>
      <trkpt lat="47.81759" lon="3.50382">
        <ele>126</ele>
        <time>2019-07-11T11:38:42Z</time>
      </trkpt>
      <trkpt lat="47.81753" lon="3.50385">
        <ele>126</ele>
        <time>2019-07-11T11:38:47Z</time>
      </trkpt>
      <trkpt lat="47.81726" lon="3.50396">
        <ele>128</ele>
        <time>2019-07-11T11:38:57Z</time>
      </trkpt>
      <trkpt lat="47.81721" lon="3.50395">
        <ele>127</ele>
        <time>2019-07-11T11:39:07Z</time>
      </trkpt>
      <trkpt lat="47.81715" lon="3.50391">
        <ele>128</ele>
        <time>2019-07-11T11:39:12Z</time>
      </trkpt>
      <trkpt lat="47.81675" lon="3.50397">
        <ele>130</ele>
        <time>2019-07-11T11:39:32Z</time>
      </trkpt>
      <trkpt lat="47.81669" lon="3.50406">
        <ele>131</ele>
        <time>2019-07-11T11:39:42Z</time>
      </trkpt>
      <trkpt lat="47.81665" lon="3.50416">
        <ele>132</ele>
        <time>2019-07-11T11:39:47Z</time>
      </trkpt>
      <trkpt lat="47.81644" lon="3.50449">
        <ele>134</ele>
        <time>2019-07-11T11:39:52Z</time>
      </trkpt>
      <trkpt lat="47.8164" lon="3.50455">
        <ele>134</ele>
        <time>2019-07-11T11:39:57Z</time>
      </trkpt>
      <trkpt lat="47.81635" lon="3.50461">
        <ele>135</ele>
        <time>2019-07-11T11:40:02Z</time>
      </trkpt>
      <trkpt lat="47.81612" lon="3.50485">
        <ele>137</ele>
        <time>2019-07-11T11:40:27Z</time>
      </trkpt>
      <trkpt lat="47.81607" lon="3.50492">
        <ele>137</ele>
        <time>2019-07-11T11:40:52Z</time>
      </trkpt>
      <trkpt lat="47.81598" lon="3.50506">
        <ele>138</ele>
        <time>2019-07-11T11:40:57Z</time>
      </trkpt>
      <trkpt lat="47.81569" lon="3.50545">
        <ele>143</ele>
        <time>2019-07-11T11:41:17Z</time>
      </trkpt>
      <trkpt lat="47.81564" lon="3.50551">
        <ele>143</ele>
        <time>2019-07-11T11:41:22Z</time>
      </trkpt>
      <trkpt lat="47.81549" lon="3.5057">
        <ele>145</ele>
        <time>2019-07-11T11:41:47Z</time>
      </trkpt>
      <trkpt lat="47.81543" lon="3.50595">
        <ele>146</ele>
        <time>2019-07-11T11:41:52Z</time>
      </trkpt>
      <trkpt lat="47.8154" lon="3.50613">
        <ele>147</ele>
        <time>2019-07-11T11:41:57Z</time>
      </trkpt>
      <trkpt lat="47.81539" lon="3.50623">
        <ele>148</ele>
        <time>2019-07-11T11:42:07Z</time>
      </trkpt>
      <trkpt lat="47.81539" lon="3.50632">
        <ele>148</ele>
        <time>2019-07-11T11:42:17Z</time>
      </trkpt>
      <trkpt lat="47.81537" lon="3.50641">
        <ele>148</ele>
        <time>2019-07-11T11:42:22Z</time>
      </trkpt>
      <trkpt lat="47.81535" lon="3.50651">
        <ele>148</ele>
        <time>2019-07-11T11:42:27Z</time>
      </trkpt>
      <trkpt lat="47.81535" lon="3.5066">
        <ele>149</ele>
        <time>2019-07-11T11:42:32Z</time>
      </trkpt>
      <trkpt lat="47.81532" lon="3.50679">
        <ele>151</ele>
        <time>2019-07-11T11:42:42Z</time>
      </trkpt>
      <trkpt lat="47.8153" lon="3.50688">
        <ele>152</ele>
        <time>2019-07-11T11:42:52Z</time>
      </trkpt>
      <trkpt lat="47.81528" lon="3.50697">
        <ele>152</ele>
        <time>2019-07-11T11:43:12Z</time>
      </trkpt>
      <trkpt lat="47.81523" lon="3.50741">
        <ele>153</ele>
        <time>2019-07-11T11:43:37Z</time>
      </trkpt>
      <trkpt lat="47.81522" lon="3.5075">
        <ele>154</ele>
        <time>2019-07-11T11:43:47Z</time>
      </trkpt>
      <trkpt lat="47.81521" lon="3.50769">
        <ele>155</ele>
        <time>2019-07-11T11:44:42Z</time>
      </trkpt>
      <trkpt lat="47.81517" lon="3.50794">
        <ele>156</ele>
        <time>2019-07-11T11:44:52Z</time>
      </trkpt>
      <trkpt lat="47.8151" lon="3.50833">
        <ele>158</ele>
        <time>2019-07-11T11:45:12Z</time>
      </trkpt>
      <trkpt lat="47.81507" lon="3.50841">
        <ele>158</ele>
        <time>2019-07-11T11:45:27Z</time>
      </trkpt>
      <trkpt lat="47.81496" lon="3.50868">
        <ele>159</ele>
        <time>2019-07-11T11:45:47Z</time>
      </trkpt>
      <trkpt lat="47.81492" lon="3.50877">
        <ele>159</ele>
        <time>2019-07-11T11:45:52Z</time>
      </trkpt>
      <trkpt lat="47.81477" lon="3.50901">
        <ele>160</ele>
        <time>2019-07-11T11:46:02Z</time>
      </trkpt>
      <trkpt lat="47.81459" lon="3.50948">
        <ele>161</ele>
        <time>2019-07-11T11:46:12Z</time>
      </trkpt>
      <trkpt lat="47.8145" lon="3.50969">
        <ele>161</ele>
        <time>2019-07-11T11:46:52Z</time>
      </trkpt>
      <trkpt lat="47.81445" lon="3.50977">
        <ele>161</ele>
        <time>2019-07-11T11:47:07Z</time>
      </trkpt>
      <trkpt lat="47.81434" lon="3.51002">
        <ele>160</ele>
        <time>2019-07-11T11:47:32Z</time>
      </trkpt>
      <trkpt lat="47.81429" lon="3.51011">
        <ele>161</ele>
        <time>2019-07-11T11:47:37Z</time>
      </trkpt>
      <trkpt lat="47.81419" lon="3.51028">
        <ele>160</ele>
        <time>2019-07-11T11:47:47Z</time>
      </trkpt>
      <trkpt lat="47.81416" lon="3.51036">
        <ele>161</ele>
        <time>2019-07-11T11:47:52Z</time>
      </trkpt>
      <trkpt lat="47.81412" lon="3.51048">
        <ele>160</ele>
        <time>2019-07-11T11:48:07Z</time>
      </trkpt>
      <trkpt lat="47.81408" lon="3.51057">
        <ele>160</ele>
        <time>2019-07-11T11:48:27Z</time>
      </trkpt>
      <trkpt lat="47.81405" lon="3.51066">
        <ele>160</ele>
        <time>2019-07-11T11:48:37Z</time>
      </trkpt>
      <trkpt lat="47.81391" lon="3.51112">
        <ele>160</ele>
        <time>2019-07-11T11:48:42Z</time>
      </trkpt>
      <trkpt lat="47.81388" lon="3.51121">
        <ele>159</ele>
        <time>2019-07-11T11:48:52Z</time>
      </trkpt>
      <trkpt lat="47.81376" lon="3.51164">
        <ele>158</ele>
        <time>2019-07-11T11:49:02Z</time>
      </trkpt>
      <trkpt lat="47.81371" lon="3.51175">
        <ele>157</ele>
        <time>2019-07-11T11:49:37Z</time>
      </trkpt>
      <trkpt lat="47.81364" lon="3.51204">
        <ele>155</ele>
        <time>2019-07-11T11:49:47Z</time>
      </trkpt>
      <trkpt lat="47.81352" lon="3.51243">
        <ele>154</ele>
        <time>2019-07-11T11:50:02Z</time>
      </trkpt>
      <trkpt lat="47.81345" lon="3.51265">
        <ele>153</ele>
        <time>2019-07-11T11:50:07Z</time>
      </trkpt>
      <trkpt lat="47.8134" lon="3.51285">
        <ele>153</ele>
        <time>2019-07-11T11:50:57Z</time>
      </trkpt>
      <trkpt lat="47.81336" lon="3.51295">
        <ele>152</ele>
        <time>2019-07-11T11:51:02Z</time>
      </trkpt>
      <trkpt lat="47.81325" lon="3.51326">
        <ele>150</ele>
        <time>2019-07-11T11:51:22Z</time>
      </trkpt>
      <trkpt lat="47.81316" lon="3.51368">
        <ele>149</ele>
        <time>2019-07-11T11:51:27Z</time>
      </trkpt>
      <trkpt lat="47.81313" lon="3.51377">
        <ele>148</ele>
        <time>2019-07-11T11:51:32Z</time>
      </trkpt>
      <trkpt lat="47.81291" lon="3.51434">
        <ele>145</ele>
        <time>2019-07-11T11:51:52Z</time>
      </trkpt>
      <trkpt lat="47.81279" lon="3.51461">
        <ele>142</ele>
        <time>2019-07-11T11:51:57Z</time>
      </trkpt>
      <trkpt lat="47.81273" lon="3.51478">
        <ele>142</ele>
        <time>2019-07-11T11:52:12Z</time>
      </trkpt>
      <trkpt lat="47.81267" lon="3.51496">
        <ele>141</ele>
        <time>2019-07-11T11:52:22Z</time>
      </trkpt>
      <trkpt lat="47.81257" lon="3.5151">
        <ele>139</ele>
        <time>2019-07-11T11:52:27Z</time>
      </trkpt>
      <trkpt lat="47.81239" lon="3.51529">
        <ele>135</ele>
        <time>2019-07-11T11:52:42Z</time>
      </trkpt>
      <trkpt lat="47.81217" lon="3.51548">
        <ele>138</ele>
        <time>2019-07-11T11:52:47Z</time>
      </trkpt>
      <trkpt lat="47.81211" lon="3.51555">
        <ele>138</ele>
        <time>2019-07-11T11:52:52Z</time>
      </trkpt>
      <trkpt lat="47.81204" lon="3.51569">
        <ele>133</ele>
        <time>2019-07-11T11:52:57Z</time>
      </trkpt>
      <trkpt lat="47.81198" lon="3.51584">
        <ele>136</ele>
        <time>2019-07-11T11:53:02Z</time>
      </trkpt>
      <trkpt lat="47.81176" lon="3.51629">
        <ele>132</ele>
        <time>2019-07-11T11:53:17Z</time>
      </trkpt>
      <trkpt lat="47.81171" lon="3.51641">
        <ele>131</ele>
        <time>2019-07-11T11:53:27Z</time>
      </trkpt>
      <trkpt lat="47.81167" lon="3.51649">
        <ele>130</ele>
        <time>2019-07-11T11:53:47Z</time>
      </trkpt>
      <trkpt lat="47.81164" lon="3.51657">
        <ele>129</ele>
        <time>2019-07-11T11:53:57Z</time>
      </trkpt>
      <trkpt lat="47.81141" lon="3.51697">
        <ele>125</ele>
        <time>2019-07-11T11:54:07Z</time>
      </trkpt>
      <trkpt lat="47.81124" lon="3.51732">
        <ele>122</ele>
        <time>2019-07-11T11:54:27Z</time>
      </trkpt>
      <trkpt lat="47.81115" lon="3.51749">
        <ele>120</ele>
        <time>2019-07-11T11:54:37Z</time>
      </trkpt>
      <trkpt lat="47.81112" lon="3.51757">
        <ele>119</ele>
        <time>2019-07-11T11:54:42Z</time>
      </trkpt>
      <trkpt lat="47.81107" lon="3.51765">
        <ele>119</ele>
        <time>2019-07-11T11:54:57Z</time>
      </trkpt>
      <trkpt lat="47.81099" lon="3.51783">
        <ele>118</ele>
        <time>2019-07-11T11:55:12Z</time>
      </trkpt>
      <trkpt lat="47.81092" lon="3.51796">
        <ele>117</ele>
        <time>2019-07-11T11:55:32Z</time>
      </trkpt>
      <trkpt lat="47.81087" lon="3.51804">
        <ele>117</ele>
        <time>2019-07-11T11:55:37Z</time>
      </trkpt>
      <trkpt lat="47.81083" lon="3.51812">
        <ele>116</ele>
        <time>2019-07-11T11:55:57Z</time>
      </trkpt>
      <trkpt lat="47.81079" lon="3.51822">
        <ele>116</ele>
        <time>2019-07-11T11:56:02Z</time>
      </trkpt>
      <trkpt lat="47.81056" lon="3.51871">
        <ele>115</ele>
        <time>2019-07-11T11:56:07Z</time>
      </trkpt>
      <trkpt lat="47.8105" lon="3.51879">
        <ele>115</ele>
        <time>2019-07-11T11:56:17Z</time>
      </trkpt>
      <trkpt lat="47.81035" lon="3.51911">
        <ele>114</ele>
        <time>2019-07-11T11:56:22Z</time>
      </trkpt>
      <trkpt lat="47.81016" lon="3.51947">
        <ele>114</ele>
        <time>2019-07-11T11:56:27Z</time>
      </trkpt>
      <trkpt lat="47.8101" lon="3.51964">
        <ele>114</ele>
        <time>2019-07-11T11:56:37Z</time>
      </trkpt>
      <trkpt lat="47.80989" lon="3.52023">
        <ele>113</ele>
        <time>2019-07-11T11:56:42Z</time>
      </trkpt>
      <trkpt lat="47.80986" lon="3.52033">
        <ele>113</ele>
        <time>2019-07-11T11:56:52Z</time>
      </trkpt>
      <trkpt lat="47.80981" lon="3.52052">
        <ele>113</ele>
        <time>2019-07-11T11:57:02Z</time>
      </trkpt>
      <trkpt lat="47.80979" lon="3.52059">
        <ele>113</ele>
        <time>2019-07-11T11:57:22Z</time>
      </trkpt>
      <trkpt lat="47.80971" lon="3.52079">
        <ele>114</ele>
        <time>2019-07-11T11:57:32Z</time>
      </trkpt>
      <trkpt lat="47.80961" lon="3.52104">
        <ele>114</ele>
        <time>2019-07-11T11:57:42Z</time>
      </trkpt>
      <trkpt lat="47.80954" lon="3.52124">
        <ele>115</ele>
        <time>2019-07-11T11:57:47Z</time>
      </trkpt>
      <trkpt lat="47.80941" lon="3.52158">
        <ele>114</ele>
        <time>2019-07-11T11:57:52Z</time>
      </trkpt>
      <trkpt lat="47.80938" lon="3.5217">
        <ele>114</ele>
        <time>2019-07-11T11:58:02Z</time>
      </trkpt>
      <trkpt lat="47.80932" lon="3.52187">
        <ele>114</ele>
        <time>2019-07-11T11:58:12Z</time>
      </trkpt>
      <trkpt lat="47.80926" lon="3.52205">
        <ele>114</ele>
        <time>2019-07-11T11:58:52Z</time>
      </trkpt>
      <trkpt lat="47.80924" lon="3.52216">
        <ele>114</ele>
        <time>2019-07-11T11:59:02Z</time>
      </trkpt>
      <trkpt lat="47.80913" lon="3.52248">
        <ele>115</ele>
        <time>2019-07-11T12:02:02Z</time>
      </trkpt>
      <trkpt lat="47.80907" lon="3.52265">
        <ele>116</ele>
        <time>2019-07-11T12:02:07Z</time>
      </trkpt>
      <trkpt lat="47.80905" lon="3.52273">
        <ele>116</ele>
        <time>2019-07-11T12:02:32Z</time>
      </trkpt>
      <trkpt lat="47.80902" lon="3.52282">
        <ele>116</ele>
        <time>2019-07-11T12:05:07Z</time>
      </trkpt>
      <trkpt lat="47.809" lon="3.52289">
        <ele>117</ele>
        <time>2019-07-11T12:05:17Z</time>
      </trkpt>
      <trkpt lat="47.80896" lon="3.52298">
        <ele>117</ele>
        <time>2019-07-11T12:05:22Z</time>
      </trkpt>
      <trkpt lat="47.80881" lon="3.52346">
        <ele>120</ele>
        <time>2019-07-11T12:05:27Z</time>
      </trkpt>
      <trkpt lat="47.80868" lon="3.5239">
        <ele>122</ele>
        <time>2019-07-11T12:05:37Z</time>
      </trkpt>
      <trkpt lat="47.80865" lon="3.52399">
        <ele>122</ele>
        <time>2019-07-11T12:05:42Z</time>
      </trkpt>
      <trkpt lat="47.80854" lon="3.52435">
        <ele>123</ele>
        <time>2019-07-11T12:05:52Z</time>
      </trkpt>
      <trkpt lat="47.80852" lon="3.52443">
        <ele>124</ele>
        <time>2019-07-11T12:05:57Z</time>
      </trkpt>
      <trkpt lat="47.80835" lon="3.5249">
        <ele>126</ele>
        <time>2019-07-11T12:06:02Z</time>
      </trkpt>
      <trkpt lat="47.80832" lon="3.52499">
        <ele>126</ele>
        <time>2019-07-11T12:06:07Z</time>
      </trkpt>
      <trkpt lat="47.80829" lon="3.52508">
        <ele>127</ele>
        <time>2019-07-11T12:06:12Z</time>
      </trkpt>
      <trkpt lat="47.80823" lon="3.52524">
        <ele>127</ele>
        <time>2019-07-11T12:06:17Z</time>
      </trkpt>
      <trkpt lat="47.80817" lon="3.52545">
        <ele>129</ele>
        <time>2019-07-11T12:06:32Z</time>
      </trkpt>
      <trkpt lat="47.80814" lon="3.52552">
        <ele>129</ele>
        <time>2019-07-11T12:06:37Z</time>
      </trkpt>
      <trkpt lat="47.8081" lon="3.52562">
        <ele>130</ele>
        <time>2019-07-11T12:06:42Z</time>
      </trkpt>
      <trkpt lat="47.80808" lon="3.52569">
        <ele>130</ele>
        <time>2019-07-11T12:06:47Z</time>
      </trkpt>
      <trkpt lat="47.80803" lon="3.52587">
        <ele>131</ele>
        <time>2019-07-11T12:06:52Z</time>
      </trkpt>
      <trkpt lat="47.80797" lon="3.52605">
        <ele>132</ele>
        <time>2019-07-11T12:07:02Z</time>
      </trkpt>
      <trkpt lat="47.80776" lon="3.52632">
        <ele>134</ele>
        <time>2019-07-11T12:07:07Z</time>
      </trkpt>
      <trkpt lat="47.80764" lon="3.52657">
        <ele>132</ele>
        <time>2019-07-11T12:07:12Z</time>
      </trkpt>
      <trkpt lat="47.80756" lon="3.5267">
        <ele>136</ele>
        <time>2019-07-11T12:07:22Z</time>
      </trkpt>
      <trkpt lat="47.8075" lon="3.52686">
        <ele>136</ele>
        <time>2019-07-11T12:07:32Z</time>
      </trkpt>
      <trkpt lat="47.80742" lon="3.52719">
        <ele>136.9</ele>
        <time>2019-07-11T12:09:27Z</time>
      </trkpt>
      <trkpt lat="47.8074" lon="3.52737">
        <ele>137.5</ele>
        <time>2019-07-11T12:09:47Z</time>
      </trkpt>
      <trkpt lat="47.80744" lon="3.52767">
        <ele>139</ele>
        <time>2019-07-11T12:10:08Z</time>
      </trkpt>
      <trkpt lat="47.80748" lon="3.52792">
        <ele>141</ele>
        <time>2019-07-11T12:10:13Z</time>
      </trkpt>
      <trkpt lat="47.80746" lon="3.52811">
        <ele>141</ele>
        <time>2019-07-11T12:10:18Z</time>
      </trkpt>
      <trkpt lat="47.80738" lon="3.52854">
        <ele>143</ele>
        <time>2019-07-11T12:10:53Z</time>
      </trkpt>
      <trkpt lat="47.80735" lon="3.52882">
        <ele>144</ele>
        <time>2019-07-11T12:10:58Z</time>
      </trkpt>
      <trkpt lat="47.80727" lon="3.52921">
        <ele>146</ele>
        <time>2019-07-11T12:11:33Z</time>
      </trkpt>
      <trkpt lat="47.80725" lon="3.52933">
        <ele>146</ele>
        <time>2019-07-11T12:11:38Z</time>
      </trkpt>
      <trkpt lat="47.80723" lon="3.52951">
        <ele>147</ele>
        <time>2019-07-11T12:11:48Z</time>
      </trkpt>
      <trkpt lat="47.80719" lon="3.52973">
        <ele>149</ele>
        <time>2019-07-11T12:11:53Z</time>
      </trkpt>
      <trkpt lat="47.80706" lon="3.53003">
        <ele>148</ele>
        <time>2019-07-11T12:12:50Z</time>
      </trkpt>
      <trkpt lat="47.80686" lon="3.53041">
        <ele>153</ele>
        <time>2019-07-11T12:12:55Z</time>
      </trkpt>
      <trkpt lat="47.80672" lon="3.53066">
        <ele>154</ele>
        <time>2019-07-11T12:13:10Z</time>
      </trkpt>
      <trkpt lat="47.80668" lon="3.53101">
        <ele>156</ele>
        <time>2019-07-11T12:13:45Z</time>
      </trkpt>
      <trkpt lat="47.80672" lon="3.53109">
        <ele>156</ele>
        <time>2019-07-11T12:14:05Z</time>
      </trkpt>
      <trkpt lat="47.80681" lon="3.53124">
        <ele>156</ele>
        <time>2019-07-11T12:14:10Z</time>
      </trkpt>
      <trkpt lat="47.80684" lon="3.53131">
        <ele>157</ele>
        <time>2019-07-11T12:14:15Z</time>
      </trkpt>
      <trkpt lat="47.80682" lon="3.53159">
        <ele>157</ele>
        <time>2019-07-11T12:14:51Z</time>
      </trkpt>
      <trkpt lat="47.80666" lon="3.53192">
        <ele>158</ele>
        <time>2019-07-11T12:15:01Z</time>
      </trkpt>
      <trkpt lat="47.80654" lon="3.53208">
        <ele>159</ele>
        <time>2019-07-11T12:15:06Z</time>
      </trkpt>
      <trkpt lat="47.8065" lon="3.53215">
        <ele>159</ele>
        <time>2019-07-11T12:15:12Z</time>
      </trkpt>
      <trkpt lat="47.80642" lon="3.5323">
        <ele>160</ele>
        <time>2019-07-11T12:15:17Z</time>
      </trkpt>
      <trkpt lat="47.80639" lon="3.53252">
        <ele>160</ele>
        <time>2019-07-11T12:15:27Z</time>
      </trkpt>
      <trkpt lat="47.80648" lon="3.53276">
        <ele>158</ele>
        <time>2019-07-11T12:15:47Z</time>
      </trkpt>
      <trkpt lat="47.80654" lon="3.53297">
        <ele>158</ele>
        <time>2019-07-11T12:15:52Z</time>
      </trkpt>
      <trkpt lat="47.80651" lon="3.53319">
        <ele>161</ele>
        <time>2019-07-11T12:15:57Z</time>
      </trkpt>
      <trkpt lat="47.80643" lon="3.53335">
        <ele>162</ele>
        <time>2019-07-11T12:16:02Z</time>
      </trkpt>
      <trkpt lat="47.80628" lon="3.5336">
        <ele>163</ele>
        <time>2019-07-11T12:16:07Z</time>
      </trkpt>
      <trkpt lat="47.80626" lon="3.53364">
        <ele>163</ele>
        <time>2019-07-11T12:16:12Z</time>
      </trkpt>
      <trkpt lat="47.80619" lon="3.53367">
        <ele>160.9</ele>
        <time>2019-07-11T12:16:22Z</time>
      </trkpt>
      <trkpt lat="47.80614" lon="3.53381">
        <ele>161.2</ele>
        <time>2019-07-11T12:16:27Z</time>
      </trkpt>
      <trkpt lat="47.80609" lon="3.53397">
        <ele>161.6</ele>
        <time>2019-07-11T12:16:37Z</time>
      </trkpt>
      <trkpt lat="47.80593" lon="3.53449">
        <ele>166</ele>
        <time>2019-07-11T12:16:52Z</time>
      </trkpt>
      <trkpt lat="47.8059" lon="3.53459">
        <ele>166</ele>
        <time>2019-07-11T12:16:57Z</time>
      </trkpt>
      <trkpt lat="47.80577" lon="3.53497">
        <ele>167</ele>
        <time>2019-07-11T12:17:12Z</time>
      </trkpt>
      <trkpt lat="47.80575" lon="3.53504">
        <ele>168</ele>
        <time>2019-07-11T12:17:32Z</time>
      </trkpt>
      <trkpt lat="47.80573" lon="3.53513">
        <ele>168</ele>
        <time>2019-07-11T12:17:37Z</time>
      </trkpt>
      <trkpt lat="47.80558" lon="3.53547">
        <ele>169</ele>
        <time>2019-07-11T12:17:42Z</time>
      </trkpt>
      <trkpt lat="47.80553" lon="3.53554">
        <ele>170</ele>
        <time>2019-07-11T12:17:52Z</time>
      </trkpt>
      <trkpt lat="47.80537" lon="3.53574">
        <ele>171</ele>
        <time>2019-07-11T12:18:18Z</time>
      </trkpt>
      <trkpt lat="47.80526" lon="3.53587">
        <ele>171</ele>
        <time>2019-07-11T12:19:24Z</time>
      </trkpt>
      <trkpt lat="47.8052" lon="3.53596">
        <ele>172</ele>
        <time>2019-07-11T12:19:29Z</time>
      </trkpt>
      <trkpt lat="47.80506" lon="3.53614">
        <ele>173</ele>
        <time>2019-07-11T12:19:34Z</time>
      </trkpt>
      <trkpt lat="47.80501" lon="3.5362">
        <ele>173</ele>
        <time>2019-07-11T12:19:44Z</time>
      </trkpt>
      <trkpt lat="47.80495" lon="3.53629">
        <ele>174</ele>
        <time>2019-07-11T12:20:30Z</time>
      </trkpt>
      <trkpt lat="47.8049" lon="3.53634">
        <ele>174</ele>
        <time>2019-07-11T12:20:35Z</time>
      </trkpt>
      <trkpt lat="47.80485" lon="3.5364">
        <ele>175</ele>
        <time>2019-07-11T12:20:40Z</time>
      </trkpt>
      <trkpt lat="47.80478" lon="3.53655">
        <ele>172.2</ele>
        <time>2019-07-11T12:20:45Z</time>
      </trkpt>
      <trkpt lat="47.80476" lon="3.5366">
        <ele>172</ele>
        <time>2019-07-11T12:20:50Z</time>
      </trkpt>
      <trkpt lat="47.80473" lon="3.53665">
        <ele>175</ele>
        <time>2019-07-11T12:21:00Z</time>
      </trkpt>
      <trkpt lat="47.80466" lon="3.53676">
        <ele>174</ele>
        <time>2019-07-11T12:21:20Z</time>
      </trkpt>
      <trkpt lat="47.8046" lon="3.53673">
        <ele>175</ele>
        <time>2019-07-11T12:22:01Z</time>
      </trkpt>
      <trkpt lat="47.8044" lon="3.53701">
        <ele>176</ele>
        <time>2019-07-11T12:22:26Z</time>
      </trkpt>
      <trkpt lat="47.8043" lon="3.53717">
        <ele>177</ele>
        <time>2019-07-11T12:22:32Z</time>
      </trkpt>
      <trkpt lat="47.80421" lon="3.53734">
        <ele>178</ele>
        <time>2019-07-11T12:22:37Z</time>
      </trkpt>
      <trkpt lat="47.80404" lon="3.53771">
        <ele>179</ele>
        <time>2019-07-11T12:22:42Z</time>
      </trkpt>
      <trkpt lat="47.80398" lon="3.53786">
        <ele>180</ele>
        <time>2019-07-11T12:22:47Z</time>
      </trkpt>
      <trkpt lat="47.80394" lon="3.53795">
        <ele>181</ele>
        <time>2019-07-11T12:22:52Z</time>
      </trkpt>
      <trkpt lat="47.80383" lon="3.53822">
        <ele>182</ele>
        <time>2019-07-11T12:23:18Z</time>
      </trkpt>
      <trkpt lat="47.8037" lon="3.53852">
        <ele>183</ele>
        <time>2019-07-11T12:24:08Z</time>
      </trkpt>
      <trkpt lat="47.80357" lon="3.53887">
        <ele>186</ele>
        <time>2019-07-11T12:24:13Z</time>
      </trkpt>
      <trkpt lat="47.80352" lon="3.53897">
        <ele>186</ele>
        <time>2019-07-11T12:24:18Z</time>
      </trkpt>
      <trkpt lat="47.80335" lon="3.53926">
        <ele>188</ele>
        <time>2019-07-11T12:24:23Z</time>
      </trkpt>
      <trkpt lat="47.8033" lon="3.53934">
        <ele>189</ele>
        <time>2019-07-11T12:24:28Z</time>
      </trkpt>
      <trkpt lat="47.80326" lon="3.53943">
        <ele>189</ele>
        <time>2019-07-11T12:24:33Z</time>
      </trkpt>
      <trkpt lat="47.80317" lon="3.5396">
        <ele>190</ele>
        <time>2019-07-11T12:24:38Z</time>
      </trkpt>
      <trkpt lat="47.80311" lon="3.53971">
        <ele>191</ele>
        <time>2019-07-11T12:25:03Z</time>
      </trkpt>
      <trkpt lat="47.80307" lon="3.53978">
        <ele>191</ele>
        <time>2019-07-11T12:25:08Z</time>
      </trkpt>
      <trkpt lat="47.80299" lon="3.53993">
        <ele>192</ele>
        <time>2019-07-11T12:25:28Z</time>
      </trkpt>
      <trkpt lat="47.80296" lon="3.54002">
        <ele>192</ele>
        <time>2019-07-11T12:25:38Z</time>
      </trkpt>
      <trkpt lat="47.80288" lon="3.54019">
        <ele>192</ele>
        <time>2019-07-11T12:25:43Z</time>
      </trkpt>
      <trkpt lat="47.80279" lon="3.54035">
        <ele>192</ele>
        <time>2019-07-11T12:25:48Z</time>
      </trkpt>
      <trkpt lat="47.80262" lon="3.54067">
        <ele>193</ele>
        <time>2019-07-11T12:25:58Z</time>
      </trkpt>
      <trkpt lat="47.80257" lon="3.54085">
        <ele>193</ele>
        <time>2019-07-11T12:26:03Z</time>
      </trkpt>
      <trkpt lat="47.80248" lon="3.54102">
        <ele>193</ele>
        <time>2019-07-11T12:26:23Z</time>
      </trkpt>
      <trkpt lat="47.80244" lon="3.5411">
        <ele>193</ele>
        <time>2019-07-11T12:26:33Z</time>
      </trkpt>
      <trkpt lat="47.8024" lon="3.54121">
        <ele>194</ele>
        <time>2019-07-11T12:26:43Z</time>
      </trkpt>
      <trkpt lat="47.80235" lon="3.54138">
        <ele>193</ele>
        <time>2019-07-11T12:26:48Z</time>
      </trkpt>
      <trkpt lat="47.80232" lon="3.54155">
        <ele>194</ele>
        <time>2019-07-11T12:26:53Z</time>
      </trkpt>
      <trkpt lat="47.80208" lon="3.54228">
        <ele>197</ele>
        <time>2019-07-11T12:27:03Z</time>
      </trkpt>
      <trkpt lat="47.80201" lon="3.54246">
        <ele>197</ele>
        <time>2019-07-11T12:27:08Z</time>
      </trkpt>
      <trkpt lat="47.80195" lon="3.54271">
        <ele>196.4</ele>
        <time>2019-07-11T12:27:13Z</time>
      </trkpt>
      <trkpt lat="47.80191" lon="3.54284">
        <ele>196.8</ele>
        <time>2019-07-11T12:27:23Z</time>
      </trkpt>
      <trkpt lat="47.80184" lon="3.54302">
        <ele>197.6</ele>
        <time>2019-07-11T12:27:27Z</time>
      </trkpt>
      <trkpt lat="47.8018" lon="3.54319">
        <ele>199.1</ele>
      </trkpt>
      <trkpt lat="47.80176" lon="3.54328">
        <ele>200.6</ele>
      </trkpt>
      <trkpt lat="47.80172" lon="3.54339">
        <ele>202</ele>
      </trkpt>
      <trkpt lat="47.80168" lon="3.54357">
        <ele>201.2</ele>
      </trkpt>
      <trkpt lat="47.80163" lon="3.54365">
        <ele>202.8</ele>
      </trkpt>
      <trkpt lat="47.80158" lon="3.54383">
        <ele>203</ele>
      </trkpt>
      <trkpt lat="47.80153" lon="3.544">
        <ele>203.4</ele>
      </trkpt>
      <trkpt lat="47.80149" lon="3.54411">
        <ele>203.6</ele>
      </trkpt>
      <trkpt lat="47.80146" lon="3.54425">
        <ele>204.5</ele>
      </trkpt>
      <trkpt lat="47.80142" lon="3.54445">
        <ele>204.5</ele>
      </trkpt>
      <trkpt lat="47.8014" lon="3.54461">
        <ele>205</ele>
      </trkpt>
      <trkpt lat="47.80137" lon="3.54476">
        <ele>204.7</ele>
      </trkpt>
      <trkpt lat="47.80135" lon="3.54498">
        <ele>204.9</ele>
      </trkpt>
      <trkpt lat="47.80133" lon="3.54514">
        <ele>205.3</ele>
      </trkpt>
      <trkpt lat="47.80131" lon="3.54525">
        <ele>205.2</ele>
      </trkpt>
      <trkpt lat="47.80128" lon="3.54542">
        <ele>205.1</ele>
      </trkpt>
      <trkpt lat="47.80121" lon="3.54583">
        <ele>207</ele>
      </trkpt>
      <trkpt lat="47.80121" lon="3.54593">
        <ele>207</ele>
      </trkpt>
      <trkpt lat="47.80115" lon="3.54647">
        <ele>205</ele>
      </trkpt>
      <trkpt lat="47.80111" lon="3.54661">
        <ele>202</ele>
      </trkpt>
      <trkpt lat="47.80107" lon="3.54679">
        <ele>200.6</ele>
      </trkpt>
      <trkpt lat="47.80091" lon="3.54767">
        <ele>197.9</ele>
      </trkpt>
      <trkpt lat="47.80085" lon="3.54788">
        <ele>198</ele>
      </trkpt>
      <trkpt lat="47.80079" lon="3.54803">
        <ele>197.4</ele>
      </trkpt>
      <trkpt lat="47.80068" lon="3.54831">
        <ele>197.6</ele>
      </trkpt>
      <trkpt lat="47.80064" lon="3.54846">
        <ele>197</ele>
      </trkpt>
      <trkpt lat="47.80053" lon="3.54877">
        <ele>196.4</ele>
      </trkpt>
      <trkpt lat="47.80049" lon="3.54893">
        <ele>196.1</ele>
      </trkpt>
      <trkpt lat="47.80044" lon="3.54914">
        <ele>196</ele>
      </trkpt>
      <trkpt lat="47.80043" lon="3.5493">
        <ele>193.5</ele>
      </trkpt>
      <trkpt lat="47.8004" lon="3.54945">
        <ele>194</ele>
      </trkpt>
      <trkpt lat="47.80039" lon="3.54965">
        <ele>193</ele>
      </trkpt>
      <trkpt lat="47.80038" lon="3.54975">
        <ele>193</ele>
      </trkpt>
      <trkpt lat="47.80038" lon="3.54984">
        <ele>193</ele>
      </trkpt>
      <trkpt lat="47.80039" lon="3.55004">
        <ele>192</ele>
      </trkpt>
      <trkpt lat="47.80038" lon="3.55014">
        <ele>191</ele>
      </trkpt>
      <trkpt lat="47.80036" lon="3.55033">
        <ele>190</ele>
      </trkpt>
      <trkpt lat="47.80035" lon="3.55044">
        <ele>190</ele>
      </trkpt>
      <trkpt lat="47.80033" lon="3.55051">
        <ele>189</ele>
      </trkpt>
      <trkpt lat="47.80032" lon="3.5506">
        <ele>189</ele>
      </trkpt>
      <trkpt lat="47.80029" lon="3.5507">
        <ele>189</ele>
      </trkpt>
      <trkpt lat="47.80026" lon="3.55079">
        <ele>189</ele>
      </trkpt>
      <trkpt lat="47.80019" lon="3.55108">
        <ele>188</ele>
      </trkpt>
      <trkpt lat="47.80017" lon="3.55118">
        <ele>187</ele>
      </trkpt>
      <trkpt lat="47.80014" lon="3.55127">
        <ele>187</ele>
      </trkpt>
      <trkpt lat="47.80012" lon="3.55138">
        <ele>186</ele>
      </trkpt>
      <trkpt lat="47.80011" lon="3.55145">
        <ele>186</ele>
      </trkpt>
      <trkpt lat="47.80005" lon="3.55164">
        <ele>186</ele>
      </trkpt>
      <trkpt lat="47.80001" lon="3.55174">
        <ele>185</ele>
      </trkpt>
      <trkpt lat="47.79998" lon="3.55185">
        <ele>184</ele>
      </trkpt>
      <trkpt lat="47.79989" lon="3.55203">
        <ele>183</ele>
      </trkpt>
      <trkpt lat="47.79985" lon="3.55221">
        <ele>182</ele>
      </trkpt>
      <trkpt lat="47.79974" lon="3.55259">
        <ele>176</ele>
      </trkpt>
      <trkpt lat="47.79963" lon="3.55265">
        <ele>176.1</ele>
      </trkpt>
      <trkpt lat="47.79954" lon="3.55272">
        <ele>175.9</ele>
      </trkpt>
      <trkpt lat="47.79953" lon="3.55285">
        <ele>176</ele>
      </trkpt>
      <trkpt lat="47.79956" lon="3.55289">
        <ele>175.5</ele>
      </trkpt>
      <trkpt lat="47.79961" lon="3.55302">
        <ele>175</ele>
      </trkpt>
      <trkpt lat="47.79953" lon="3.55333">
        <ele>174.7</ele>
      </trkpt>
      <trkpt lat="47.79945" lon="3.55356">
        <ele>171.7</ele>
      </trkpt>
      <trkpt lat="47.79942" lon="3.55371">
        <ele>171.2</ele>
      </trkpt>
      <trkpt lat="47.79938" lon="3.55396">
        <ele>171</ele>
      </trkpt>
      <trkpt lat="47.79928" lon="3.5543">
        <ele>169</ele>
      </trkpt>
      <trkpt lat="47.79916" lon="3.55463">
        <ele>166</ele>
      </trkpt>
      <trkpt lat="47.79913" lon="3.55472">
        <ele>166</ele>
      </trkpt>
      <trkpt lat="47.7991" lon="3.55482">
        <ele>165</ele>
      </trkpt>
      <trkpt lat="47.79884" lon="3.55546">
        <ele>160</ele>
      </trkpt>
      <trkpt lat="47.7988" lon="3.55556">
        <ele>160</ele>
      </trkpt>
      <trkpt lat="47.79856" lon="3.55618">
        <ele>154</ele>
      </trkpt>
      <trkpt lat="47.79853" lon="3.55626">
        <ele>154</ele>
      </trkpt>
      <trkpt lat="47.79844" lon="3.55645">
        <ele>153</ele>
      </trkpt>
      <trkpt lat="47.79839" lon="3.55655">
        <ele>151</ele>
      </trkpt>
      <trkpt lat="47.79821" lon="3.5571">
        <ele>143.9</ele>
      </trkpt>
      <trkpt lat="47.79816" lon="3.55722">
        <ele>143.3</ele>
      </trkpt>
      <trkpt lat="47.79812" lon="3.55732">
        <ele>142.9</ele>
      </trkpt>
      <trkpt lat="47.79808" lon="3.55743">
        <ele>142.7</ele>
      </trkpt>
      <trkpt lat="47.798" lon="3.55759">
        <ele>144</ele>
      </trkpt>
      <trkpt lat="47.79797" lon="3.55769">
        <ele>143</ele>
      </trkpt>
      <trkpt lat="47.79786" lon="3.55796">
        <ele>142</ele>
      </trkpt>
      <trkpt lat="47.7976" lon="3.5586">
        <ele>139</ele>
      </trkpt>
      <trkpt lat="47.79746" lon="3.55894">
        <ele>138</ele>
      </trkpt>
      <trkpt lat="47.79742" lon="3.55901">
        <ele>138</ele>
      </trkpt>
      <trkpt lat="47.79738" lon="3.55911">
        <ele>138</ele>
      </trkpt>
      <trkpt lat="47.79711" lon="3.55971">
        <ele>137</ele>
      </trkpt>
      <trkpt lat="47.79709" lon="3.5599">
        <ele>137</ele>
      </trkpt>
      <trkpt lat="47.7971" lon="3.56002">
        <ele>136</ele>
      </trkpt>
      <trkpt lat="47.79706" lon="3.56011">
        <ele>136</ele>
      </trkpt>
      <trkpt lat="47.797" lon="3.56016">
        <ele>136</ele>
      </trkpt>
      <trkpt lat="47.79689" lon="3.56028">
        <ele>136</ele>
      </trkpt>
      <trkpt lat="47.79674" lon="3.56061">
        <ele>137</ele>
      </trkpt>
      <trkpt lat="47.7967" lon="3.5607">
        <ele>137</ele>
      </trkpt>
      <trkpt lat="47.79667" lon="3.5608">
        <ele>137</ele>
      </trkpt>
      <trkpt lat="47.79665" lon="3.56087">
        <ele>137</ele>
      </trkpt>
      <trkpt lat="47.7966" lon="3.56096">
        <ele>137</ele>
      </trkpt>
      <trkpt lat="47.79655" lon="3.56105">
        <ele>137</ele>
      </trkpt>
      <trkpt lat="47.79649" lon="3.56124">
        <ele>137</ele>
      </trkpt>
      <trkpt lat="47.79646" lon="3.56134">
        <ele>137</ele>
      </trkpt>
      <trkpt lat="47.79637" lon="3.5615">
        <ele>137</ele>
      </trkpt>
      <trkpt lat="47.79628" lon="3.56183">
        <ele>137</ele>
      </trkpt>
      <trkpt lat="47.79624" lon="3.56191">
        <ele>137</ele>
      </trkpt>
      <trkpt lat="47.79615" lon="3.56219">
        <ele>137</ele>
      </trkpt>
      <trkpt lat="47.79607" lon="3.56256">
        <ele>136</ele>
      </trkpt>
      <trkpt lat="47.79604" lon="3.56266">
        <ele>136</ele>
      </trkpt>
      <trkpt lat="47.79602" lon="3.56278">
        <ele>136</ele>
      </trkpt>
      <trkpt lat="47.79596" lon="3.56297">
        <ele>136</ele>
      </trkpt>
      <trkpt lat="47.79585" lon="3.56348">
        <ele>135</ele>
      </trkpt>
      <trkpt lat="47.79581" lon="3.56365">
        <ele>132.8</ele>
      </trkpt>
      <trkpt lat="47.79576" lon="3.56384">
        <ele>132.8</ele>
      </trkpt>
      <trkpt lat="47.79576" lon="3.56396">
        <ele>133</ele>
      </trkpt>
      <trkpt lat="47.79572" lon="3.56414">
        <ele>132.9</ele>
      </trkpt>
      <trkpt lat="47.79559" lon="3.56429">
        <ele>132.3</ele>
      </trkpt>
      <trkpt lat="47.79554" lon="3.56451">
        <ele>132</ele>
      </trkpt>
      <trkpt lat="47.79552" lon="3.56463">
        <ele>134</ele>
      </trkpt>
      <trkpt lat="47.79549" lon="3.56473">
        <ele>134</ele>
      </trkpt>
      <trkpt lat="47.79548" lon="3.56483">
        <ele>134</ele>
      </trkpt>
      <trkpt lat="47.79545" lon="3.56504">
        <ele>133</ele>
      </trkpt>
      <trkpt lat="47.7954" lon="3.56592">
        <ele>132</ele>
      </trkpt>
      <trkpt lat="47.7954" lon="3.56601">
        <ele>132</ele>
      </trkpt>
      <trkpt lat="47.79541" lon="3.56611">
        <ele>132</ele>
      </trkpt>
      <trkpt lat="47.79542" lon="3.56625">
        <ele>132</ele>
      </trkpt>
      <trkpt lat="47.79544" lon="3.56637">
        <ele>131</ele>
      </trkpt>
      <trkpt lat="47.79546" lon="3.56662">
        <ele>131</ele>
      </trkpt>
      <trkpt lat="47.7955" lon="3.56696">
        <ele>131</ele>
      </trkpt>
      <trkpt lat="47.79553" lon="3.56713">
        <ele>129</ele>
      </trkpt>
      <trkpt lat="47.79555" lon="3.56725">
        <ele>128.9</ele>
      </trkpt>
      <trkpt lat="47.79555" lon="3.56735">
        <ele>128.8</ele>
      </trkpt>
      <trkpt lat="47.79559" lon="3.56763">
        <ele>128.9</ele>
      </trkpt>
      <trkpt lat="47.79559" lon="3.56775">
        <ele>130</ele>
      </trkpt>
      <trkpt lat="47.7956" lon="3.56787">
        <ele>129.2</ele>
      </trkpt>
      <trkpt lat="47.79562" lon="3.56798">
        <ele>129.1</ele>
      </trkpt>
      <trkpt lat="47.79566" lon="3.56813">
        <ele>128.8</ele>
      </trkpt>
      <trkpt lat="47.79569" lon="3.56831">
        <ele>130</ele>
      </trkpt>
      <trkpt lat="47.79568" lon="3.56844">
        <ele>131</ele>
      </trkpt>
      <trkpt lat="47.7957" lon="3.56852">
        <ele>131</ele>
      </trkpt>
      <trkpt lat="47.79574" lon="3.56861">
        <ele>131</ele>
      </trkpt>
      <trkpt lat="47.79579" lon="3.5687">
        <ele>131</ele>
      </trkpt>
      <trkpt lat="47.79583" lon="3.5688">
        <ele>131</ele>
      </trkpt>
      <trkpt lat="47.79594" lon="3.56895">
        <ele>127</ele>
      </trkpt>
      <trkpt lat="47.79605" lon="3.56901">
        <ele>130</ele>
      </trkpt>
      <trkpt lat="47.79613" lon="3.56908">
        <ele>126</ele>
      </trkpt>
      <trkpt lat="47.79617" lon="3.56932">
        <ele>127.1</ele>
      </trkpt>
      <trkpt lat="47.79619" lon="3.5694">
        <ele>127</ele>
      </trkpt>
      <trkpt lat="47.79622" lon="3.56948">
        <ele>127</ele>
      </trkpt>
      <trkpt lat="47.79629" lon="3.56954">
        <ele>127</ele>
      </trkpt>
      <trkpt lat="47.79634" lon="3.56965">
        <ele>127</ele>
      </trkpt>
      <trkpt lat="47.79639" lon="3.56985">
        <ele>132</ele>
      </trkpt>
      <trkpt lat="47.79638" lon="3.56994">
        <ele>133</ele>
      </trkpt>
      <trkpt lat="47.79637" lon="3.57001">
        <ele>133</ele>
      </trkpt>
      <trkpt lat="47.7964" lon="3.57011">
        <ele>133</ele>
      </trkpt>
      <trkpt lat="47.79644" lon="3.57021">
        <ele>133</ele>
      </trkpt>
      <trkpt lat="47.79646" lon="3.57034">
        <ele>133</ele>
      </trkpt>
      <trkpt lat="47.79649" lon="3.57045">
        <ele>132</ele>
      </trkpt>
      <trkpt lat="47.79652" lon="3.57055">
        <ele>129.2</ele>
      </trkpt>
      <trkpt lat="47.79658" lon="3.5707">
        <ele>129.6</ele>
      </trkpt>
      <trkpt lat="47.79667" lon="3.57087">
        <ele>131</ele>
      </trkpt>
      <trkpt lat="47.79671" lon="3.57094">
        <ele>130</ele>
      </trkpt>
      <trkpt lat="47.79688" lon="3.57121">
        <ele>129</ele>
      </trkpt>
      <trkpt lat="47.79697" lon="3.57133">
        <ele>128</ele>
      </trkpt>
      <trkpt lat="47.79701" lon="3.5714">
        <ele>128</ele>
      </trkpt>
      <trkpt lat="47.79707" lon="3.57146">
        <ele>128</ele>
      </trkpt>
      <trkpt lat="47.79715" lon="3.57159">
        <ele>127</ele>
      </trkpt>
      <trkpt lat="47.79721" lon="3.57157">
        <ele>127</ele>
      </trkpt>
      <trkpt lat="47.79735" lon="3.57172">
        <ele>127</ele>
      </trkpt>
      <trkpt lat="47.79741" lon="3.57183">
        <ele>127</ele>
      </trkpt>
      <trkpt lat="47.79748" lon="3.5719">
        <ele>127</ele>
      </trkpt>
      <trkpt lat="47.79754" lon="3.57196">
        <ele>127</ele>
      </trkpt>
      <trkpt lat="47.79757" lon="3.57202">
        <ele>127</ele>
      </trkpt>
      <trkpt lat="47.79765" lon="3.57215">
        <ele>127</ele>
      </trkpt>
      <trkpt lat="47.79769" lon="3.57222">
        <ele>127</ele>
      </trkpt>
      <trkpt lat="47.79771" lon="3.57224">
        <ele>127</ele>
      </trkpt>
      <trkpt lat="47.79767" lon="3.57221">
        <ele>127</ele>
      </trkpt>
      <trkpt lat="47.79775" lon="3.57235">
        <ele>127</ele>
      </trkpt>
    </trkseg>
  </trk>
</gpx>